[[{"header":{"parameterUnit":"m.s-1","parameterCategory":1,"la1":30.6,"la2":29.2853,"lo1":-89.7004,"lo2":-87.6739,"dy":0.0162,"dx":0.0183,"nx":112,"ny":82,"refTime":"2023-08-31T06:00:00:Z","depth":0,"parameterNumber":2,"parameterNumberName":"U-component_of_WINDS"},"data":[0.0,0.0,0.0,0.0,0.0,0.0,0.0,0.0,0.0,0.0,0.0,0.0,0.0,0.0,0.0,0.0,0.0,0.0,0.0,0.0,0.0,0.0,0.0,0.0,0.0,0.0,0.0,0.0,0.0,0.0,0.0,0.0,0.0,0.0,0.0,0.0,0.0,0.0,0.0,0.0,0.0,0.0,0.0,0.0,0.0,0.0,0.0,0.0,0.0,0.0,0.0,0.0,0.0,0.0,0.0,0.0,0.0,0.0,0.0,0.0,0.0,0.0,0.0,0.0,0.0,0.0,0.0,0.0,0.0,0.0,0.0,0.0,0.0,0.0,0.0,0.0,0.0,0.0,0.0,0.0,0.0,0.0,0.0,0.0,0.0,0.0,0.0,0.0,0.0,0.0,-0.1642,-0.3032,-0.2903,-0.1858,0.0236,0.0924,0.1171,0.093,0.0,0.0,0.0,0.0,0.0,0.0,0.0,0.0,0.0,0.0,0.0,0.0,0.0,0.0,0.0,0.0,0.0,0.0,0.0,0.0,0.0,0.0,0.0,0.0,0.0,0.0,0.0,0.0,0.0,0.0,0.0,0.0,0.0,0.0,0.0,0.0,0.0,0.0,0.0,0.0,0.0,0.0,0.0,0.0,0.0,0.0,0.0,0.0,0.0,0.0,0.0,0.0,0.0,0.0,0.0,0.0,0.0,0.0,0.0,0.0,0.0,0.0,0.0,0.0,0.0,0.0,0.0,0.0,0.0,0.0,0.0,0.0,0.0,0.0,0.0,0.0,0.0,0.0,0.0,0.0,0.0,0.0,0.0,0.0,0.0,0.0,0.0,0.0,0.0,0.0,0.0,0.0,0.0,0.0,0.0,0.0,0.0,0.0,0.0,0.0,0.0,0.0,0.0,0.0,-0.1335,-0.1701,-0.0762,0.0061,0.0354,0.0735,0.099,0.0992,0.0,0.0,0.0,0.0,0.0,0.0,0.0,0.0,0.0,0.0,0.0,0.0,0.0,0.0,0.0,0.0,0.0,0.0,0.0,0.0,0.0,0.0,0.0,0.0,0.0,0.0,0.0,0.0,0.0,0.0,0.0,0.0,0.0,0.0,0.0,0.0,0.0,0.0,0.0,0.0,0.0,0.0,0.0,0.0,0.0,0.0,0.0,0.0,0.0,0.0,0.0,0.0,0.0,0.0,0.0,0.0,0.0,0.0,0.0,0.0,0.0,0.0,0.0,0.0,0.0,0.0,0.0,0.0,0.0,0.0,0.0,0.0,0.0,0.0,0.0,0.0,0.0,0.0,0.0,0.0,0.0,0.0,0.0,0.0,0.0,0.0,0.0,0.0,0.0,0.0,0.0,0.0,0.0,0.0,0.0,0.0,0.0,0.0,0.0,0.0,0.0,0.0,0.0,-0.2174,-0.256,-0.2418,-0.2046,-0.126,0.006,0.0453,0.0677,0.0736,0.0967,0.0,0.0,0.0,0.0,0.0,0.0,0.0,0.0,0.0,0.0,0.0,0.0,0.0,0.0,0.0,0.0,0.0,0.0,0.0,0.0,0.0,0.0,0.0,0.0,0.0,0.0,0.0,0.0,0.0,0.0,0.0,0.0,0.0,0.0,0.0,0.0,0.0,0.0,0.0,0.0,0.0,0.0,0.0,0.0,0.0,0.0,0.0,0.0,0.0,0.0,0.0,0.0,0.0,0.0,0.0,0.0,0.0,0.0,0.0,0.0,0.0,0.0,0.0,0.0,0.0,0.0,0.0,0.0,0.0,0.0,0.0,0.0,0.0,0.0,0.0,0.0,0.0,0.0,0.0,0.0,0.0,0.0,0.0,0.0,0.0,0.0,0.0,0.0,0.0,0.0,0.0,0.0,0.0,0.0,0.0,0.0,0.0,0.0,0.0,0.0,0.0,0.0,-0.3276,-0.3511,-0.3256,-0.3274,-0.2522,-0.0592,0.0,0.0358,0.0502,0.0691,0.0,0.0,0.0,0.0,0.0,0.0,0.0,0.0,0.0,0.0,0.0,0.0,0.0,0.0,0.0,0.0,0.0,0.0,0.0,0.0,0.0,0.0,0.0,0.0,0.0,0.0,0.0,0.0,0.0,0.0,0.0,0.0,0.0,0.0,0.0,0.0,0.0,0.0,0.0,0.0,0.0,0.0,0.0,0.0,0.0,0.0,0.0,0.0,0.0,0.0,0.0,0.0,0.0,0.0,0.0,0.0,0.0,0.0,0.0,0.0,0.0,0.0,0.0,0.0,0.0,0.0,0.0,0.0,0.0,0.0,0.0,0.0,0.0,0.0,0.0,0.0,0.0,0.0,0.0,0.0,0.0,0.0,0.0,0.0,0.0,0.0,0.0,0.0,0.0,0.0,0.0,0.0,0.0,0.0,0.0,0.0,0.0,0.0,0.0,0.0,0.0,0.0,-0.2453,-0.3071,-0.3374,-0.2388,-0.1715,-0.169,-0.0625,0.0142,0.047,0.0446,0.0,0.0,0.0,0.0,0.0,0.0,0.0,0.0,0.0,0.0,0.0,0.0,0.0,0.0,0.0,0.0,0.0,0.0,0.0,0.0,0.0,0.0,0.0,0.0,0.0,0.0,0.0,0.0,0.0,0.0,0.0,0.0,0.0,0.0,0.0,0.0,0.0,0.0,0.0,0.0,0.0,0.0,0.0,0.0,0.0,0.0,0.0,0.0,0.0,0.0,0.0,0.0,0.0,0.0,0.0,0.0,0.0,0.0,0.0,0.0,0.0,0.0,0.0,0.0,0.0,0.0,0.0,0.0,0.0,0.0,0.0,0.0,0.0,0.0,0.0,0.0,0.0,0.0,0.0,0.0,0.0,0.0,0.0,0.0,0.0,0.0,0.0,0.0,0.0,0.0,0.0,0.0,0.0,0.0,0.0,0.0,0.0,0.0,0.0,0.0,0.0,0.0,-0.3674,-0.3828,0.0,-0.3541,-0.3177,-0.1817,-0.1284,-0.0894,-0.0635,0.0,0.0,0.0,0.0,0.0,0.0,0.0,0.0,0.0,0.0,0.0,0.0,0.0,0.0,0.0,0.0,0.0,0.0,0.0,0.0,0.0,0.0,0.0,0.0,0.0,0.0,0.0,0.0,0.0,0.0,0.0,0.0,0.0,0.0,0.0,0.0,0.0,0.0,0.0,0.0,0.0,0.0,0.0,0.0,0.0,0.0,0.0,0.0,0.0,0.0,0.0,0.0,0.0,0.0,0.0,0.0,0.0,0.0,0.0,0.0,0.0,0.0,0.0,0.0,0.0,0.0,0.0,0.0,0.0,0.0,0.0,0.0,0.0,0.0,0.0,0.0,0.0,0.0,0.0,0.0,0.0,0.0,0.0,0.0,0.0,0.0,0.0,0.0,0.0,0.0,0.0,0.0,0.0,0.0,0.0,0.0,0.0,0.0,0.0,0.0,0.0,0.0,-0.392,-0.4621,-0.4821,0.0,-0.4669,-0.4329,-0.2765,-0.2216,-0.1755,-0.1309,0.0,0.0,0.0,0.0,0.0,0.0,0.0,0.0,0.0,0.0,0.0,0.0,0.0,0.0,0.0,0.0,0.0,0.0,0.0,0.0,0.0,0.0,0.0,0.0,0.0,0.0,0.0,0.0,0.0,0.0,0.0,0.0,0.0,0.0,0.0,0.0,0.0,0.0,0.0,0.0,0.0,0.0,0.0,0.0,0.0,0.0,0.0,0.0,0.0,0.0,0.0,0.0,0.0,0.0,0.0,0.0,0.0,0.0,0.0,0.0,0.0,0.0,0.0,0.0,0.0,0.0,0.0,0.0,0.0,0.0,0.0,0.0,0.0,0.0,0.0,0.0,0.0,0.0,0.0,0.0,0.0,0.0,0.0,0.0,0.0,0.0,0.0,0.0,0.0,0.0,0.0,0.0,0.0,0.0,0.0,0.0,0.0,0.0,0.0,0.0,0.0,0.0,-0.3883,-0.4978,-0.5864,-0.6336,-0.5466,-0.4818,-0.4788,-0.3524,-0.2282,0.0,0.0,0.0,0.0,0.0,0.0,0.0,0.0,0.0,0.0,0.0,0.0,0.0,0.0,0.0,0.0,0.0,0.0,0.0,0.0,0.0,0.0,0.0,0.0,0.0,0.0,0.0,0.0,0.0,0.0,0.0,0.0,0.0,0.0,0.0,0.0,0.0,0.0,0.0,0.0,0.0,0.0,0.0,0.0,0.0,0.0,0.0,0.0,0.0,0.0,0.0,0.0,0.0,0.0,0.0,0.0,0.0,0.0,0.0,0.0,0.0,0.0,0.0,0.0,0.0,0.0,0.0,0.0,0.0,0.0,0.0,0.0,0.0,0.0,0.0,0.0,0.0,0.0,0.0,0.0,0.0,0.0,0.0,0.0,0.0,0.0,0.0,0.0,0.0,0.0,0.0,0.0,0.0,0.0,0.0,0.0,0.0,0.0,0.0,0.0,0.0,0.0,0.0,-0.4885,-0.5341,-0.5557,-0.5419,-0.5582,-0.54,-0.4645,-0.4042,-0.3317,-0.2439,0.0,0.0,0.0,0.0,0.0,0.0,0.0,0.0,0.0,0.0,0.0,0.0,0.0,0.0,0.0,0.0,0.0,0.0,0.0,0.0,0.0,0.0,0.0,0.0,0.0,0.0,0.0,0.0,0.0,0.0,0.0,0.0,0.0,0.0,0.0,0.0,0.0,0.0,0.0,0.0,0.0,0.0,0.0,0.0,0.0,0.0,0.0,0.0,0.0,0.0,0.0,0.0,0.0,0.0,0.0,0.0,0.0,0.0,0.0,0.0,0.0,0.0,0.0,0.0,0.0,0.0,0.0,0.0,0.0,0.0,0.0,0.0,0.0,0.0,0.0,0.0,0.0,0.0,0.0,0.0,0.0,0.0,0.0,0.0,0.0,0.0,0.0,0.0,0.0,0.0,0.0,0.0,0.0,0.0,0.0,0.0,0.0,0.0,0.0,0.0,0.0,0.0,-0.5368,-0.5635,-0.5734,-0.5633,-0.6,-0.5968,-0.5263,-0.4788,-0.4168,-0.3335,0.0,0.0,0.0,0.0,0.0,0.0,0.0,0.0,0.0,0.0,0.0,0.0,0.0,0.0,0.0,0.0,0.0,0.0,0.0,0.0,0.0,0.0,0.0,0.0,0.0,0.0,0.0,0.0,0.0,0.0,0.0,0.0,0.0,0.0,0.0,0.0,0.0,0.0,0.0,0.0,0.0,0.0,0.0,0.0,0.0,0.0,0.0,0.0,0.0,0.0,0.0,0.0,0.0,0.0,0.0,0.0,0.0,0.0,0.0,0.0,0.0,0.0,0.0,0.0,0.0,0.0,0.0,0.0,0.0,0.0,0.0,0.0,0.0,0.0,0.0,0.0,0.0,0.0,0.0,0.0,0.0,0.0,0.0,0.0,0.0,0.0,0.0,0.0,0.0,0.0,0.0,0.0,0.0,0.0,0.0,0.0,0.0,0.0,0.0,0.0,0.0,0.0,-0.5455,-0.5793,-0.6138,-0.6554,-0.6464,-0.6337,-0.6261,-0.563,-0.4847,-0.3966,0.0,0.0,0.0,0.0,0.0,0.0,0.0,0.0,0.0,0.0,0.0,0.0,0.0,0.0,0.0,0.0,0.0,0.0,0.0,0.0,0.0,0.0,0.0,0.0,0.0,0.0,0.0,0.0,0.0,0.0,0.0,0.0,0.0,0.0,0.0,0.0,0.0,0.0,0.0,0.0,0.0,0.0,0.0,0.0,0.0,0.0,0.0,0.0,0.0,0.0,0.0,0.0,0.0,0.0,0.0,0.0,0.0,0.0,0.0,0.0,-0.7613,0.0,0.0,0.0,0.0,0.0,0.0,0.0,0.0,0.0,0.0,0.0,0.0,0.0,0.0,0.0,0.0,0.0,0.0,0.0,0.0,0.0,0.0,0.0,0.0,0.0,0.0,0.0,0.0,0.0,0.0,0.0,0.0,0.0,0.0,0.0,0.0,0.0,0.0,0.0,0.0,0.0,-0.5657,-0.5736,-0.5958,-0.6479,-0.6248,-0.602,-0.593,-0.5586,-0.4944,-0.3969,-0.3703,0.0,0.0,0.0,0.0,0.0,0.0,0.0,0.0,0.0,0.0,0.0,0.0,0.0,0.0,0.0,0.0,0.0,0.0,0.0,0.0,0.0,0.0,0.0,0.0,0.0,0.0,0.0,0.0,0.0,0.0,0.0,0.0,0.0,0.0,0.0,0.0,0.0,0.0,0.0,0.0,0.0,0.0,0.0,0.0,0.0,0.0,0.0,0.0,0.0,0.0,0.0,0.0,0.0,0.0,0.0,0.0,0.0,0.0,0.0,0.0,-0.8338,0.0,0.0,0.0,0.0,0.0,0.0,0.0,0.0,0.0,0.0,0.0,0.0,0.0,0.0,0.0,0.0,0.0,0.0,0.0,0.0,0.0,0.0,0.0,0.0,0.0,0.0,0.0,0.0,0.0,0.0,0.0,0.0,0.0,0.0,0.0,0.0,0.0,0.0,0.0,0.0,-0.5848,-0.5881,-0.6041,-0.6547,-0.6328,-0.6106,-0.5963,-0.5624,-0.5164,-0.4576,-0.4306,0.0,0.0,0.0,0.0,0.0,0.0,0.0,0.0,0.0,0.0,0.0,0.0,0.0,0.0,0.0,0.0,0.0,0.0,0.0,0.0,0.0,0.0,0.0,0.0,0.0,0.0,0.0,0.0,0.0,0.0,0.0,0.0,0.0,0.0,0.0,0.0,0.0,0.0,0.0,0.0,0.0,0.0,0.0,0.0,0.0,0.0,0.0,0.0,0.0,0.0,0.0,0.0,0.0,-1.2586,-1.3022,-1.324,-1.3933,-1.4221,-1.4083,-1.1994,-1.1019,-1.0841,-0.9793,0.0,0.0,0.0,0.0,0.0,0.0,0.0,0.0,0.0,0.0,0.0,0.0,0.0,0.0,0.0,0.0,0.0,0.0,0.0,0.0,0.0,0.0,0.0,0.0,-1.0897,-1.0601,-0.8965,0.0,0.0,0.0,0.0,0.0,0.0,0.0,0.0,0.0,0.0,0.0,-0.5899,-0.5952,-0.6152,-0.658,-0.6422,-0.6241,-0.6096,-0.5714,-0.5436,-0.5275,-0.4947,-0.4555,0.0,0.0,0.0,0.0,0.0,0.0,0.0,0.0,0.0,0.0,0.0,0.0,0.0,0.0,0.0,0.0,0.0,0.0,0.0,0.0,0.0,0.0,0.0,0.0,0.0,0.0,0.0,0.0,0.0,0.0,0.0,0.0,-0.7197,-0.8387,0.0,0.0,0.0,0.0,0.0,0.0,0.0,0.0,0.0,0.0,0.0,0.0,0.0,-1.357,-1.4136,-1.536,-1.5708,-1.5184,-1.7228,-1.8015,-1.7652,-1.82,-1.8626,-1.8877,-1.7284,0.0,-1.2855,-1.2,0.0,0.0,0.0,0.0,0.0,0.0,0.0,0.0,0.0,0.0,0.0,0.0,0.0,0.0,0.0,0.0,0.0,0.0,0.0,0.0,0.0,0.0,-1.2993,-1.2824,-1.2817,-1.2739,0.0,-1.0628,-0.9047,-0.8578,-0.8169,0.0,0.0,0.0,0.0,0.0,0.0,0.0,-0.5789,-0.583,-0.5956,-0.6323,-0.6318,-0.6219,-0.6026,-0.5938,-0.5802,-0.5564,-0.5493,-0.5298,-0.4932,-0.4976,0.0,0.0,0.0,0.0,0.0,0.0,0.0,0.0,0.0,0.0,0.0,0.0,0.0,0.0,0.0,0.0,0.0,0.0,0.0,0.0,0.0,0.0,0.0,0.0,0.0,0.0,0.0,0.0,0.0,-0.7751,-0.8827,-0.976,-1.0646,-1.0949,0.0,0.0,0.0,0.0,0.0,0.0,0.0,0.0,0.0,-1.459,-1.558,-1.6247,-1.6629,-1.835,-1.9119,-1.9015,-2.0207,-2.0892,-2.1081,-2.1304,-2.165,-2.2055,-2.1385,-2.0142,-1.8366,-1.5403,-1.3754,-1.3027,0.0,0.0,0.0,0.0,-1.1955,-1.1859,-1.1965,-1.1888,-1.1725,-1.1666,0.0,0.0,0.0,0.0,0.0,0.0,0.0,0.0,0.0,0.0,-1.4146,-1.4389,-1.4563,-1.4592,-1.4376,-1.3223,-1.1787,0.0,-0.9966,-0.9531,-0.7913,0.0,0.0,0.0,0.0,-0.6481,-0.6691,-0.6423,-0.6297,-0.6433,-0.6377,-0.6238,-0.6003,-0.5912,-0.5813,-0.5603,-0.5589,-0.5487,-0.5266,-0.5156,-0.5054,0.0,0.0,0.0,0.0,0.0,0.0,0.0,0.0,0.0,0.0,0.0,0.0,0.0,0.0,0.0,0.0,0.0,0.0,0.0,0.0,0.0,0.0,0.0,0.0,0.0,0.0,0.0,0.0,-0.9765,-1.0651,-1.1327,-1.2459,-1.292,0.0,0.0,0.0,0.0,0.0,0.0,-1.6118,-1.6392,-1.6846,-1.7627,-1.8633,-1.927,-1.9505,-2.1092,-2.1939,-2.2073,-2.2614,-2.3153,-2.3708,-2.3753,-2.3974,-2.4413,-2.4095,-2.3557,-2.2671,-1.8753,-1.6563,-1.5696,-1.5203,-1.4969,-1.4944,-1.5108,-1.4962,-1.4721,-1.4891,-1.4628,-1.4151,-1.377,-1.3559,-1.3294,-1.2509,0.0,0.0,0.0,0.0,-1.3614,-1.4326,-1.474,-1.5048,-1.5568,-1.5812,-1.5866,-1.5651,-1.5149,-1.4107,0.0,-1.1741,-1.1278,-0.9289,0.0,0.0,0.0,0.0,-0.7672,-0.7829,-0.7496,-0.716,-0.7015,-0.6795,-0.6555,-0.6173,-0.5982,-0.5796,-0.5654,-0.561,-0.5556,-0.5402,-0.5259,-0.519,-0.519,0.0,0.0,0.0,0.0,0.0,0.0,0.0,0.0,0.0,0.0,0.0,0.0,0.0,0.0,0.0,0.0,0.0,0.0,0.0,0.0,0.0,0.0,0.0,0.0,0.0,0.0,0.0,0.0,0.0,-1.3026,-1.4209,0.0,0.0,0.0,0.0,-1.754,-1.7967,-1.8762,-2.0236,-2.096,-2.1644,-2.2321,-2.2903,-2.3335,-2.3598,-2.3901,-2.3885,-2.3611,-2.4721,-2.5271,-2.5359,-2.5447,-2.5743,-2.6079,-2.4844,-2.4091,-2.3591,-2.1573,-2.0184,-1.9243,-1.8151,-1.7639,-1.7485,-1.7237,-1.6904,-1.6515,-1.6273,-1.5553,-1.4909,-1.5662,-1.5588,-1.5098,-1.4754,-1.446,0.0,0.0,-1.474,-1.5239,-1.5532,-1.5854,-1.6169,-1.6483,-1.6346,-1.617,-1.6157,-1.5758,-1.5003,0.0,-1.3061,-1.2257,-1.0731,0.0,-1.0112,-0.8934,-0.8733,-0.8785,-0.8985,-0.8999,-0.8726,-0.81,-0.7855,-0.7399,-0.663,-0.6218,-0.5915,-0.58,-0.5664,-0.5556,-0.5402,-0.5395,-0.5395,-0.5395,-0.5362,0.0,0.0,0.0,0.0,0.0,0.0,0.0,0.0,0.0,0.0,0.0,0.0,0.0,0.0,0.0,0.0,0.0,0.0,0.0,0.0,0.0,0.0,0.0,0.0,0.0,0.0,0.0,0.0,-1.5748,-1.7296,0.0,-1.8466,-1.8563,-1.8994,-1.9952,-2.0519,-2.1419,-2.2765,-2.31,-2.3565,-2.4197,-2.4643,-2.4907,-2.4996,-2.5436,-2.5601,-2.5516,-2.5918,-2.6271,-2.6537,-2.6878,-2.7258,-2.7679,-2.7189,-2.674,-2.6324,-2.535,-2.3469,-2.1221,-2.0494,-2.0045,-1.9734,-1.965,-1.9343,-1.891,-1.8699,-1.8402,-1.8033,-1.7814,-1.7317,-1.6692,-1.5963,-1.5835,-1.5787,-1.5376,-1.5571,-1.592,-1.6228,-1.639,-1.6495,-1.656,-1.6541,-1.6398,-1.6197,-1.5973,-1.5604,-1.4785,-1.4089,-1.3273,-1.2181,-1.1829,-1.1495,-1.0883,-1.0349,-1.0063,-1.0119,-0.9637,-0.9238,-0.9092,-0.8711,-0.8147,-0.7443,-0.7171,-0.675,-0.6025,-0.5964,-0.5859,-0.573,-0.5591,-0.5521,-0.5521,-0.5458,-0.5395,0.0,0.0,0.0,0.0,0.0,0.0,0.0,0.0,0.0,0.0,0.0,0.0,0.0,0.0,0.0,0.0,0.0,0.0,0.0,0.0,0.0,0.0,0.0,0.0,0.0,0.0,-1.6931,-1.8463,-2.0272,-2.1372,-2.1334,-2.1639,-2.2224,-2.314,-2.3726,-2.4552,-2.579,-2.5988,-2.6192,-2.6492,-2.6589,-2.6525,-2.6368,-2.6751,-2.6878,-2.6784,-2.7089,-2.7254,-2.7406,-2.7925,-2.8228,-2.8379,-2.8469,-2.8226,-2.7774,-2.7271,-2.5799,-2.3791,-2.3048,-2.2453,-2.1998,-2.1862,-2.1319,-2.0647,-2.0158,-2.0022,-1.9892,-1.9341,-1.8887,-1.8448,-1.778,-1.7728,-1.7787,-1.7323,-1.7372,-1.7507,-1.7399,-1.7318,-1.7279,-1.6911,-1.677,-1.6673,-1.6469,-1.6158,-1.5847,-1.5434,-1.4897,-1.4184,-1.3338,-1.3033,-1.2766,-1.2402,-1.1827,-1.1426,-1.1426,-1.0822,-1.0269,-1.001,-0.9589,-0.899,-0.8165,-0.7753,-0.732,-0.6825,-0.6379,-0.6165,-0.6222,-0.5815,-0.5617,-0.5617,-0.5573,-0.5605,-0.5675,0.0,0.0,0.0,0.0,0.0,0.0,0.0,0.0,0.0,0.0,0.0,0.0,0.0,0.0,0.0,0.0,0.0,0.0,0.0,0.0,0.0,0.0,0.0,-1.6393,-1.8419,-2.0252,-2.1151,-2.3003,-2.4165,-2.3978,-2.4049,-2.4986,-2.7187,-2.756,-2.8137,-2.925,-2.9746,-2.9798,-2.9414,-2.8897,-2.8431,-2.7976,-2.7966,-2.7738,-2.734,-2.8193,-2.838,-2.7927,-2.8584,-2.8656,-2.8207,-2.842,-2.8196,-2.7754,-2.7311,-2.712,-2.6969,-2.5702,-2.4791,-2.4173,-2.3682,-2.2794,-2.1606,-2.0638,-2.0277,-2.0277,-2.0277,-2.0277,-2.0277,-2.0277,-2.0232,-2.0232,-2.0187,-2.0187,-2.0005,-1.9063,-1.8834,-1.8603,-1.7598,-1.7246,-1.7066,-1.7059,-1.638,-1.5768,-1.5709,-1.5456,-1.4964,-1.4152,-1.4001,-1.3817,-1.3306,-1.2991,0.0,-1.2784,-1.2516,-1.1892,-1.0876,-1.0569,-0.9986,-0.8871,-0.8,-0.7692,-0.817,-0.698,-0.6463,-0.6933,-0.6141,-0.5683,-0.5657,-0.5845,-0.6038,-0.6222,0.0,0.0,0.0,0.0,0.0,0.0,0.0,0.0,0.0,0.0,0.0,0.0,0.0,0.0,0.0,0.0,0.0,0.0,0.0,0.0,0.0,-1.8434,-1.9995,-1.9404,-2.1248,-2.3273,-2.5012,-2.6151,-2.7072,-2.774,-2.8137,-2.8432,-2.8712,-2.9137,-2.9466,-2.9798,-2.9922,-3.0297,-3.0926,-3.012,-2.9599,-2.9571,-2.9119,-2.8524,-2.7748,-2.8328,-2.8545,-2.8431,-2.859,-2.8591,-2.8457,-2.8202,-2.7988,-2.7834,-2.7431,-2.7051,-2.6675,-2.5932,-2.5334,-2.4856,-2.4405,-2.3727,-2.296,-2.2687,-2.2457,-2.2315,-2.2315,-2.2315,-2.2183,-2.1507,-2.1284,-2.115,-2.0413,-2.0187,-2.0141,-1.9869,-1.9824,-1.9733,-1.9459,-1.9376,-1.9082,-1.8153,-1.777,-1.7294,-1.6411,-1.5944,-1.5433,-1.4636,-1.4344,-1.4129,-1.3811,-1.3354,0.0,-1.2822,-1.2342,-1.2045,-1.2203,-1.179,-1.1142,-1.0278,-0.9815,-0.9252,-0.8477,-0.8063,-0.7939,-0.8069,-0.7674,-0.7259,-0.6768,-0.6822,-0.6676,0.0,0.0,0.0,0.0,0.0,0.0,0.0,0.0,0.0,0.0,0.0,0.0,0.0,0.0,0.0,0.0,0.0,0.0,0.0,0.0,0.0,0.0,-2.1926,-2.3767,-2.4259,-2.4899,-2.5933,-2.7619,-2.8346,-2.8948,-2.956,-3.0037,-3.0224,-2.9962,-3.0399,-3.0661,-3.0661,-3.0893,-3.1188,-3.1629,-3.1262,-3.0984,-3.0871,-3.0493,-2.9907,-2.9176,-2.9653,-2.9629,-2.9249,-2.9438,-2.9276,-2.8887,-2.8618,-2.8276,-2.7903,-2.7645,-2.7272,0.0,0.0,0.0,0.0,0.0,-2.3984,-2.3634,-2.3634,-2.3537,-2.3396,-2.3396,-2.3396,-2.3309,-2.2775,-2.2501,-2.2325,-2.173,-2.1498,-2.132,-2.0917,-2.0827,-2.0737,-2.0277,-2.0187,-1.9991,-1.9241,-1.9031,-1.8689,-1.7957,-1.7221,0.0,-1.5896,-1.517,-1.4515,-1.4178,-1.3708,-1.331,-1.3026,-1.2603,-1.2392,-1.2654,-1.2143,-1.1595,-1.1047,-1.0476,0.0,0.0,0.0,-0.8608,-0.8575,-0.8571,0.0,0.0,0.0,-0.8009,-0.7735,0.0,0.0,0.0,-0.73,-0.711,0.0,0.0,0.0,0.0,0.0,0.0,0.0,0.0,0.0,0.0,0.0,0.0,0.0,0.0,0.0,0.0,-2.5661,-2.7632,-2.9533,-2.8846,-2.8481,-2.9405,-2.9922,-3.0151,-3.0203,-3.0588,-3.0888,-3.0888,-3.1311,-3.1618,-3.1618,0.0,0.0,0.0,0.0,-3.2419,-3.1973,-3.1954,-3.1669,-3.1136,-3.162,-3.1367,-3.0551,-3.0928,-3.0579,-2.9688,-2.9635,-2.9111,-2.8254,-2.8254,-2.7871,-2.7212,-2.6287,-2.5482,-2.4873,-2.4142,-2.3884,-2.3841,-2.3841,0.0,0.0,-2.3797,-2.3797,-2.3797,-2.3797,-2.3667,-2.3547,-2.3547,-2.3363,-2.3003,-2.2148,-2.1917,-2.1686,-2.0782,-2.0548,-2.0548,-2.0421,-2.0198,-1.9964,-1.9885,-1.8869,-1.7908,-1.7629,-1.6236,-1.4991,-1.4465,-1.4109,-1.3761,-1.3408,-1.3138,-1.2844,-1.2614,0.0,0.0,-1.1448,-1.0532,-1.0188,-1.0653,-0.9721,-0.913,-0.9052,-0.926,-0.9346,-0.9273,-0.9473,-0.9592,-0.963,-0.983,-0.9895,-0.989,-0.8676,-0.819,0.0,0.0,0.0,0.0,0.0,0.0,0.0,0.0,0.0,0.0,0.0,0.0,0.0,0.0,0.0,-2.5526,-2.8147,-3.0154,-3.0965,-3.1537,-3.164,-3.1169,-3.1159,-3.1221,-3.1303,-3.1362,-3.1465,-3.1465,-3.1516,-3.1618,-3.1618,-3.2129,-3.2732,-3.3525,-3.3536,-3.3371,-3.2996,-3.3499,-3.309,-3.1916,0.0,0.0,-3.3169,-3.2845,-3.2526,-3.2165,-3.1803,-3.1194,-3.0403,-3.0403,-2.9189,-2.7221,-2.6253,-2.5571,-2.5083,-2.4586,-2.4239,-2.411,-2.411,-2.398,-2.3797,-2.3797,-2.3797,-2.3797,-2.3797,-2.3754,0.0,-2.3754,-2.3711,-2.3624,-2.344,-2.3387,-2.3299,-2.295,-2.2862,-2.2589,-2.1596,-2.1364,-2.1078,-2.0264,-1.9741,-1.9372,-1.9348,-1.7341,-1.5539,-1.5047,-1.4643,-1.4283,-1.3768,-1.346,-1.325,-1.3142,-1.2604,-1.2249,-1.2193,-1.1559,-1.1224,-1.1332,-1.135,-1.1309,-1.1132,-1.1184,-1.094,-1.0384,-1.0437,-1.0269,-0.983,-0.9868,-0.9895,-0.9895,-0.9622,-0.9526,0.0,0.0,0.0,0.0,0.0,0.0,0.0,0.0,0.0,0.0,0.0,-1.9191,0.0,0.0,-2.6051,-2.8561,-3.0541,-3.1955,-3.2427,-3.317,-3.3136,-3.1689,-3.1762,-3.2126,-3.2585,-3.2483,-3.2851,-3.3986,-3.3283,-3.3147,-3.3981,-3.4101,-3.4607,-3.5545,-3.6034,-3.6238,-3.6048,-3.5817,-3.5336,-3.4667,-3.4725,-3.4581,-3.4265,-3.4053,-3.374,-3.3401,-3.3131,-3.2546,-3.167,-3.1135,-3.019,-2.8923,-2.7866,-2.6399,-2.4817,-2.459,-2.4454,-2.4325,-2.4325,-2.4282,-2.4143,-2.4143,-2.4143,-2.4143,-2.4143,-2.4067,-2.398,-2.398,-2.3884,-2.3797,-2.3797,-2.3797,-2.3754,-2.3667,-2.3667,-2.3484,-2.2896,-2.2765,-2.2589,-2.1952,-2.1344,-2.0827,-2.0552,-1.8834,-1.7156,-1.6148,-1.5301,-1.4525,-1.3966,-1.3772,-1.355,-1.3185,-1.2806,-1.2452,-1.214,-1.1722,-1.1577,-1.1738,-1.2073,-1.2214,-1.2103,-1.2213,-1.2152,-1.183,-1.1794,-1.1676,-1.1391,-1.1391,-1.1391,-1.1391,-1.1391,-1.1099,0.0,0.0,0.0,0.0,0.0,0.0,0.0,0.0,-1.807,-1.9476,-2.1146,-2.3109,-2.5516,-2.7003,-2.8741,-3.128,-3.2422,-3.329,-3.3944,-3.4536,-3.4328,-3.2785,-3.2853,-3.3384,-3.4226,-3.4108,-3.4753,-3.6517,-3.5411,-3.5186,-3.653,-3.6483,-3.6672,-3.7341,-3.8288,-3.8742,-3.8644,-3.7924,-3.7481,-3.7258,-3.6525,-3.5885,-3.533,-3.533,-3.5078,-3.4594,-3.4294,-3.3732,-3.2883,-3.1807,-3.1204,-3.0861,-2.9902,-2.7779,-2.5264,-2.5062,-2.4988,-2.4988,-2.4828,-2.4743,-2.4743,-2.454,-2.4497,-2.4497,-2.4497,-2.4378,-2.4249,-2.4249,-2.411,-2.3927,-2.3927,-2.3927,-2.3927,-2.3884,-2.3884,-2.3841,-2.3797,-2.3797,-2.3754,-2.359,-2.2896,-2.2202,-2.1785,-2.056,-1.91,-1.7458,-1.6248,-1.5264,-1.4638,-1.4554,-1.426,-1.3411,-1.3144,-1.2733,-1.1984,-1.186,-1.1901,-1.219,-1.2501,-1.2678,-1.2643,-1.2839,-1.2936,-1.29,-1.29,-1.29,-1.29,-1.29,-1.29,-1.29,-1.29,-1.2405,-1.377,-1.4435,-1.5268,-1.6624,-1.7117,-1.8045,0.0,0.0,-2.1986,-2.3548,-2.5102,-2.6544,-2.7732,-2.925,-3.0824,-3.2448,-3.3186,-3.3989,-3.5377,-3.6034,-3.6386,-3.6481,-3.5911,-3.5852,-3.6819,-3.6871,-3.6958,-3.7207,-3.7058,-3.7033,-3.7183,-3.7549,-3.7843,-3.7894,-3.8484,-3.8558,-3.8079,-3.8667,-3.8513,-3.7587,-3.8093,-3.8065,-3.7551,-3.7551,-3.7366,-3.7057,-3.576,-3.5174,-3.4971,-3.383,-3.2619,-3.1522,-3.1357,-2.9996,-2.8015,-2.7136,-2.6823,-2.67,-2.5913,-2.5663,-2.5547,-2.4743,-2.4497,-2.4497,-2.4497,-2.4497,-2.4454,-2.4454,-2.4454,-2.4411,-2.4411,-2.4411,-2.4368,-2.4196,-2.4163,-2.411,-2.3841,-2.3797,-2.3797,-2.3754,-2.3657,-2.3604,-2.3511,-2.2418,-2.085,-1.8721,-1.7965,-1.7386,-1.6691,-1.659,-1.6005,-1.4589,-1.4128,-1.3557,-1.2497,-1.2662,-1.2844,-1.288,-1.3186,-1.3295,-1.3142,-1.3142,-1.3083,-1.29,-1.29,-1.29,-1.29,-1.29,-1.29,-1.29,-1.29,-1.2973,-1.6965,-1.7501,-1.8139,-1.9688,-2.0867,-2.2148,-2.4048,-2.4925,-2.5807,-2.7182,-2.8316,-2.9375,-3.0288,-3.1298,-3.2431,0.0,-3.477,-3.5761,-3.6876,-3.7227,-3.7484,-3.7752,-3.7489,-3.7588,-3.8417,-3.8015,-3.824,-3.9535,-3.8441,-3.8103,-3.9051,-3.8881,-3.8969,-3.9408,-3.9969,-4.0147,-3.9918,-3.9627,-3.9207,-3.8777,-3.8413,-3.8122,-3.79,-3.79,-3.7854,-3.7638,-3.6365,-3.5815,-3.5724,-3.4571,-3.3782,-3.3177,-3.2746,-3.1877,-3.0558,-2.8656,-2.779,-2.7452,-2.6964,-2.6442,-2.5957,-2.5744,-2.5124,-2.4549,-2.4817,-2.4714,-2.4497,-2.4497,-2.4497,-2.4497,-2.4497,-2.4497,-2.4497,-2.4368,-2.4368,-2.4325,-2.4239,-2.4196,-2.4196,-2.4067,-2.4024,-2.398,-2.3841,-2.316,-2.2233,-2.1066,-1.9552,-1.8172,-1.7042,-1.6922,-1.6473,-1.5361,-1.4797,-1.4293,-1.3774,-1.3673,-1.3525,-1.3315,-1.3418,-1.3455,-1.3382,-1.3382,-1.3346,-1.3236,-1.3236,-1.3359,-1.3546,-1.3546,-1.3546,-1.3546,-1.3546,-1.3719,-1.9183,-1.9992,-2.0898,-2.2564,-2.4262,-2.5813,-2.6853,-2.7846,-2.8788,-2.9711,-3.0436,-3.1083,-3.1722,-3.2515,-3.3497,-3.4921,-3.6021,-3.7151,-3.8311,-3.8364,-3.8403,-3.8847,-3.8577,-3.8677,-3.9314,-3.8931,-3.9335,-4.0937,-3.974,-3.9436,-4.0572,-4.0126,-4.0076,-4.0608,-4.1089,-4.1311,-4.1311,-4.0331,-3.9756,-3.9599,-3.8606,-3.8044,-3.79,-3.79,-3.7808,-3.7599,-3.6737,-3.6253,-3.6031,-3.5051,-3.4646,-3.4593,-3.3895,-3.324,-3.2508,-3.049,-2.9234,-2.8442,-2.8068,-2.7504,-2.6899,-2.6844,-2.6198,-2.5444,-2.5798,-2.5455,-2.4946,-2.4946,-2.4743,-2.4497,-2.4497,-2.4497,-2.4497,-2.4497,-2.4497,-2.4497,-2.4497,-2.4497,-2.4454,-2.4292,-2.4282,-2.4196,-2.4013,-2.375,-2.3355,-2.2695,-2.1154,-1.9518,-1.7909,-1.7328,-1.6782,-1.6149,-1.553,-1.5078,-1.4917,-1.4687,-1.4339,-1.3825,-1.3804,-1.3702,-1.3499,-1.3492,-1.3492,-1.3492,-1.3587,-1.3748,-1.3982,-1.407,-1.407,-1.3989,-1.4077,-1.4284,-1.9877,-2.1298,-2.3227,-2.5026,-2.6629,-2.8144,-2.958,-3.0263,-3.0615,-3.0657,-3.104,-3.1433,-3.1519,-3.252,-3.3863,-3.5617,-3.6478,-3.77,-3.9726,-3.9512,-3.9445,-4.0236,-3.9355,-3.8924,0.0,-4.006,-4.0373,-4.0435,-4.0921,-4.1235,-4.1285,-4.1235,-4.1235,-4.1285,-4.1311,-4.1311,-4.1311,-4.071,-4.0122,-3.9599,-3.8985,-3.841,-3.79,-3.79,-3.7586,-3.7037,-3.6998,-3.6645,-3.6057,-3.5495,-3.5273,-3.5208,-3.4607,-3.4045,-3.3483,-3.2802,-3.163,-3.0203,-2.9367,-2.9042,-2.8873,-2.8028,-2.7723,-2.7723,-2.7735,-2.6924,-2.6038,-2.6038,-2.5306,-2.4497,-2.4497,-2.4497,-2.4497,-2.4497,-2.4497,-2.4497,-2.4497,-2.4497,-2.4497,-2.4497,-2.4497,-2.4497,-2.4497,-2.4487,-2.4092,-2.3043,-2.2819,-2.2038,-2.0082,-1.8395,-1.7295,-1.7079,-1.641,-1.5878,-1.5666,-1.5658,-1.534,-1.4601,-1.4573,-1.4258,-1.3528,-1.3492,-1.3492,-1.3492,-1.3806,-1.3975,-1.3982,-1.4335,-1.4328,-1.4027,-1.4342,-1.4496,-2.2138,-2.3701,-2.532,-2.7146,-2.8681,-2.9953,-3.0739,-3.1257,-3.1467,-3.123,-3.1125,-3.1195,-3.1541,-3.2392,-3.3613,-3.5487,-3.6948,-3.8429,-4.0074,-4.0132,-3.9699,-3.8833,-3.8723,0.0,0.0,0.0,0.0,-4.0357,-4.0605,-4.0893,-4.1298,-4.1311,-4.1311,-4.1311,-4.1311,-4.1128,-4.0723,-4.0514,-3.9939,-3.9011,-3.8449,-3.8083,-3.79,-3.79,-3.7573,-3.6998,-3.6998,-3.6462,-3.5561,-3.5365,-3.5064,-3.4672,-3.4476,-3.4071,-3.3574,-3.3365,-3.271,-3.1772,-3.0586,-3.0006,-2.9757,-2.9225,-2.849,-2.7921,-2.8574,-2.8302,-2.7845,-2.8221,-2.7745,-2.7016,-2.6707,-2.6055,-2.5399,-2.5072,-2.4743,-2.4497,-2.4497,-2.4497,-2.4497,-2.4497,-2.4497,-2.4497,-2.4497,-2.4497,-2.4187,-2.3247,-2.2104,-2.1017,-2.0044,-1.9143,-1.8449,-1.8086,-1.7808,-1.7413,-1.6888,-1.6819,-1.6498,-1.5772,-1.5587,-1.5411,-1.5171,-1.5037,-1.5124,-1.5434,-1.552,-1.5822,-1.6335,-1.6458,-1.6139,-1.5444,-1.5568,-1.5622,-2.4546,-2.6392,-2.8168,-3.016,-3.157,-3.253,-3.2965,-3.2857,-3.2478,-3.2009,-3.1313,-3.0937,-3.1474,-3.1863,-3.2852,-3.5096,-3.6602,-3.8122,-3.9855,-4.0122,-3.9795,-3.8906,-3.8749,-3.8344,0.0,0.0,0.0,-4.0056,-4.0501,-4.0906,-4.1298,-4.1311,-4.1311,-4.1311,-4.1311,-4.1128,-4.0736,-4.0527,-3.9847,-3.8697,-3.8161,-3.79,-3.79,-3.7678,-3.726,-3.6684,-3.6684,-3.6162,-3.5299,-3.5299,-3.5064,-3.4698,-3.4476,-3.4188,-3.3862,-3.3666,-3.36,-3.343,-3.1915,-3.1267,-3.1061,-3.0849,-3.0238,-2.9665,-3.0323,-3.0039,-2.9574,-2.9952,-2.9461,-2.8722,-2.8411,-2.7588,-2.6725,-2.6234,-2.5658,-2.5199,-2.5041,-2.5009,-2.4967,-2.4786,-2.4743,-2.4711,-2.454,-2.4363,-2.4105,-2.3525,-2.2355,-2.126,-2.0429,-1.9905,-1.9413,-1.8899,-1.8849,-1.8574,-1.7842,-1.7799,-1.7482,-1.6749,-1.6737,-1.6643,-1.636,-1.6385,-1.6504,-1.672,-1.6859,-1.7095,-1.751,-1.7608,-1.7324,-1.6679,-1.6771,-1.6697,-2.7101,-2.9392,-3.1628,-3.3857,-3.497,-3.5552,-3.5922,-3.4742,-3.3443,-3.2883,-3.1541,-3.0578,0.0,0.0,-3.1655,-3.4477,-3.5626,-3.6998,-3.9324,-3.9677,-3.986,0.0,0.0,0.0,0.0,0.0,0.0,-3.9708,0.0,-4.1285,-4.1361,-4.1361,-4.1361,-4.1361,-4.1361,-4.1348,-4.1322,-4.0694,-3.9856,-3.8796,-3.8221,-3.7992,-3.7965,-3.7408,-3.6804,-3.6184,-3.6153,-3.5826,-3.526,-3.5286,-3.5273,-3.5195,-3.4659,-3.445,-3.4384,-3.3862,-3.4358,-3.5051,-3.3365,-3.2777,-3.2777,-3.2712,-3.2685,-3.2698,-3.2725,-3.2047,-3.1251,-3.1276,-3.0521,-2.9701,-2.9677,-2.9083,-2.8379,-2.792,-2.7214,-2.6581,-2.612,-2.5979,-2.5801,-2.5369,-2.5242,-2.5073,-2.4625,-2.4209,-2.3919,-2.3919,-2.3484,-2.2687,-2.1331,-2.0736,-2.0246,-1.9608,-1.9557,-1.928,-1.865,-1.862,-1.8295,-1.7608,-1.7954,-1.7889,-1.7171,-1.7541,-1.7628,-1.7468,-1.7764,-1.7851,-1.7692,-1.8025,-1.7968,-1.7622,-1.7945,-1.7721,-3.0293,-3.2252,-3.3939,-3.4443,-3.4937,-3.5156,-3.4462,-3.3361,-3.216,-3.1305,-3.0187,-2.929,-2.9056,-3.0366,-3.2027,-3.3703,-3.5913,0.0,-3.9952,-4.0592,0.0,-3.9899,0.0,-3.9847,-3.9528,-4.0158,0.0,0.0,-4.1314,-4.1431,-4.1868,-4.2289,-4.2498,-4.2498,-4.2498,-4.2269,-4.1812,-4.0414,-3.9787,-3.9953,-3.9211,-3.8881,-3.8854,-3.8904,-3.8302,-3.7149,-3.7091,-3.6133,-3.4659,-3.5103,-3.5038,-3.4659,-3.4959,-3.5064,-3.5051,-3.492,-3.5051,-3.5168,-3.428,-3.3966,-3.3822,-3.2973,-3.2685,-3.2777,-3.3221,-3.319,-3.3051,-3.3452,-3.3013,-3.2322,-3.1926,-3.1046,-3.0041,-2.9094,-2.8468,-2.7944,-2.7447,-2.6935,-2.6547,-2.6412,-2.603,-2.5549,-2.5115,-2.465,-2.4261,-2.3961,-2.3484,-2.2811,-2.1766,-2.1528,-2.1108,-2.0267,-2.0184,-2.0108,-1.9914,-1.9903,-1.9833,-1.9636,-1.9661,-1.9589,-1.9399,-1.9334,-1.9441,-1.9746,-1.9835,-2.0002,-2.0275,-2.0353,-2.0022,-1.9305,-1.9376,-1.9106,-3.3065,-3.4933,-3.6429,-3.6598,-3.6516,-3.6075,-3.4701,-3.3318,-3.1773,-2.997,-2.8737,-2.791,-2.7582,-2.865,-3.0281,-3.2463,0.0,0.0,-3.9351,-4.0396,-4.0824,0.0,-4.0948,0.0,-4.1394,-4.2018,-4.2637,0.0,-4.2474,-4.2086,-4.2409,-4.2741,-4.3018,-4.3314,-4.3314,-4.3326,-4.3315,-4.1832,-4.1269,-4.1585,-4.0247,-3.9614,-3.9486,-3.9103,-3.8433,-3.7607,0.0,-3.6552,-3.5507,-3.5859,-3.5805,-3.5521,-3.5872,-3.6169,-3.6371,-3.5967,-3.6013,-3.6104,-3.5155,-3.4789,-3.4646,-3.3731,-3.3443,-3.3496,-3.3849,-3.394,-3.4005,-3.4306,-3.4147,-3.3775,-3.3482,-3.271,-3.1746,-3.0659,-2.9939,-2.9299,-2.8543,-2.8056,-2.7747,-2.7533,-2.711,-2.6547,-2.6008,-2.5694,-2.5283,-2.4577,-2.4053,-2.3458,-2.254,-2.2232,-2.1756,-2.0824,-2.0731,-2.0602,-2.0405,-2.0385,-2.0385,-2.0385,-2.0519,-2.0596,-2.0596,-2.0671,-2.0822,-2.0994,-2.0994,-2.1078,-2.1205,-2.1205,-2.0964,-2.0469,-2.0275,-2.0022,-3.5527,-3.7343,-3.8758,-3.9052,-3.8437,-3.7312,-3.5482,-3.36,-3.1457,-2.876,-2.7216,-2.6366,-2.6366,-2.6614,-2.7876,-3.1145,0.0,-3.5404,-3.8305,-3.9673,-4.0807,-4.1977,-4.2257,-4.2819,-4.4017,-4.4158,-4.4424,-4.5164,-4.4078,-4.3341,-4.3293,-4.3341,-4.3648,-4.4252,-4.4252,-4.4549,-4.5209,-4.3857,-4.3197,-4.3169,-4.1294,-4.0296,-4.0089,-3.8999,-3.8325,-3.8006,-3.7395,-3.7035,-3.6919,-3.6919,-3.6919,-3.6894,-3.7017,-3.7397,-3.781,-3.6962,-3.7043,-3.7327,-3.5849,-3.5339,-3.526,-3.4609,-3.4397,-3.4397,-3.4397,-3.4397,-3.4397,-3.4397,-3.4397,-3.4397,-3.4397,-3.3979,-3.3275,-3.2166,-3.1414,-3.0682,-2.9603,-2.9277,-2.9081,-2.8597,-2.8215,-2.7763,-2.7128,-2.7017,-2.6689,-2.5673,-2.5202,-2.4648,-2.3835,-2.301,-2.2159,-2.13,-2.1207,-2.1041,-2.0602,-2.0607,-2.0607,-2.0607,-2.0979,-2.1207,-2.1207,-2.159,-2.1731,-2.154,-2.154,-2.1464,-2.1282,-2.1282,-2.1282,-2.1272,-2.078,-2.0616,-3.7744,-3.9119,-3.9862,-3.9016,-3.7977,-3.658,-3.4384,-3.181,0.0,-2.7413,-2.568,-2.4557,-2.4557,-2.608,-2.8203,-3.0725,-3.2973,-3.5404,-3.8305,-3.9678,-4.087,0.0,-4.3066,-4.4064,-4.5372,-4.5463,0.0,0.0,-4.6033,-4.5734,-4.5326,-4.5674,-4.5944,-4.6033,-4.6033,-4.6122,-4.6255,-4.4603,-4.3748,-4.3762,-4.2135,-4.1335,-4.1291,-4.0747,-4.0077,-3.9311,-3.8504,0.0,-3.7165,-3.7165,-3.7035,-3.6975,-3.7628,-3.787,-3.781,-3.765,-3.7625,-3.7558,-3.6103,-3.5629,-3.5493,-3.4673,-3.4397,-3.4397,-3.4397,-3.4397,-3.4397,-3.4397,-3.4397,-3.4397,-3.4397,-3.4314,-3.3944,-3.28,-3.2447,-3.2044,-3.0905,-3.0241,-2.9678,-2.9081,-2.8912,-2.8703,-2.8227,-2.8108,-2.7936,-2.7441,-2.7279,-2.7035,-2.6487,-2.4146,-2.2294,-2.1745,-2.1683,-2.1652,-2.1569,-2.1569,-2.1569,-2.1569,-2.1642,-2.1683,-2.1683,-2.1766,-2.1769,-2.1769,-2.1769,-2.1731,-2.1693,-2.1693,-2.1693,-2.1683,-2.1219,-2.1003,-3.8713,-3.9586,-3.986,-3.9311,-3.7848,-3.5783,-3.2894,0.0,0.0,-2.5001,-2.355,-2.2858,-2.3145,-2.4844,-2.6948,-2.9261,-3.1313,-3.3935,-3.7546,-3.8939,-4.0535,-4.3083,-4.4287,-4.5358,-4.6638,-4.6726,-4.7137,-4.8076,-4.7802,-4.7146,-4.6226,-4.6755,-4.7075,-4.7075,-4.742,-4.7591,-4.7591,-4.6055,-4.5297,-4.5282,-4.35,-4.2409,-4.1949,-4.1422,-4.0661,-3.9813,-3.9427,-3.9009,-3.8679,-3.8679,-3.8605,-3.8546,-3.8958,-3.9243,-3.9422,-3.8934,-3.8765,-3.8605,-3.7456,-3.6793,-3.6399,-3.5736,-3.5032,-3.4397,-3.4397,-3.4397,-3.4397,-3.4397,-3.4397,-3.4397,-3.4397,-3.4397,-3.411,-3.296,-3.2241,-3.1653,-3.1104,-3.0748,-3.0432,-3.0152,-3.0075,-2.9909,-2.9316,-2.9238,-2.8991,-2.8215,-2.7897,-2.7584,-2.7167,-2.56,-2.4414,-2.4066,-2.3634,-2.324,-2.2879,-2.2419,-2.2066,-2.1818,-2.1807,-2.1807,-2.1807,-2.1807,-2.1807,-2.1807,-2.1807,-2.1807,-2.1807,-2.1807,-2.1807,-2.1797,-2.1331,-2.1248,-3.8899,-3.9599,-3.973,-3.9481,-3.7652,-3.5038,-3.1588,-2.8817,0.0,-2.3041,-2.1838,-2.1538,-2.2257,-2.3719,-2.5594,-2.8033,-2.9927,-3.253,-3.662,-3.838,-4.0534,0.0,-4.539,0.0,-4.7706,-4.7986,0.0,-4.9608,-4.9158,-4.8282,-4.7031,-4.7478,-4.7792,-4.7792,-4.8313,-4.862,-4.862,-4.7281,-4.6603,-4.6573,-4.4579,-4.3181,-4.2337,-4.1663,-4.0919,-4.0101,-4.0081,-4.0066,-4.0066,-4.0066,-4.0046,-3.9996,-4.0046,-4.0365,-4.0713,-3.998,-3.9728,-3.9639,-3.8726,-3.8011,-3.7434,-3.6947,-3.5896,-3.4758,-3.4605,-3.4605,-3.4647,-3.4564,-3.4605,-3.4688,-3.4688,-3.4688,-3.4383,-3.3277,-3.2083,-3.1169,-3.1169,-3.1065,-3.0986,-3.0986,-3.0986,-3.0823,-3.0317,-3.019,-2.9909,-2.9069,-2.8662,-2.829,-2.797,-2.7619,-2.7289,-2.71,-2.5812,-2.4774,-2.4379,-2.3503,-2.2898,-2.2804,-2.2563,-2.2461,-2.2568,-2.2434,-2.2354,-2.2279,-2.2279,-2.2279,-2.2279,-2.2279,-2.2279,-2.2268,-2.1829,-2.1861,-3.8288,-3.9547,-4.0095,-3.905,-3.7063,-3.4463,-3.0962,0.0,-2.4704,-2.2792,-2.1538,-2.1118,-2.2192,-2.3378,-2.5123,-2.8025,-3.0176,-3.2575,-3.5784,-3.8893,-4.1564,-4.3708,0.0,0.0,-4.8438,-4.912,-4.9578,-4.9682,-4.962,-4.9255,-4.8427,-4.848,-4.8537,-4.8537,-4.8578,-4.862,-4.862,-4.7281,-4.6603,-4.6573,-4.4579,-4.3233,-4.255,-4.1873,-4.1166,-4.0455,-4.0347,-4.0277,0.0,-4.0277,-4.0172,-4.0011,-4.0207,-4.0217,-4.0087,-4.0016,-3.998,-3.9858,-3.8973,-3.862,-3.8428,-3.7663,-3.683,-3.599,-3.5263,-3.5277,-3.5507,-3.5154,-3.5318,-3.5588,-3.5588,-3.5588,-3.5305,-3.4313,-3.2883,-3.1732,-3.1732,-3.1352,-3.0986,-3.0986,-3.0986,-3.0986,-3.0911,-3.0911,-3.0861,-3.0785,-3.0733,-3.0657,-3.067,-3.0618,-3.0517,-3.0303,-2.7358,-2.5608,-2.613,-2.5137,-2.49,-2.5922,-2.5018,-2.4594,-2.496,-2.4434,-2.4084,-2.3891,-2.3902,-2.3902,-2.3902,-2.3902,-2.3902,-2.3891,-2.3473,-2.3507,-3.7332,-3.8919,-3.9779,-3.9581,-3.7477,-3.47,-3.175,0.0,-2.476,-2.2794,-2.1731,-2.1479,-2.2656,-2.3875,-2.5424,-2.7656,-2.8769,-3.0569,-3.4157,-3.6295,-3.9023,-4.3074,-4.5221,0.0,0.0,0.0,-4.9682,-4.9682,-5.0066,-4.9805,-4.8681,-4.862,-4.862,-4.862,-4.862,-4.862,-4.862,-4.7281,-4.6603,-4.6573,-4.4957,-4.3633,-4.2602,-4.2325,-4.1586,-4.0489,-4.042,-4.0436,0.0,-4.0436,-4.0366,-4.0296,-4.0401,-4.0366,-4.0296,-4.0296,-4.0296,-4.0261,-3.99,-3.9722,-3.958,-3.9023,-3.8531,-3.7904,-3.6452,-3.6123,-3.6123,-3.5588,-3.5602,-3.571,-3.571,-3.5452,-3.5126,-3.4738,-3.3404,-3.2283,-3.2524,-3.1997,-3.1534,-3.1787,-3.1924,-3.2006,-3.2006,-3.2006,-3.2006,-3.2006,-3.1718,-3.1496,-3.1496,-3.1196,-3.0986,-3.0874,-2.9063,-2.7771,-2.7636,-2.6723,-2.6219,-2.6387,-2.596,-2.5781,-2.5955,-2.5376,-2.4996,-2.4825,-2.4451,-2.4228,-2.4108,-2.4108,-2.4108,-2.4108,-2.3949,-2.3961,-3.5673,-3.7628,-3.8841,-3.9009,-3.6888,-3.4101,0.0,0.0,-2.4727,-2.2884,-2.2104,-2.2035,-2.3041,-2.4103,-2.5409,-2.7213,-2.8123,-2.9813,-3.3337,-3.519,-3.7718,-4.1964,0.0,-4.5495,0.0,-4.9097,-4.9897,-4.9697,-5.0313,-5.0082,-4.8696,-4.862,-4.862,-4.862,-4.862,-4.8512,-4.8312,-4.7173,-4.6496,-4.628,-4.5126,-4.3879,-4.2602,-4.2602,-4.1848,-4.0489,-4.0489,-4.0489,0.0,-4.0489,-4.0489,-4.0489,-4.0489,-4.0489,-4.0489,-4.0489,-4.0489,-4.0489,-4.0489,-4.0436,-4.0296,-4.0051,-3.9844,-3.9436,-3.7956,-3.7386,-3.7116,-3.6584,-3.6401,-3.6336,-3.6336,-3.5835,-3.5336,-3.5336,-3.4235,-3.33,-3.358,-3.3026,-3.2509,-3.2802,-3.2996,-3.304,-3.2922,-3.2883,-3.2843,-3.2725,-3.2346,-3.2058,-3.2058,-3.1744,-3.1483,-3.1483,-3.0689,-2.9832,-2.9214,-2.831,-2.7736,-2.7775,-2.7432,-2.7297,-2.7406,-2.6663,-2.6227,-2.6057,-2.5481,-2.5099,-2.4945,-2.4945,-2.4945,-2.4945,-2.4945,-2.4909,-3.303,-3.5548,-3.7292,-3.6712,-3.471,-3.2154,-2.9199,-2.6489,-2.4274,-2.305,-2.2635,-2.2637,-2.3188,-2.3804,-2.4852,-2.6802,-2.8824,-3.1136,-3.3826,-3.6643,-3.8967,0.0,0.0,-4.3417,-4.5434,-4.8696,-5.0405,-4.9743,-5.0313,0.0,-4.8696,-4.862,-4.862,-4.862,-4.862,-4.8296,-4.7619,-4.6942,-4.6265,-4.5588,-4.491,-4.3879,-4.2602,-4.2602,-4.1848,-4.0489,-4.0489,-4.0489,0.0,-4.0489,-4.0489,-4.0489,-4.0489,-4.0489,-4.0489,-4.0489,-4.0489,-4.0489,-4.0489,-4.0489,-4.0489,-4.0489,-4.0489,-4.0385,-3.9824,-3.9235,-3.8657,-3.8227,-3.7994,-3.7886,-3.7886,-3.7134,-3.6391,-3.6391,-3.5632,-3.4893,-3.4893,-3.4392,-3.3971,-3.3971,-3.3984,-3.3817,-3.3378,-3.3301,-3.3144,-3.2765,-3.2685,-3.2685,-3.2685,-3.2672,-3.2672,-3.2672,-3.2124,-3.1562,-3.1026,-2.9941,-2.9771,-3.0895,-2.9902,-2.9415,-2.9742,-2.8682,-2.8018,-2.7892,-2.7272,-2.6977,-2.6977,-2.6977,-2.6977,-2.6977,-2.6977,-2.6863,-2.9751,-3.1635,-3.2882,-3.303,-3.1712,-2.9961,-2.8379,-2.6285,-2.4391,-2.3352,-2.3051,-2.3293,-2.4382,-2.4752,-2.5961,-2.9241,-3.0019,-3.1136,-3.3826,0.0,0.0,-4.0951,-4.4495,-4.7157,0.0,0.0,-4.9912,-4.9697,-4.9882,-4.9605,-4.8666,-4.862,-4.862,-4.862,-4.862,-4.8296,-4.7619,-4.6942,-4.6249,-4.5572,-4.491,-4.3879,-4.2602,-4.2602,-4.1848,-4.0489,-4.0489,-4.0489,-4.0489,-4.0489,-4.0489,-4.0489,-4.0489,-4.0489,-4.0489,-4.0489,-4.0489,-4.0489,-4.0489,-4.0489,-4.0489,-4.0489,-4.0489,-4.0455,-4.0281,-3.9859,-3.9307,-3.873,-3.8546,-3.8523,-3.8523,-3.8263,-3.8037,-3.8037,-3.6983,-3.5999,-3.6264,-3.544,-3.466,-3.4892,-3.5079,-3.5114,-3.4994,-3.4941,-3.4901,-3.4794,-3.418,-3.3728,-3.3728,-3.3133,-3.2685,-3.2685,-3.2529,-3.2189,-3.1588,-3.0882,-3.0607,-3.096,-3.0647,-3.0516,-3.0624,-2.9884,-2.9395,-2.9202,-2.8237,-2.7726,-2.7622,-2.7203,-2.699,-2.699,-2.699,-2.6977,-2.6628,-2.8788,-3.0229,-3.0545,-2.9654,0.0,-2.7366,-2.5857,-2.4476,-2.3664,-2.3563,-2.3878,-2.4702,-2.4863,-2.5831,-2.8778,-2.9419,-3.0451,-3.3133,0.0,0.0,-4.1247,0.0,0.0,0.0,-4.9081,-4.9574,-4.9297,-4.9528,-4.9374,-4.865,-4.862,-4.862,-4.862,-4.862,-4.8296,-4.7619,-4.6942,-4.6249,-4.5572,-4.4671,-4.3633,-4.2602,-4.234,-4.1601,-4.0505,-4.0782,-4.094,0.0,-4.094,-4.094,-4.0909,-4.0597,-4.0489,-4.0489,-4.0489,-4.0489,-4.0489,-4.0489,-4.0489,-4.0489,-4.0489,-4.0489,-4.0489,-4.0489,-4.0281,-3.993,-3.9559,-3.9307,-3.9126,-3.9126,-3.8965,-3.8782,-3.8782,-3.8017,-3.7356,-3.7629,-3.6793,-3.6158,-3.6618,-3.644,-3.6299,-3.66,-3.6262,-3.5966,-3.6008,-3.5305,-3.4781,-3.4781,-3.4206,-3.3807,-3.3807,-3.3503,-3.3028,-3.2435,-3.1703,-3.1222,-3.0999,-3.0986,-3.0986,-3.0986,-3.0438,-2.996,-2.9616,-2.8694,-2.8179,-2.8088,-2.7692,-2.7524,-2.7524,-2.7249,-2.7113,0.0,-2.6646,-2.8669,-2.8741,-2.8175,-2.729,-2.6123,-2.5227,0.0,-2.396,-2.4094,-2.4348,-2.4502,-2.4441,-2.4918,-2.6549,-2.7827,-2.955,0.0,-3.5106,0.0,0.0,-4.4202,0.0,-4.5741,-4.8081,-4.9343,-4.8666,-4.9235,-4.9297,-4.8573,-4.8589,-4.8589,-4.8543,-4.8543,-4.8219,-4.7542,-4.6911,-4.6234,-4.5495,-4.4225,-4.327,-4.2586,-4.1909,-4.1232,0.0,-4.1309,-4.1601,-4.1601,-4.1601,-4.1571,-4.1447,-4.0751,-4.0489,-4.0489,-4.0489,-4.0489,-4.0489,-4.0489,-4.0489,-4.0489,-4.0489,-4.0489,-4.0489,-4.0489,-4.0489,-4.0489,-4.0489,-4.0141,-3.9753,-3.9753,-3.9343,-3.8929,-3.8929,-3.8892,-3.8855,-3.8855,-3.8375,-3.815,-3.8671,-3.7886,-3.7356,-3.809,-3.7361,-3.6666,-3.6743,-3.6293,-3.5912,-3.5871,-3.5871,-3.5831,-3.5831,-3.4941,-3.4112,-3.3496,-3.2461,-3.1602,-3.1026,-3.1026,-3.1026,-3.0986,-3.0438,-2.9889,-2.9388,-2.8786,-2.8459,-2.842,-2.8459,-2.8472,-2.8472,-2.7767,-2.7406,-2.1614,0.0,-2.3635,-2.41,-2.4499,-2.4687,0.0,-2.4358,-2.434,-2.4208,-2.4255,-2.4795,-2.638,-2.5795,-2.638,-3.0335,-3.0812,-3.1643,-3.4383,0.0,0.0,-4.4372,-4.6573,-4.7696,-4.7173,-4.8189,-4.8804,-4.862,-4.8773,-4.8558,-4.7881,-4.8327,-4.8373,-4.785,-4.785,-4.7511,-4.6834,-4.668,-4.6003,-4.4841,-4.4009,-4.327,-4.2586,-4.1909,-4.1509,-4.1355,-4.1524,-4.1601,-4.1601,-4.1601,-4.1278,-4.0735,-4.0566,-4.0489,-4.0489,-4.0489,-4.0489,-4.0489,-4.0489,-4.0489,-4.0489,-4.0489,-4.0489,-4.0489,-4.0489,-4.0489,-4.0489,-4.0489,-4.042,-4.0316,-4.0316,-4.0211,-4.0091,-4.0091,-3.9773,-3.9502,-3.9502,-3.9002,-3.8634,-3.8782,-3.856,-3.8418,-3.8639,-3.8833,-3.8835,-3.8373,-3.8294,-3.813,-3.7606,-3.7295,-3.7063,-3.7063,-3.6399,-3.5667,-3.4962,-3.3411,-3.2058,-3.1052,-3.1405,-3.1444,-3.0999,-3.0438,-3.0035,-2.9905,-2.9366,-2.8878,-2.842,-2.8878,-2.91,-2.91,-2.89,-2.8586,-2.0833,-2.1797,-2.2803,-2.3113,-2.3616,-2.403,-2.403,-2.4177,-2.4302,-2.4302,-2.4302,-2.4748,-2.618,-2.6087,-2.6857,-3.0043,-3.1028,0.0,0.0,0.0,-4.3002,-4.5311,-4.7096,-4.8127,0.0,-4.8404,-4.862,-4.862,-4.8327,-4.7989,-4.7635,-4.7957,-4.7858,-4.7157,-4.7486,-4.7455,-4.705,-4.6449,-4.5772,-4.5033,-4.4071,-4.3401,-4.3058,-4.2704,-4.2554,-4.2579,-4.2895,-4.3036,-4.2985,-4.2314,-4.1832,-4.1381,-4.0735,-4.0489,-4.0489,-4.0489,-4.0489,-4.0489,-4.0489,-4.0489,-4.0489,-4.0489,-4.0489,-4.0489,-4.0489,-4.0489,-4.0489,-4.0489,-4.0489,-4.0489,-4.0489,-4.0735,-4.0905,-4.0566,-4.0541,-4.0558,-4.0558,-4.0097,-3.9755,-4.0025,-3.9645,-3.935,-3.9572,-3.9706,-3.9674,-3.9283,-3.9339,-3.9159,-3.8516,-3.8219,-3.8107,-3.8107,-3.729,-3.6509,-3.5856,-3.4696,-3.34,-3.2109,-3.1662,-3.1589,-3.1982,-3.1382,-3.1051,-3.1162,-3.0566,-3.0069,-2.9704,-3.0373,-3.0535,-3.0162,-2.9917,-2.9624,-2.0945,-2.2563,-2.4046,-2.3855,-2.4128,-2.4425,-2.4354,-2.4323,-2.4302,-2.4343,0.0,-2.4702,-2.5465,-2.6303,0.0,0.0,0.0,0.0,-3.8631,-4.0948,-4.3044,-4.5488,-4.6942,0.0,-4.8553,-4.8625,-4.8687,-4.8893,-4.8326,-4.7954,-4.7886,-4.8097,-4.7835,-4.6967,-4.7538,-4.7813,-4.7625,-4.6377,-4.5657,-4.5457,-4.4431,-4.3814,-4.3604,-4.3786,-4.3871,-4.388,0.0,0.0,-4.4605,-4.3434,-4.2771,-4.2461,-4.1144,-4.0646,-4.0646,-4.0524,-4.0489,-4.0489,-4.0558,-4.0593,-4.0593,-4.0593,-4.0558,-4.0489,-4.0489,-4.0489,-4.0524,-4.0558,-4.0558,-4.0489,-4.0489,-4.0951,-4.1278,-4.0643,-4.1001,-4.1432,-4.1432,-4.101,-4.0815,-4.1326,-4.0598,-4.0055,-4.051,-4.0292,-4.0025,-3.9832,-3.9958,-3.9817,-3.9164,-3.9075,-3.9075,-3.9075,-3.8112,-3.7235,-3.667,-3.5963,-3.5032,-3.3701,-3.2291,-3.1986,-3.3017,-3.2475,-3.2185,-3.2241,-3.1785,-3.1511,-3.1367,-3.2158,-3.2166,-3.149,-3.1055,-3.0767,-2.1933,-2.3666,-2.5153,-2.4061,-2.4478,-2.5031,-2.4632,-2.4426,-2.4343,-2.4508,0.0,0.0,0.0,-2.8104,-2.9566,0.0,0.0,-3.8433,0.0,0.0,-4.5095,-4.6289,0.0,-4.8537,-4.8765,-4.8683,-4.9056,-5.012,-4.9813,-4.9473,-4.9235,-5.0075,-4.9957,-4.8586,-4.8663,-4.8421,-4.7774,-4.6945,-4.5934,-4.4766,-4.5256,-4.4812,-4.3638,-4.4333,-4.4593,-4.4593,0.0,-4.5269,-4.467,-4.4458,-4.3635,-4.2446,-4.1637,-4.1343,-4.1276,-4.0715,-4.0489,-4.0558,-4.0901,-4.1003,-4.1003,-4.1003,-4.0765,-4.0489,-4.0489,-4.0489,-4.0558,-4.0901,-4.0765,-4.0489,-4.0489,-4.0566,-4.0628,-4.052,-4.0582,-4.0659,-4.0659,-4.0589,-4.0554,-4.0659,-4.0504,-4.0434,-4.0504,-4.0959,-4.1122,-4.0475,-4.0903,-4.1077,-4.0323,-4.0246,-4.0246,-4.0246,-3.9585,-3.8811,-3.8071,-3.6783,-3.5893,-3.5604,-3.4448,-3.3402,-3.2551,-3.2406,-3.2126,-3.1641,-3.205,-3.225,-3.2212,-3.2799,-3.3003,-3.2898,-3.2814,-3.2513,-2.2278,-2.4048,-2.5723,-2.5144,-2.5642,-2.6228,-2.5984,-2.6198,-2.651,-2.6804,0.0,0.0,0.0,0.0,-3.2699,-3.6144,0.0,-4.0494,-4.3361,-4.4646,-4.5823,0.0,0.0,-4.9716,-5.0242,-4.9853,-4.9837,-5.0417,-4.9501,-4.8863,-4.874,-4.9159,-4.8887,-4.7799,-4.815,-4.8003,-4.7262,-4.7316,-4.6818,-4.5789,-4.6154,-4.5992,-4.5373,-4.6191,-4.6563,-4.6548,0.0,-4.7028,-4.6616,-4.5326,-4.4415,-4.3685,-4.2606,-4.2221,-4.2173,-4.1949,-4.1673,-4.1491,-4.1688,-4.1573,-4.1357,-4.1357,-4.1122,-4.0867,-4.1021,-4.1218,-4.1383,-4.1366,-4.1104,-4.0867,-4.107,-4.1233,-4.1283,-4.0926,-4.1112,-4.1376,-4.1376,-4.1376,-4.1376,-4.1376,-4.1233,-4.0986,-4.0566,-4.1124,-4.1355,-4.0597,-4.114,-4.134,-4.0582,-4.0489,-4.0489,-4.0489,-3.989,-3.9213,-3.8486,-3.7471,-3.6267,-3.4857,-3.506,-3.4723,-3.3638,-3.3722,-3.3789,-3.3783,-3.3706,-3.3609,-3.3576,-3.4177,-3.4206,-3.3788,-3.3788,-3.3645,-2.2579,-2.4288,-2.6043,-2.5925,-2.6376,-2.6983,-2.7539,-2.815,-2.8841,-2.9697,0.0,0.0,0.0,-3.3265,0.0,-4.0181,-4.1448,-4.2623,-4.4643,-4.583,-4.6945,-4.8251,-4.937,-5.0393,-5.1257,-5.0602,-5.0274,-5.0521,-4.9395,-4.8718,-4.8787,-4.8779,-4.8447,-4.7651,-4.8183,-4.81,-4.7322,-4.7917,-4.7654,-4.6597,-4.7125,-4.7094,-4.6689,-4.7883,-4.8326,-4.8171,-4.852,-4.8435,-4.797,-4.6192,-4.5248,-4.4789,-4.3563,-4.3,-4.2862,-4.2968,-4.2831,-4.2584,-4.2584,-4.2349,-4.2045,-4.2045,-4.1754,-4.144,-4.1671,-4.1852,-4.1946,-4.1764,-4.1522,-4.139,-4.1555,-4.1783,-4.1847,-4.1348,-4.1596,-4.1987,-4.1987,-4.1987,-4.1987,-4.1987,-4.1778,-4.1415,-4.0754,-4.1125,-4.126,-4.0616,-4.1001,-4.1155,-4.0566,-4.0489,-4.0489,-4.0489,-4.0028,-3.9382,-3.8585,-3.7738,-3.6442,-3.4495,-3.5367,-3.5671,-3.4975,-3.5142,-3.5411,-3.5752,-3.5269,-3.4985,-3.4942,-3.5394,-3.5297,-3.4695,-3.4695,-3.4695,-2.3096,-2.4684,-2.6162,-2.5728,-2.5863,-2.6656,-2.8834,-2.9565,-3.039,-3.2602,0.0,0.0,0.0,-3.6148,-3.8537,-4.1748,-4.403,-4.6021,-4.7728,0.0,-4.9566,-4.9243,-4.9309,-4.9674,-5.051,-4.9864,-4.9831,-5.0973,-5.0592,-5.0492,-5.0854,-5.124,-5.1012,-5.0161,-5.0207,-4.9774,-4.8846,-4.9015,-4.8043,-4.5991,-4.8046,-4.8031,-4.6209,-4.8392,-4.9018,-4.8429,-4.9133,-4.8609,-4.7266,-4.7106,-4.6238,-4.4905,-4.4191,-4.3525,-4.2998,-4.2998,-4.3196,-4.3423,-4.3423,-4.3393,-4.3363,-4.3363,-4.2847,-4.2221,-4.2253,-4.1948,-4.1685,-4.1996,-4.2045,-4.1948,-4.1687,-4.162,-4.1619,-4.1571,-4.1587,-4.1634,-4.1634,-4.1634,-4.1634,-4.1634,-4.1634,-4.1486,-4.1104,-4.1102,-4.0997,-4.0558,-4.0536,-4.0551,-4.0505,-4.0489,-4.0489,-4.0489,-4.0459,-3.989,-3.8616,-3.7323,-3.6507,-3.632,-3.61,-3.5973,-3.5894,-3.5928,-3.5959,-3.5973,-3.5928,-3.5881,-3.591,-3.5941,-3.5941,-3.5863,-3.5863,-3.5863,-2.3374,-2.4941,-2.6564,-2.654,-2.7303,-2.8514,-3.0332,-3.1927,-3.3512,-3.5316,-3.7468,0.0,0.0,0.0,-4.1755,-4.4186,-4.5771,-4.7291,-4.8877,-4.9657,-5.0091,-5.0226,-5.0659,-5.1133,-5.1532,-5.0869,-5.0597,-5.107,-5.0424,-5.009,-5.023,-5.0277,-5.0175,-4.9841,-4.9824,-4.9657,-4.9307,-4.935,-4.8762,-4.7577,-4.8796,-4.8967,-4.8253,-4.9196,-4.9465,-4.9191,-4.9107,-4.8724,-4.8106,-4.706,-4.6295,-4.5747,-4.5032,-4.4635,-4.4479,-4.4479,-4.4395,-4.4254,-4.4254,-4.4071,-4.3877,-4.439,-4.388,-4.3174,-4.388,-4.3781,-4.3372,-4.2979,-4.3191,-4.3342,-4.2446,-4.2077,-4.1916,-4.1916,-4.1916,-4.1916,-4.1916,-4.1916,-4.1916,-4.1916,-4.1753,-4.1555,-4.1423,-4.1423,-4.129,-4.0935,-4.0867,-4.0799,-4.0524,-4.0489,-4.0489,-4.0489,-3.9736,-3.9062,-3.8554,-3.7277,-3.6492,-3.6492,-3.6398,-3.6258,-3.6116,-3.6258,-3.6258,-3.6116,-3.6116,-3.6116,-3.6116,-3.6037,-3.6005,-3.6005,-3.6005,-3.6005,-2.3431,-2.48,-2.6276,-2.6925,-2.8285,-3.0068,-3.236,-3.4471,-3.6571,-3.8748,-4.1083,-4.2634,-4.2309,0.0,0.0,0.0,-4.7162,-4.8528,-4.9571,-5.0116,-5.0467,-5.0532,-5.1022,-5.1408,-5.1498,-5.1063,-5.0752,-5.0752,-5.0152,-4.9784,-4.9784,-4.9713,-4.9637,-4.9577,-4.9338,-4.9308,-4.9518,-4.9086,-4.8768,-4.8609,-4.8826,-4.9054,-4.9277,-4.9377,-4.9543,-4.9762,-4.885,-4.8448,-4.8344,-4.6952,-4.6254,-4.5979,-4.5463,-4.53,-4.5397,-4.5397,-4.5194,-4.4917,-4.4917,-4.4708,-4.4514,-4.5083,-4.4651,-4.4023,-4.4824,-4.4754,-4.4295,-4.3678,-4.388,-4.404,-4.3074,-4.2555,-4.227,-4.227,-4.227,-4.227,-4.227,-4.227,-4.227,-4.227,-4.2077,-4.1883,-4.1785,-4.1753,-4.1654,-4.129,-4.1272,-4.1156,-4.0885,-4.0765,-4.0627,-4.0524,-3.9474,-3.8739,-3.8523,-3.7461,-3.6722,-3.6507,-3.6492,-3.6445,-3.6305,-3.6414,-3.6445,-3.6305,-3.6274,-3.6274,-3.6274,-3.6195,-3.6163,-3.6163,-3.6163,-3.6163,-2.3301,-2.4208,-2.5271,-2.6755,0.0,0.0,-3.4998,-3.7115,-3.9242,-4.2968,-4.4026,-4.4061,-4.3204,-4.3754,0.0,-4.5732,-4.822,-4.9993,-5.0011,-5.0631,-5.0821,-5.008,-4.9993,-4.9993,-4.9993,-4.9993,-4.9993,-4.9993,-4.9993,-4.9993,-4.9993,-4.9993,-4.9872,-4.9691,-4.897,-4.8895,-4.9483,-4.8163,-4.7871,-4.8575,-4.7995,-4.8068,-4.8775,-4.8775,-4.9206,-4.989,-4.8372,-4.77,-4.762,-4.6906,-4.6104,-4.5397,-4.5397,-4.5397,-4.5397,-4.5397,-4.5397,-4.5397,-4.5397,-4.5397,-4.5397,-4.5414,-4.5096,-4.4708,-4.4708,-4.4401,-4.4001,-4.4001,-4.4001,-4.3914,-4.3426,-4.2974,-4.2602,-4.2602,-4.2602,-4.2602,-4.2602,-4.2602,-4.2602,-4.2602,-4.2602,-4.2492,-4.2174,-4.2109,-4.198,-4.1654,-4.1588,-4.1588,-4.1588,-4.129,-4.0969,-4.0558,-3.9924,-3.9247,-3.8569,-3.7892,-3.7215,-3.6538,-3.6492,-3.6492,-3.6492,-3.6492,-3.6492,-3.6492,-3.6492,-3.6492,-3.6492,-3.6492,-3.6492,-3.6492,-3.6492,-3.6492,-2.3669,-2.5086,0.0,-2.8152,0.0,0.0,0.0,-3.8037,0.0,0.0,-4.5757,-4.5327,-4.6158,-4.6089,0.0,-4.7034,-4.8288,-4.9344,-4.9924,-4.9717,-4.9396,-4.9172,-4.8689,-4.8361,-4.8361,-4.8361,-4.8361,-4.8361,-4.8844,-4.8941,-4.8424,-4.8861,-4.8896,-4.8305,-4.8081,-4.8036,-4.8231,-4.7829,-4.7754,-4.7961,-4.7793,-4.7793,-4.8017,-4.8017,-4.8165,-4.8338,-4.7355,-4.6941,-4.6889,-4.6069,-4.5621,-4.5397,-4.5397,-4.5397,-4.5397,-4.5397,-4.5397,-4.5397,-4.5397,-4.5397,-4.5483,-4.6052,-4.5765,-4.5297,-4.5873,-4.5542,-4.4934,-4.4597,-4.4485,-4.4384,-4.3898,-4.4108,-4.4103,-4.2904,-4.2602,-4.2602,-4.2602,-4.2602,-4.2602,-4.2602,-4.2602,-4.2571,-4.246,-4.2429,-4.2333,-4.2013,-4.1948,-4.1883,-4.1621,-4.1522,-4.1339,-4.0969,-4.0546,-3.9793,-3.8602,-3.8102,-3.7452,-3.6569,-3.6492,-3.6492,-3.6492,-3.6492,-3.6492,-3.6492,-3.6492,-3.6492,-3.6492,-3.6492,-3.6492,-3.6492,-3.6492,-3.6492,-2.4066,-2.5539,0.0,-2.9488,-3.2147,-3.5128,-3.852,0.0,0.0,0.0,-4.6724,-4.6328,-4.7844,-4.7517,0.0,-4.8,-4.8775,-4.9327,-4.951,-4.9103,-4.8689,-4.8396,-4.7965,-4.7689,-4.7689,-4.7689,-4.7689,-4.7689,-4.8103,-4.8155,-4.7707,-4.8103,-4.8155,-4.7707,-4.7424,-4.7396,-4.7689,-4.7086,-4.6931,-4.7269,-4.6931,-4.6776,-4.6793,-4.7103,-4.7414,-4.7655,-4.6924,-4.6424,-4.6052,-4.5285,-4.5147,-4.5345,-4.4768,-4.4863,-4.5328,-4.4751,-4.4716,-4.4923,-4.463,-4.4716,-4.5044,-4.5527,-4.5579,-4.5483,-4.5966,-4.5776,-4.5344,-4.5069,-4.4971,-4.4862,-4.4401,-4.4625,-4.4641,-4.3225,-4.311,-4.3225,-4.273,-4.2602,-4.2602,-4.2602,-4.2602,-4.2602,-4.2602,-4.2602,-4.2539,-4.2333,-4.2302,-4.2174,-4.1851,-4.1785,-4.1687,-4.1323,-4.1127,-4.0558,-3.9414,-3.8873,-3.8216,-3.7359,-3.7017,-3.6816,-3.6708,-3.6554,-3.6492,-3.6492,-3.6492,-3.6492,-3.6492,-3.6492,-3.6492,-3.6492,-3.6492,-3.6492,-2.4462,-2.5747,-2.7432,-3.0721,-3.3622,0.0,-4.105,-4.3664,-4.5638,-4.7155,0.0,-4.7148,-4.8534,-4.8189,-4.7931,-4.8672,-4.9344,-4.9545,-4.8792,-4.8637,-4.831,-4.7569,-4.7441,-4.7372,-4.732,-4.7303,-4.7303,-4.7303,-4.7345,-4.7407,-4.7407,-4.7431,-4.7482,-4.7482,-4.6828,-4.682,-4.7465,-4.6104,-4.5759,-4.6493,-4.5742,-4.5397,-4.5414,-4.6155,-4.6872,-4.7431,-4.6786,-4.6069,-4.5328,-4.4596,-4.4699,-4.5156,-4.3759,-4.4009,-4.5035,-4.3707,-4.3621,-4.4104,-4.3431,-4.3638,-4.4207,-4.4207,-4.4699,-4.5294,-4.5294,-4.5345,-4.5397,-4.5397,-4.5397,-4.53,-4.4889,-4.4814,-4.4626,-4.368,-4.3974,-4.4167,-4.2936,-4.2634,-4.2602,-4.2602,-4.2554,-4.2522,-4.2586,-4.2602,-4.2602,-4.2602,-4.2602,-4.2492,-4.2174,-4.2142,-4.2013,-4.1687,-4.1687,-4.1402,-4.0641,-3.9993,-3.9297,-3.8538,-3.7859,-3.7347,-3.706,-3.6708,-3.6523,-3.6492,-3.6492,-3.6492,-3.6492,-3.6492,-3.6492,-3.6492,-3.6492,-3.6492,-2.4621,-2.6132,0.0,0.0,-3.6138,-4.0083,-4.1654,-4.2879,-4.4096,-4.5587,-4.6724,-4.7724,-4.862,-4.8189,-4.7931,-4.8672,-4.8448,-4.812,-4.7948,-4.7431,-4.6776,-4.5983,-4.5389,-4.4811,-4.4225,-4.4173,-4.4173,-4.4173,-4.4708,-4.5036,-4.5036,-4.5596,-4.588,-4.588,-4.5742,-4.5725,-4.588,-4.5569,-4.5483,-4.5656,-4.5483,-4.5397,-4.5414,-4.5569,-4.5742,-4.588,-4.5725,-4.5552,-4.5328,-4.4596,-4.4397,-4.4466,-4.3552,-4.3396,-4.3638,-4.331,-4.3293,-4.3414,-4.3258,-4.3293,-4.3431,-4.3431,-4.3949,-4.4552,-4.4552,-4.4941,-4.5397,-4.5397,-4.5397,-4.5371,-4.5291,-4.5711,-4.5894,-4.4677,-4.4406,-4.4181,-4.3319,-4.2851,-4.2602,-4.2602,-4.218,-4.197,-4.2505,-4.2602,-4.2602,-4.2602,-4.2602,-4.2571,-4.2508,-4.2492,-4.2365,-4.2045,-4.2238,-4.1885,-4.0705,-4.0706,-4.01,-3.86,-3.8348,-3.7971,-3.7329,-3.7044,-3.6785,-3.6523,-3.6492,-3.6492,-3.6492,-3.6492,-3.6492,-3.6492,-3.6492,-3.6492,-2.5455,0.0,0.0,-3.3001,0.0,-4.0612,-4.1757,-4.262,-4.3517,-4.463,-4.5776,-4.7052,-4.8517,-4.8482,-4.8344,-4.8741,-4.8465,-4.7965,-4.7258,-4.65,-4.5751,-4.4975,-4.4225,-4.3621,-4.3241,-4.3189,-4.3189,-4.3189,-4.3552,-4.3776,-4.3776,-4.413,-4.4509,-4.4872,-4.4872,-4.4872,-4.4872,-4.5207,-4.5035,-4.4354,-4.4699,-4.4872,-4.4889,-4.5225,-4.5207,-4.4872,-4.4872,-4.4682,-4.4285,-4.3509,-4.3431,-4.3655,-4.2534,-4.2551,-4.3103,-4.2378,-4.2327,-4.2568,-4.2223,-4.2327,-4.2689,-4.3069,-4.369,-4.438,-4.4716,-4.5113,-4.5397,-4.5397,-4.5397,-4.5397,-4.5397,-4.5707,-4.5861,-4.5199,-4.5089,-4.477,-4.3545,-4.3111,-4.2881,-4.2618,-4.2326,-4.2197,-4.2538,-4.2602,-4.2602,-4.2602,-4.2602,-4.2602,-4.2602,-4.2602,-4.2523,-4.2365,-4.2508,-4.2315,-4.1629,-4.1418,-4.0935,-4.0044,-3.9646,-3.9218,-3.867,-3.8188,-3.7803,-3.7452,-3.7452,-3.7452,-3.7452,-3.7078,-3.6922,-3.6922,-3.6922,-3.6922,-2.6128,0.0,-2.9485,-3.3724,-3.6973,0.0,-4.1043,-4.2033,-4.2844,-4.3724,-4.4596,-4.5862,-4.8017,-4.831,-4.8258,-4.8396,-4.8293,-4.7724,-4.6389,-4.5648,-4.4889,-4.4018,-4.3362,-4.2948,-4.281,-4.2792,-4.2792,-4.2792,-4.2792,-4.2861,-4.2982,-4.2982,-4.3345,-4.4087,-4.4121,-4.4121,-4.4121,-4.4716,-4.4406,-4.3207,-4.3828,-4.4121,-4.4138,-4.4751,-4.4768,-4.4294,-4.4173,-4.3759,-4.3138,-4.2344,-4.2396,-4.2844,-4.1447,-4.1688,-4.2654,-4.1378,-4.1291,-4.1723,-4.1119,-4.1309,-4.193,-4.2585,-4.3396,-4.4225,-4.4854,-4.519,-4.5397,-4.5397,-4.5397,-4.5397,-4.5397,-4.5397,-4.5397,-4.5397,-4.562,-4.5405,-4.3885,-4.3426,-4.3202,-4.2805,-4.2665,-4.2602,-4.2602,-4.2602,-4.2602,-4.2602,-4.2602,-4.2651,-4.2764,-4.2683,-4.2651,-4.278,-4.2683,-4.2602,-4.2602,-4.2083,-4.1725,-4.1612,-4.1045,-4.0441,-3.9929,-3.9608,-3.92,-3.8688,-3.844,-3.8316,-3.8316,-3.7701,-3.7417,-3.7417,-3.7417,-3.7417,-2.5313,0.0,-3.0798,0.0,-3.499,-3.7163,0.0,0.0,-4.056,0.0,-4.3465,-4.4941,-4.6596,-4.631,-4.6069,-4.6786,-4.631,-4.5552,-4.4716,-4.4518,-4.3914,-4.2482,-4.2223,-4.1912,-4.1274,-4.1205,-4.1205,-4.1205,-4.1205,-4.1498,-4.2137,-4.2171,-4.2516,-4.331,-4.3345,-4.3345,-4.3345,-4.3448,-4.3396,-4.3189,-4.3293,-4.3345,-4.3345,-4.3448,-4.3793,-4.4259,-4.3621,-4.3293,-4.3138,-4.2344,-4.2068,-4.2085,-4.124,-4.1032,-4.1188,-4.0981,-4.0963,-4.1032,-4.0929,-4.0963,-4.1067,-4.117,-4.2189,-4.3362,-4.3465,-4.4389,-4.5397,-4.5397,-4.5397,-4.5397,-4.5397,-4.5397,-4.5397,-4.5397,-4.5413,-4.5287,-4.4642,-4.3852,-4.3276,-4.3216,-4.2881,-4.2602,-4.2602,-4.2602,-4.2602,-4.2602,-4.2602,-4.2829,-4.3476,-4.2991,-4.2845,-4.3492,-4.2975,-4.2602,-4.2602,-4.2505,-4.2229,-4.1644,-4.1515,-4.0885,-3.9612,-4.0661,-4.0663,-3.9376,-3.8173,-3.7559,-3.7559,-3.7464,-3.7417,-3.7417,-3.7417,-3.7417,-2.6262,-2.7863,-2.9868,0.0,-3.3041,-3.4904,-3.687,0.0,-3.9508,-4.1084,-4.2258,-4.3595,-4.5579,-4.6,-4.6199,-4.6544,-4.5914,-4.5121,-4.4414,-4.3569,-4.2775,-4.2085,-4.1654,-4.1257,-4.0929,-4.0912,-4.0912,-4.0912,-4.0912,-4.105,-4.1378,-4.1395,-4.174,-4.2499,-4.2534,-4.2534,-4.2534,-4.2965,-4.2965,-4.2534,-4.2534,-4.2534,-4.2534,-4.2534,-4.2706,-4.3,-4.2672,-4.2292,-4.1878,-4.1533,-4.1395,-4.136,-4.1032,-4.0912,-4.0912,-4.0912,-4.0912,-4.0912,-4.0912,-4.0912,-4.0981,-4.1395,-4.1981,-4.2689,-4.3552,-4.4276,-4.4872,-4.5276,-4.5397,-4.5397,-4.5397,-4.5397,-4.5397,-4.5397,-4.5397,-4.5344,-4.5123,-4.4569,-4.3927,-4.3396,-4.2912,-4.2602,-4.2602,-4.2602,-4.2602,-4.2602,-4.2602,-4.2716,-4.3023,-4.2797,-4.2716,-4.3039,-4.278,-4.2602,-4.2602,-4.2602,-4.2457,-4.218,-4.2164,-4.1711,-4.0721,-4.1272,-4.0948,-3.9538,-3.9677,-3.956,-3.9129,-3.8745,-3.8568,-3.8552,-3.8152,-3.796,0.0,0.0,-2.866,-2.9936,-3.1339,-3.2926,0.0,0.0,-3.841,0.0,-4.0946,-4.2233,-4.3958,-4.5234,-4.6079,-4.6242,-4.5793,-4.5096,-4.4156,-4.3034,-4.2171,-4.1774,-4.124,-4.0912,-4.0912,-4.0912,-4.0912,-4.0912,-4.0912,-4.0912,-4.0912,-4.0912,-4.1153,-4.1705,-4.1509,-4.1516,-4.1723,-4.2327,-4.2309,-4.1723,-4.1723,-4.1723,-4.1723,-4.1723,-4.1723,-4.1723,-4.1723,-4.1412,-4.0912,-4.0912,-4.0912,-4.0912,-4.0912,-4.0912,-4.0912,-4.0912,-4.0912,-4.0912,-4.0912,-4.0912,-4.0998,-4.155,-4.1861,-4.2223,-4.3379,-4.4,-4.4414,-4.4975,-4.5259,-4.5397,-4.5397,-4.5397,-4.5397,-4.5397,-4.5397,-4.5371,-4.5247,-4.4944,-4.4468,-4.3634,-4.308,-4.2774,-4.2774,-4.268,-4.2602,-4.2602,-4.2748,-4.2877,-4.2877,-4.2877,-4.2877,-4.2877,-4.2699,-4.2602,-4.2602,-4.2602,-4.2602,-4.2602,-4.2602,-4.231,-4.1628,-4.1596,-4.1029,-3.9797,-4.098,-4.1077,-3.9962,-3.9444,-3.923,-3.9214,-3.8651,-3.8391,0.0,-2.7174,0.0,-2.8776,-3.0014,0.0,0.0,0.0,0.0,-3.7512,-3.9428,-4.0998,-4.1119,-4.293,-4.463,-4.5345,-4.5432,-4.4906,-4.3465,-4.3189,-4.2603,-4.1136,-4.0929,-4.0912,-4.0912,-4.0912,-4.0912,-4.0912,-4.0912,-4.0912,-4.0912,-4.0912,-4.0929,-4.0963,-4.0215,-4.0181,-4.0963,-4.0998,-4.0998,-4.0963,-4.0963,-4.0963,-4.0963,-4.0963,-4.0963,-4.0963,-4.0963,-4.0946,-4.0912,-4.0912,-4.0912,-4.0912,-4.0912,-4.0912,-4.0912,-4.0912,-4.0912,-4.0912,-4.0912,-4.0912,-4.0912,-4.0946,-4.1429,-4.1992,-4.2102,-4.3155,-4.4311,-4.4363,-4.4872,-4.5397,-4.5397,-4.5397,-4.5397,-4.5397,-4.5397,-4.5274,-4.4818,-4.4708,-4.4552,-4.4059,-4.3575,-4.3246,-4.3246,-4.2881,-4.2602,-4.2602,-4.3185,-4.3654,-4.3654,-4.3654,-4.3654,-4.3654,-4.3007,-4.2602,-4.2602,-4.2602,-4.2602,-4.2602,-4.2602,-4.231,-4.1628,-4.1596,-4.1255,-4.0448,-4.1223,-4.0591,-3.8505,-3.8472,-3.8456,-3.8456,-3.8424,-3.8391,0.0,0.0,0.0,-2.8099,-2.8884,-2.9978,-3.1394,-3.3059,-3.4768,-3.6391,-3.7806,-3.9014,-3.9957,-4.2033,-4.3845,-4.4561,-4.3854,-4.3199,-4.3207,-4.2344,-4.1516,-4.0963,-4.0912,-4.0912,-4.0912,-4.0422,-4.0359,-4.086,-4.0429,-4.0377,-4.0877,-4.0912,-4.0912,-4.0912,-4.0112,-3.9836,-4.0112,-4.0112,-4.0394,-4.0912,-4.0912,-4.0912,-4.0912,-4.0912,-4.0912,-4.0912,-4.0912,-4.0912,-4.0912,-4.0912,-4.0912,-4.0912,-4.0912,-4.0912,-4.0912,-4.0912,-4.0912,-4.0912,-4.0912,-4.0912,-4.0912,-4.0912,-4.1084,-4.1395,-4.1861,-4.2758,-4.369,-4.4173,-4.4837,-4.5397,-4.5397,-4.5397,-4.5397,-4.5397,-4.5537,-4.5572,-4.523,-4.4917,-4.4652,-4.4468,-4.4071,-4.3783,-4.3963,-4.3877,-4.366,-4.3346,-4.3541,-4.3541,-4.3039,-4.2991,-4.2991,-4.2991,-4.2748,-4.2602,-4.2602,-4.2602,-4.2602,-4.2602,-4.2602,-4.231,-4.1628,-4.2002,-4.1695,-4.0513,-4.0756,-4.0769,-4.0461,-3.9978,-3.9752,-3.9719,-3.8812,-3.8391,-2.778,0.0,0.0,0.0,0.0,-2.9189,-3.0048,0.0,-3.318,-3.4513,-3.5818,-3.7116,-3.8318,-4.0066,-4.1774,-4.3293,-4.2896,-4.2499,-4.2758,-4.193,-4.1188,-4.0929,-4.0912,-4.0791,-4.0532,-4.0008,-3.9905,-4.0463,-3.9991,0.0,-4.086,-4.0912,-4.0791,-4.0515,-3.9974,-3.9698,-3.9698,-3.9698,-4.0095,-4.0912,-4.0912,-4.0912,-4.0912,-4.0912,-4.0912,-4.0912,-4.0912,-4.0912,-4.0912,-4.0912,-4.0912,-4.0912,-4.0912,-4.0912,-4.0912,-4.0912,-4.0912,-4.0912,-4.0912,-4.0912,-4.0912,-4.0912,-4.0912,-4.0998,-4.1481,-4.2378,-4.3293,-4.3793,-4.463,-4.5397,-4.5397,-4.5397,-4.5397,-4.5397,-4.5598,-4.5822,-4.5918,-4.5561,-4.5178,-4.5089,-4.4691,-4.4422,-4.4604,-4.4654,-4.458,-4.4256,-4.4635,-4.4539,-4.337,-4.3421,-4.3325,-4.2682,-4.2602,-4.2602,-4.2602,-4.2602,-4.2602,-4.2602,-4.2602,-4.2392,-4.1938,-4.2148,-4.1824,-4.0869,-4.0883,-4.0996,-4.1239,-4.0254,-3.98,-3.9768,-3.8829,-3.8391,0.0,0.0,0.0,0.0,0.0,0.0,-2.8941,0.0,-3.1897,-3.1819,-3.3578,-3.5356,-3.6094,-3.6887,-3.8392,-4.1326,-4.2516,-4.2792,-4.205,-4.1912,-4.1636,-4.0929,-4.086,-4.0549,-3.975,-3.9664,-3.9664,-3.9687,-3.9646,-3.9997,-4.0791,-4.086,-4.0515,-3.9681,-3.9681,-3.9698,-3.9698,-3.9698,-4.0095,-4.0912,-4.0912,-4.0912,-4.0912,-4.0912,-4.0912,-4.0912,-4.0912,-4.0912,-4.0912,-4.0912,-4.0912,-4.0912,-4.0912,-4.0912,-4.0912,-4.0912,-4.0912,-4.0912,-4.0912,-4.0912,-4.0912,-4.0912,-4.0912,-4.0912,-4.0912,-4.1964,-4.3155,-4.3155,-4.4199,-4.5328,-4.5363,-4.5406,-4.5423,-4.5423,-4.5624,-4.6038,-4.6839,-4.6632,-4.6172,-4.5897,-4.5494,-4.5203,-4.5177,-4.5219,-4.5295,-4.5265,-4.6488,-4.6703,-4.4781,-4.5098,-4.4764,-4.286,-4.2635,-4.2619,-4.2651,-4.2635,-4.2619,-4.2635,-4.2619,-4.2602,-4.2602,-4.197,-4.1628,-4.1596,-4.1596,-4.1239,-4.0464,-3.912,-3.844,-3.8424,-3.8408,-3.8391,-2.8196,0.0,0.0,0.0,0.0,0.0,0.0,0.0,0.0,-3.1672,-3.2451,-3.3263,-3.4495,-3.5338,-3.6094,-3.696,-3.8651,-3.9974,-4.0284,-3.9871,-3.9457,-3.925,-3.9698,-3.9715,-3.8974,-3.8888,-3.8955,0.0,-3.8476,-3.8511,-3.9406,-3.9824,-3.9681,-3.8922,-3.9422,-3.9698,-3.9698,-3.9698,-4.0095,-4.0912,-4.0912,-4.0912,-4.0912,-4.0912,-4.0912,-4.0912,-4.0912,-4.0912,-4.0912,-4.0912,-4.0912,-4.0912,-4.0912,-4.0912,-4.0912,-4.0912,-4.0912,-4.0912,-4.0912,-4.0912,-4.0912,-4.0912,-4.0912,-4.0912,-4.0912,-4.1585,-4.2344,-4.2344,-4.3051,-4.3974,-4.4696,-4.5436,-4.598,-4.598,-4.6186,-4.6537,-4.7171,-4.7477,-4.7439,-4.6811,-4.7195,-4.736,-4.6532,-4.7062,-4.7398,-4.6864,-4.7141,-4.6886,-4.5425,-4.4966,-4.4616,-4.4237,-4.3233,-4.3023,-4.4107,-4.3201,-4.2829,-4.3379,-4.2894,-4.2602,-4.2602,-4.2408,-4.2099,-4.1612,-4.1596,-4.1012,-3.9797,-3.9865,-3.9654,-3.9169,-3.8651,-3.8391,-2.8196,0.0,0.0,0.0,0.0,0.0,-2.8563,-2.8888,-2.9488,0.0,-3.1428,-3.2091,-3.3472,-3.4075,-3.4451,-3.47,-3.5873,-3.7077,-3.8129,-3.7905,-3.7629,-3.7629,-3.8301,-3.8535,-3.7863,-3.8092,-3.8192,-3.8074,-3.7572,-3.7596,-3.8364,-3.9019,-3.9116,-3.8634,-3.9008,-3.9388,-3.9698,-3.9388,-3.9784,-4.0912,-4.0567,-4.0584,-4.0912,-4.0912,-4.0722,-4.0429,-4.0756,-4.0722,-4.0446,-4.0774,-4.0912,-4.0912,-4.0912,-4.0912,-4.0912,-4.0912,-4.0912,-4.0912,-4.0912,-4.0912,-4.0912,-4.0912,-4.0912,-4.0912,-4.0912,-4.1429,-4.2016,-4.2137,-4.2805,-4.3708,-4.4586,-4.5264,-4.5782,-4.6116,-4.6405,-4.6796,-4.7421,-4.7914,-4.8034,-4.7448,-4.8106,-4.8459,-4.7444,-4.8156,-4.8684,-4.8267,-4.8061,-4.7474,-4.6001,-4.5225,-4.4554,-4.3945,-4.3104,-4.2942,-4.3816,-4.3072,-4.278,-4.3201,-4.2829,-4.2602,-4.2602,-4.2602,-4.2294,-4.1612,-4.1596,-4.0915,-3.9505,-3.991,-3.9703,-3.9023,-3.8602,-3.8391,-2.832,0.0,0.0,0.0,-2.8392,0.0,-2.812,-2.8613,-2.9281,0.0,0.0,-3.1405,-3.2686,-3.2912,-3.312,-3.3751,-3.3833,-3.4347,-3.5856,-3.6059,-3.6059,-3.6059,-3.6749,-3.7024,-3.6467,-3.7078,-3.7265,-3.67,-3.6669,-3.6888,-3.7342,-3.8173,-3.8556,-3.838,-3.8513,-3.8905,-3.956,-3.8922,-3.9307,-4.0636,-3.9991,-4.006,-4.0774,-4.086,-4.0515,-3.9871,-4.0498,-4.0405,-3.9871,-4.0515,-4.0825,-4.0912,-4.0912,-4.0912,-4.0912,-4.0912,-4.0894,-4.0918,-4.0912,-4.0894,-4.0918,-4.0918,-4.0918,-4.0942,-4.0965,-4.1432,-4.2016,-4.223,-4.304,-4.398,-4.463,-4.4882,-4.5169,-4.5967,-4.6329,-4.6761,-4.7665,-4.8105,-4.8253,-4.8014,-4.8622,-4.8923,-4.8158,-4.875,-4.9338,-4.9338,-4.8993,-4.814,-4.6535,-4.5693,-4.4637,-4.302,-4.2699,-4.2667,-4.2829,-4.2764,-4.2716,-4.2716,-4.2716,-4.2683,-4.2602,-4.2602,-4.2294,-4.1612,-4.145,-4.0834,-3.9748,-3.9586,-3.9104,-3.8391,-3.8391,-3.8391,0.0,0.0,0.0,0.0,-2.9604,0.0,-2.8649,-2.8899,-2.9405,0.0,-2.974,-3.0021,-3.0945,-3.1105,-3.1355,-3.2123,-3.2107,-3.2599,-3.4293,-3.4545,-3.4545,-3.4545,-3.518,-3.5373,-3.4691,-3.5278,-3.5541,-3.5159,-3.5221,-3.5274,-3.5206,-3.6394,-3.7019,-3.6977,-3.8044,-3.8663,-3.8801,-3.8663,-3.8732,-3.9043,-3.9491,-3.9767,-3.9957,-4.0601,-4.0825,-4.0653,-4.017,-4.0198,-4.0636,-4.0129,-4.0325,-4.0912,-4.0912,-4.0912,-4.0912,-4.0912,-4.0995,-4.1117,-4.0965,-4.1012,-4.114,-4.114,-4.114,-4.1163,-4.1403,-4.1576,-4.1681,-4.1743,-4.2466,-4.3279,-4.3443,-4.4072,-4.488,-4.5703,-4.5922,-4.6359,-4.7825,-4.8633,-4.9079,-4.9031,-4.9673,-5.0005,-4.9414,-4.9486,-4.9617,-4.9608,-4.8843,-4.782,-4.6684,-4.5954,-4.5213,-4.4448,-4.3298,-4.3072,-4.4269,-4.3832,-4.3508,-4.3508,-4.3508,-4.3201,-4.2619,-4.2602,-4.2294,-4.1612,-4.0494,-4.0332,-4.1191,-4.0056,-3.9104,-3.8391,-3.8391,-3.8391,0.0,0.0,0.0,-3.0457,-3.0529,0.0,0.0,-2.9726,-2.9672,-3.0694,-3.0183,-2.9916,-3.1128,0.0,-3.0848,-3.1149,-3.1016,-3.1213,-3.2074,-3.2788,-3.3184,-3.3108,-3.3824,-3.4251,-3.3979,-3.4549,-3.4765,-3.4287,-3.4411,-3.4411,-3.4217,-3.5584,-3.6271,-3.607,-3.7463,-3.8135,-3.8065,-3.8065,-3.8254,-3.8594,-3.8594,-3.8974,-3.9715,-4.0112,-4.0284,-4.0284,-4.0284,-4.0077,-3.9756,-3.9698,-4.0032,-4.0522,-4.0803,-4.0965,-4.1041,-4.1041,-4.1203,-4.1386,-4.1272,-4.1226,-4.1232,-4.1363,-4.13,-4.1255,-4.152,-4.167,-4.174,-4.174,-4.2218,-4.2797,-4.3205,-4.3946,-4.4799,-4.5624,-4.6105,-4.6605,-4.7431,-4.8193,-4.8871,-4.9222,-4.9959,-5.0289,-4.9632,-5.0063,-5.0224,-4.9422,-4.8732,-4.781,-4.6391,-4.5817,-4.5145,-4.4067,-4.3553,-4.3584,-4.4334,-4.4106,-4.4089,-4.4367,-4.4138,-4.3795,-4.3421,-4.3031,-4.2541,-4.1871,-4.1496,-4.1317,-4.1317,-4.0958,-4.0333,-3.9444,-3.9444,-3.9444,0.0,0.0,0.0,0.0,0.0,-3.1315,0.0,0.0,0.0,0.0,0.0,0.0,0.0,0.0,0.0,0.0,0.0,0.0,0.0,-3.1257,0.0,-3.1934,-3.2599,-3.3178,-3.3475,-3.3988,-3.4094,-3.3614,-3.3748,-3.3799,-3.363,-3.4925,-3.5502,-3.5178,-3.6641,-3.7252,-3.6945,-3.724,-3.7624,-3.8053,-3.7759,-3.8226,-3.9403,-3.9697,-3.9749,-3.9645,-4.0303,-3.987,-3.8745,-3.9195,-3.9601,-3.9983,-4.0539,-4.0967,-4.1277,-4.1277,-4.1453,-4.1648,-4.1604,-4.1475,-4.1368,-4.1587,-4.1542,-4.1458,-4.1653,-4.1849,-4.1977,-4.1977,-4.2124,-4.2468,-4.3108,-4.3839,-4.4585,-4.5392,-4.6177,-4.6837,-4.7158,-4.7859,-4.8621,-4.9406,-5.0191,-5.0477,-4.9668,-5.0272,-5.0386,-4.8976,-4.8398,-4.757,-4.6004,-4.5682,-4.4993,-4.3426,-4.3839,-4.4171,-4.4052,-4.4409,-4.4753,-4.5098,-4.4818,-4.4554,-4.4423,-4.3834,-4.3195,-4.2507,-4.29,-4.2556,-4.1393,-4.1852,-4.1569,-4.0586,-4.0586,-4.0586,0.0,0.0,0.0,0.0,-3.301,-3.3533,0.0,0.0,-3.1816,-3.0956,0.0,0.0,0.0,0.0,0.0,0.0,0.0,0.0,-3.0048,-3.0572,-3.1056,-3.1281,-3.1407,-3.1739,-3.2405,-3.2683,-3.2819,-3.273,-3.2928,-3.3027,-3.2993,-3.3682,-3.404,-3.3988,-3.5322,-3.5665,-3.4944,-3.6348,-3.6753,-3.6118,-3.7416,-3.8117,-3.8327,-3.969,-3.9935,-3.9269,-3.9431,-3.9361,-3.9094,-3.852,-3.8678,-3.9361,-3.9948,-4.0747,-4.1542,-4.1542,-4.1697,-4.1849,-4.167,-4.1697,-4.1831,-4.187,-4.2019,-4.2166,-4.2205,-4.2246,-4.2267,-4.2267,-4.2287,-4.2325,-4.2394,-4.3036,-4.38,-4.4549,-4.5356,-4.632,-4.777,-4.8639,-4.9424,-5.0227,-5.1012,-5.1315,-5.0513,-4.9739,-4.9043,-4.8372,-4.7441,-4.6592,-4.5982,-4.5852,-4.5347,-4.4037,-4.4537,-4.475,-4.4225,-4.539,-4.5897,-4.5292,-4.5832,-4.5848,-4.5193,-4.5078,-4.4702,-4.3981,-4.3471,-4.3064,-4.2867,-4.2343,-4.1704,-4.0954,-4.0954,-4.0954,0.0,0.0,0.0,0.0,0.0,0.0,-3.3302,0.0,-3.2295,0.0,0.0,0.0,0.0,0.0,0.0,0.0,-2.9477,0.0,0.0,0.0,-2.9931,0.0,0.0,0.0,-3.1114,-3.1292,-3.1355,-3.1278,-3.1418,-3.1706,-3.2186,-3.2891,-3.3433,-3.3792,-3.5206,-3.5765,-3.53,-3.6426,-3.6831,-3.6496,-3.7145,-3.769,-3.8128,-3.8757,-3.9108,-3.9193,-3.9231,-3.8985,-3.8529,-3.8234,-3.8365,-3.8821,-3.9054,-3.9993,-4.1131,-4.1131,-4.1563,-4.2124,-4.2037,-4.1956,-4.1895,-4.1895,-4.2082,-4.2308,-4.2308,-4.2308,-4.2308,-4.2308,-4.2308,-4.2415,-4.2876,-4.3572,-4.4317,-4.5124,-4.5909,-4.6801,-4.7949,-4.8782,-4.9525,-5.0352,-5.1155,-5.144,-5.0637,-5.0147,-4.9481,-4.8371,-4.8194,-4.7647,-4.6249,-4.7139,-4.7114,-4.5133,-4.5914,-4.6292,-4.5662,-4.6288,-4.6683,-4.67,-4.6699,-4.6353,-4.5611,-4.5578,-4.5461,-4.5116,-4.4438,-4.4059,-4.4042,-4.3303,-4.2809,-4.2495,-4.2318,-4.2212,-3.2385,0.0,0.0,0.0,0.0,0.0,0.0,0.0,0.0,0.0,0.0,0.0,0.0,0.0,-2.9582,-2.9118,0.0,-2.8529,0.0,0.0,0.0,0.0,0.0,0.0,0.0,-3.0484,-3.0451,-3.0366,-3.0454,-3.0761,-3.1332,-3.1936,-3.2535,-3.3204,-3.4517,-3.5155,-3.501,-3.5998,-3.6404,-3.621,-3.6634,-3.7127,-3.7655,-3.8078,-3.8466,-3.8763,-3.8974,-3.8659,-3.7974,-3.7974,-3.809,-3.8243,-3.8243,-3.9201,-4.0585,-4.0798,-4.1487,-4.2308,-4.2308,-4.2166,-4.2019,-4.2019,-4.2145,-4.2308,-4.2308,-4.2308,-4.2308,-4.2308,-4.2308,-4.2504,-4.3304,-4.405,-4.4799,-4.5624,-4.6409,-4.7265,-4.8264,-4.8764,-4.9371,-5.0584,-5.1119,-5.1262,-5.0887,-5.0655,-5.0049,-4.8693,-4.896,-4.8745,-4.723,-4.8364,-4.8486,-4.6385,-4.718,-4.759,-4.6744,-4.7009,-4.7356,-4.7754,-4.7422,-4.6957,-4.6427,-4.6195,-4.5997,-4.5798,-4.5069,-4.4589,-4.439,-4.3876,-4.3598,-4.3598,-4.3372,-4.3235,0.0,0.0,0.0,-3.4036,0.0,0.0,0.0,0.0,-3.3925,0.0,0.0,0.0,0.0,-3.0586,-3.0028,-2.8412,-2.8142,0.0,0.0,0.0,0.0,0.0,0.0,0.0,0.0,-3.061,-3.0496,-3.0496,-3.0496,-3.0511,-3.0532,-3.055,-3.0939,-3.1742,-3.2563,-3.2991,-3.2991,-3.4509,-3.4884,-3.4207,-3.5704,-3.6435,-3.6506,-3.8076,-3.8379,-3.7702,-3.8468,-3.8361,-3.763,-3.763,-3.7612,-3.763,-3.763,-3.8576,-4.0019,-4.0786,-4.1609,-4.2308,-4.2308,-4.2287,-4.2287,-4.2287,-4.2287,-4.2308,-4.2308,-4.2308,-4.2308,-4.2308,-4.2308,-4.2504,-4.3304,-4.405,-4.4799,-4.5624,-4.6409,-4.7408,-4.8942,-4.871,-4.8913,-5.1208,-5.1048,-5.078,-5.153,-5.1012,-5.0227,-4.9382,-4.9275,-4.9275,-4.9198,-4.9257,-4.8848,-4.7672,-4.8224,-4.817,-4.697,-4.7554,-4.7984,-4.8001,-4.7984,-4.7951,-4.7934,-4.7239,-4.6527,-4.5798,-4.5069,-4.4357,-4.3631,-4.3615,-4.3598,-4.3598,-4.3598,-4.3582,0.0,0.0,-3.4092,-3.3785,0.0,0.0,0.0,0.0,0.0,0.0,0.0,0.0,0.0,-3.0604,-3.0233,-2.9136,-2.8486,-2.7817,0.0,0.0,0.0,0.0,0.0,0.0,0.0,0.0,0.0,-2.8994,-2.898,-2.9212,-2.9744,-3.0229,-3.0868,-3.1671,-3.2991,-3.3687,-3.3687,-3.4704,-3.5062,-3.4847,-3.5364,-3.5882,-3.6417,-3.697,-3.7345,-3.7631,-3.7898,-3.7844,-3.7595,-3.7595,-3.7595,-3.7595,-3.7595,-3.854,-3.993,-4.0198,-4.1145,-4.2308,-4.2308,-4.2308,-4.2308,-4.2308,-4.2308,-4.2308,-4.2308,-4.2308,-4.2308,-4.2308,-4.2308,-4.259,-4.3872,-4.4407,-4.4924,-4.6284,-4.6801,-4.7408,-4.8954,-4.9103,-4.9317,-5.0655,-5.1119,-5.1208,-5.0959,-5.1119,-5.103,-5.0227,-5.0102,-4.9882,-4.9364,-5.0245,-5.0186,-4.8321,-4.8817,-4.8594,-4.6901,-4.7078,-4.7272,-4.7272,-4.7272,-4.7272,-4.7272,-4.7023,-4.7007,-4.7255,-4.6046,-4.5301,-4.5052,-4.4062,-4.3598,-4.3598,-4.3598,-4.3598,-3.3802,-3.3908,0.0,-3.386,-3.4011,0.0,-3.4036,0.0,-3.4048,0.0,0.0,0.0,0.0,-3.1032,-3.066,-2.9582,-2.8672,-2.7724,0.0,-2.6042,0.0,0.0,0.0,0.0,0.0,0.0,-2.8101,-2.8191,-2.8196,-2.8427,0.0,0.0,-3.0475,-3.1242,-3.2563,-3.3384,-3.3669,-3.4133,-3.4383,-3.4383,-3.4954,-3.5471,-3.5989,-3.656,-3.7095,-3.7595,-3.7595,-3.7595,-3.7595,-3.7595,-3.7595,-3.7595,-3.7595,-3.854,-3.9895,-3.9895,-4.0913,-4.2308,-4.2308,-4.2308,-4.2308,-4.2308,-4.2308,-4.2308,-4.2308,-4.2308,-4.2308,-4.2308,-4.2308,-4.2644,-4.4193,-4.4603,-4.4995,-4.6605,-4.6998,-4.7337,-4.8639,-4.8693,-4.8889,-5.0245,-5.0691,-5.0869,-5.0923,-5.1351,-5.1512,-5.0994,-5.0923,-5.0744,-5.0227,-5.0816,-5.0652,-4.8986,-4.9293,-4.8926,-4.7213,-4.6935,-4.6862,-4.6923,-4.6643,-4.6742,-4.7272,-4.6792,-4.6974,-4.7984,-4.6278,-4.5533,-4.5798,-4.431,-4.3598,-4.3598,-4.3598,-4.3598]},{"header":{"parameterUnit":"m.s-1","parameterCategory":1,"la1":30.6,"la2":29.2853,"lo1":-89.7004,"lo2":-87.6739,"dy":0.0162,"dx":0.0183,"nx":112,"ny":82,"refTime":"2023-08-31T06:00:00:Z","depth":0,"parameterNumber":3,"parameterNumberName":"V-component_of_WINDS"},"data":[0.0,0.0,0.0,0.0,0.0,0.0,0.0,0.0,0.0,0.0,0.0,0.0,0.0,0.0,0.0,0.0,0.0,0.0,0.0,0.0,0.0,0.0,0.0,0.0,0.0,0.0,0.0,0.0,0.0,0.0,0.0,0.0,0.0,0.0,0.0,0.0,0.0,0.0,0.0,0.0,0.0,0.0,0.0,0.0,0.0,0.0,0.0,0.0,0.0,0.0,0.0,0.0,0.0,0.0,0.0,0.0,0.0,0.0,0.0,0.0,0.0,0.0,0.0,0.0,0.0,0.0,0.0,0.0,0.0,0.0,0.0,0.0,0.0,0.0,0.0,0.0,0.0,0.0,0.0,0.0,0.0,0.0,0.0,0.0,0.0,0.0,0.0,0.0,0.0,0.0,3.7601,4.2039,5.015,5.491,5.4062,5.2941,4.8794,4.0595,0.0,0.0,0.0,0.0,0.0,0.0,0.0,0.0,0.0,0.0,0.0,0.0,0.0,0.0,0.0,0.0,0.0,0.0,0.0,0.0,0.0,0.0,0.0,0.0,0.0,0.0,0.0,0.0,0.0,0.0,0.0,0.0,0.0,0.0,0.0,0.0,0.0,0.0,0.0,0.0,0.0,0.0,0.0,0.0,0.0,0.0,0.0,0.0,0.0,0.0,0.0,0.0,0.0,0.0,0.0,0.0,0.0,0.0,0.0,0.0,0.0,0.0,0.0,0.0,0.0,0.0,0.0,0.0,0.0,0.0,0.0,0.0,0.0,0.0,0.0,0.0,0.0,0.0,0.0,0.0,0.0,0.0,0.0,0.0,0.0,0.0,0.0,0.0,0.0,0.0,0.0,0.0,0.0,0.0,0.0,0.0,0.0,0.0,0.0,0.0,0.0,0.0,0.0,0.0,3.945,4.872,5.3705,5.5722,5.4139,5.185,4.7744,4.1316,0.0,0.0,0.0,0.0,0.0,0.0,0.0,0.0,0.0,0.0,0.0,0.0,0.0,0.0,0.0,0.0,0.0,0.0,0.0,0.0,0.0,0.0,0.0,0.0,0.0,0.0,0.0,0.0,0.0,0.0,0.0,0.0,0.0,0.0,0.0,0.0,0.0,0.0,0.0,0.0,0.0,0.0,0.0,0.0,0.0,0.0,0.0,0.0,0.0,0.0,0.0,0.0,0.0,0.0,0.0,0.0,0.0,0.0,0.0,0.0,0.0,0.0,0.0,0.0,0.0,0.0,0.0,0.0,0.0,0.0,0.0,0.0,0.0,0.0,0.0,0.0,0.0,0.0,0.0,0.0,0.0,0.0,0.0,0.0,0.0,0.0,0.0,0.0,0.0,0.0,0.0,0.0,0.0,0.0,0.0,0.0,0.0,0.0,0.0,0.0,0.0,0.0,0.0,3.6869,4.1855,5.0332,5.3555,5.4985,5.4726,5.1912,4.7769,4.2161,3.8523,0.0,0.0,0.0,0.0,0.0,0.0,0.0,0.0,0.0,0.0,0.0,0.0,0.0,0.0,0.0,0.0,0.0,0.0,0.0,0.0,0.0,0.0,0.0,0.0,0.0,0.0,0.0,0.0,0.0,0.0,0.0,0.0,0.0,0.0,0.0,0.0,0.0,0.0,0.0,0.0,0.0,0.0,0.0,0.0,0.0,0.0,0.0,0.0,0.0,0.0,0.0,0.0,0.0,0.0,0.0,0.0,0.0,0.0,0.0,0.0,0.0,0.0,0.0,0.0,0.0,0.0,0.0,0.0,0.0,0.0,0.0,0.0,0.0,0.0,0.0,0.0,0.0,0.0,0.0,0.0,0.0,0.0,0.0,0.0,0.0,0.0,0.0,0.0,0.0,0.0,0.0,0.0,0.0,0.0,0.0,0.0,0.0,0.0,0.0,0.0,0.0,0.0,4.0493,4.4001,5.052,5.2593,5.373,5.4313,5.1055,4.6834,4.1813,3.7279,0.0,0.0,0.0,0.0,0.0,0.0,0.0,0.0,0.0,0.0,0.0,0.0,0.0,0.0,0.0,0.0,0.0,0.0,0.0,0.0,0.0,0.0,0.0,0.0,0.0,0.0,0.0,0.0,0.0,0.0,0.0,0.0,0.0,0.0,0.0,0.0,0.0,0.0,0.0,0.0,0.0,0.0,0.0,0.0,0.0,0.0,0.0,0.0,0.0,0.0,0.0,0.0,0.0,0.0,0.0,0.0,0.0,0.0,0.0,0.0,0.0,0.0,0.0,0.0,0.0,0.0,0.0,0.0,0.0,0.0,0.0,0.0,0.0,0.0,0.0,0.0,0.0,0.0,0.0,0.0,0.0,0.0,0.0,0.0,0.0,0.0,0.0,0.0,0.0,0.0,0.0,0.0,0.0,0.0,0.0,0.0,0.0,0.0,0.0,0.0,0.0,0.0,4.0844,4.5345,5.063,5.2094,5.2374,5.1632,4.7769,4.3515,3.9138,3.4079,0.0,0.0,0.0,0.0,0.0,0.0,0.0,0.0,0.0,0.0,0.0,0.0,0.0,0.0,0.0,0.0,0.0,0.0,0.0,0.0,0.0,0.0,0.0,0.0,0.0,0.0,0.0,0.0,0.0,0.0,0.0,0.0,0.0,0.0,0.0,0.0,0.0,0.0,0.0,0.0,0.0,0.0,0.0,0.0,0.0,0.0,0.0,0.0,0.0,0.0,0.0,0.0,0.0,0.0,0.0,0.0,0.0,0.0,0.0,0.0,0.0,0.0,0.0,0.0,0.0,0.0,0.0,0.0,0.0,0.0,0.0,0.0,0.0,0.0,0.0,0.0,0.0,0.0,0.0,0.0,0.0,0.0,0.0,0.0,0.0,0.0,0.0,0.0,0.0,0.0,0.0,0.0,0.0,0.0,0.0,0.0,0.0,0.0,0.0,0.0,0.0,0.0,3.9046,4.321,0.0,4.9855,5.0153,5.0455,4.7072,4.3116,3.8803,0.0,0.0,0.0,0.0,0.0,0.0,0.0,0.0,0.0,0.0,0.0,0.0,0.0,0.0,0.0,0.0,0.0,0.0,0.0,0.0,0.0,0.0,0.0,0.0,0.0,0.0,0.0,0.0,0.0,0.0,0.0,0.0,0.0,0.0,0.0,0.0,0.0,0.0,0.0,0.0,0.0,0.0,0.0,0.0,0.0,0.0,0.0,0.0,0.0,0.0,0.0,0.0,0.0,0.0,0.0,0.0,0.0,0.0,0.0,0.0,0.0,0.0,0.0,0.0,0.0,0.0,0.0,0.0,0.0,0.0,0.0,0.0,0.0,0.0,0.0,0.0,0.0,0.0,0.0,0.0,0.0,0.0,0.0,0.0,0.0,0.0,0.0,0.0,0.0,0.0,0.0,0.0,0.0,0.0,0.0,0.0,0.0,0.0,0.0,0.0,0.0,0.0,3.474,3.7981,4.1911,0.0,4.7937,4.8263,4.8691,4.5102,4.1232,3.7497,0.0,0.0,0.0,0.0,0.0,0.0,0.0,0.0,0.0,0.0,0.0,0.0,0.0,0.0,0.0,0.0,0.0,0.0,0.0,0.0,0.0,0.0,0.0,0.0,0.0,0.0,0.0,0.0,0.0,0.0,0.0,0.0,0.0,0.0,0.0,0.0,0.0,0.0,0.0,0.0,0.0,0.0,0.0,0.0,0.0,0.0,0.0,0.0,0.0,0.0,0.0,0.0,0.0,0.0,0.0,0.0,0.0,0.0,0.0,0.0,0.0,0.0,0.0,0.0,0.0,0.0,0.0,0.0,0.0,0.0,0.0,0.0,0.0,0.0,0.0,0.0,0.0,0.0,0.0,0.0,0.0,0.0,0.0,0.0,0.0,0.0,0.0,0.0,0.0,0.0,0.0,0.0,0.0,0.0,0.0,0.0,0.0,0.0,0.0,0.0,0.0,0.0,3.4076,3.8133,4.2054,4.5439,4.6614,4.6823,4.6041,4.1315,3.7313,0.0,0.0,0.0,0.0,0.0,0.0,0.0,0.0,0.0,0.0,0.0,0.0,0.0,0.0,0.0,0.0,0.0,0.0,0.0,0.0,0.0,0.0,0.0,0.0,0.0,0.0,0.0,0.0,0.0,0.0,0.0,0.0,0.0,0.0,0.0,0.0,0.0,0.0,0.0,0.0,0.0,0.0,0.0,0.0,0.0,0.0,0.0,0.0,0.0,0.0,0.0,0.0,0.0,0.0,0.0,0.0,0.0,0.0,0.0,0.0,0.0,0.0,0.0,0.0,0.0,0.0,0.0,0.0,0.0,0.0,0.0,0.0,0.0,0.0,0.0,0.0,0.0,0.0,0.0,0.0,0.0,0.0,0.0,0.0,0.0,0.0,0.0,0.0,0.0,0.0,0.0,0.0,0.0,0.0,0.0,0.0,0.0,0.0,0.0,0.0,0.0,0.0,0.0,3.4756,3.7414,4.0499,4.4535,4.4652,4.438,4.419,4.058,3.698,3.3818,0.0,0.0,0.0,0.0,0.0,0.0,0.0,0.0,0.0,0.0,0.0,0.0,0.0,0.0,0.0,0.0,0.0,0.0,0.0,0.0,0.0,0.0,0.0,0.0,0.0,0.0,0.0,0.0,0.0,0.0,0.0,0.0,0.0,0.0,0.0,0.0,0.0,0.0,0.0,0.0,0.0,0.0,0.0,0.0,0.0,0.0,0.0,0.0,0.0,0.0,0.0,0.0,0.0,0.0,0.0,0.0,0.0,0.0,0.0,0.0,0.0,0.0,0.0,0.0,0.0,0.0,0.0,0.0,0.0,0.0,0.0,0.0,0.0,0.0,0.0,0.0,0.0,0.0,0.0,0.0,0.0,0.0,0.0,0.0,0.0,0.0,0.0,0.0,0.0,0.0,0.0,0.0,0.0,0.0,0.0,0.0,0.0,0.0,0.0,0.0,0.0,0.0,3.4625,3.6877,3.9547,4.3149,4.3376,4.3144,4.2862,3.9712,3.658,3.386,0.0,0.0,0.0,0.0,0.0,0.0,0.0,0.0,0.0,0.0,0.0,0.0,0.0,0.0,0.0,0.0,0.0,0.0,0.0,0.0,0.0,0.0,0.0,0.0,0.0,0.0,0.0,0.0,0.0,0.0,0.0,0.0,0.0,0.0,0.0,0.0,0.0,0.0,0.0,0.0,0.0,0.0,0.0,0.0,0.0,0.0,0.0,0.0,0.0,0.0,0.0,0.0,0.0,0.0,0.0,0.0,0.0,0.0,0.0,0.0,0.0,0.0,0.0,0.0,0.0,0.0,0.0,0.0,0.0,0.0,0.0,0.0,0.0,0.0,0.0,0.0,0.0,0.0,0.0,0.0,0.0,0.0,0.0,0.0,0.0,0.0,0.0,0.0,0.0,0.0,0.0,0.0,0.0,0.0,0.0,0.0,0.0,0.0,0.0,0.0,0.0,0.0,3.3959,3.6318,3.8755,4.1379,4.2302,4.24,4.1582,3.8536,3.5905,3.4145,0.0,0.0,0.0,0.0,0.0,0.0,0.0,0.0,0.0,0.0,0.0,0.0,0.0,0.0,0.0,0.0,0.0,0.0,0.0,0.0,0.0,0.0,0.0,0.0,0.0,0.0,0.0,0.0,0.0,0.0,0.0,0.0,0.0,0.0,0.0,0.0,0.0,0.0,0.0,0.0,0.0,0.0,0.0,0.0,0.0,0.0,0.0,0.0,0.0,0.0,0.0,0.0,0.0,0.0,0.0,0.0,0.0,0.0,0.0,0.0,2.6994,0.0,0.0,0.0,0.0,0.0,0.0,0.0,0.0,0.0,0.0,0.0,0.0,0.0,0.0,0.0,0.0,0.0,0.0,0.0,0.0,0.0,0.0,0.0,0.0,0.0,0.0,0.0,0.0,0.0,0.0,0.0,0.0,0.0,0.0,0.0,0.0,0.0,0.0,0.0,0.0,0.0,3.3807,3.4744,3.6331,3.9511,3.945,3.8833,3.7977,3.6034,3.384,3.1469,2.9889,0.0,0.0,0.0,0.0,0.0,0.0,0.0,0.0,0.0,0.0,0.0,0.0,0.0,0.0,0.0,0.0,0.0,0.0,0.0,0.0,0.0,0.0,0.0,0.0,0.0,0.0,0.0,0.0,0.0,0.0,0.0,0.0,0.0,0.0,0.0,0.0,0.0,0.0,0.0,0.0,0.0,0.0,0.0,0.0,0.0,0.0,0.0,0.0,0.0,0.0,0.0,0.0,0.0,0.0,0.0,0.0,0.0,0.0,0.0,0.0,2.896,0.0,0.0,0.0,0.0,0.0,0.0,0.0,0.0,0.0,0.0,0.0,0.0,0.0,0.0,0.0,0.0,0.0,0.0,0.0,0.0,0.0,0.0,0.0,0.0,0.0,0.0,0.0,0.0,0.0,0.0,0.0,0.0,0.0,0.0,0.0,0.0,0.0,0.0,0.0,0.0,3.3814,3.4225,3.5386,3.8351,3.8329,3.7751,3.6865,3.5257,3.355,3.1801,3.0163,0.0,0.0,0.0,0.0,0.0,0.0,0.0,0.0,0.0,0.0,0.0,0.0,0.0,0.0,0.0,0.0,0.0,0.0,0.0,0.0,0.0,0.0,0.0,0.0,0.0,0.0,0.0,0.0,0.0,0.0,0.0,0.0,0.0,0.0,0.0,0.0,0.0,0.0,0.0,0.0,0.0,0.0,0.0,0.0,0.0,0.0,0.0,0.0,0.0,0.0,0.0,0.0,0.0,3.6422,3.7159,3.7518,3.7641,3.7783,3.7793,3.6107,3.4165,3.2167,3.1419,0.0,0.0,0.0,0.0,0.0,0.0,0.0,0.0,0.0,0.0,0.0,0.0,0.0,0.0,0.0,0.0,0.0,0.0,0.0,0.0,0.0,0.0,0.0,0.0,3.6351,3.5787,3.1787,0.0,0.0,0.0,0.0,0.0,0.0,0.0,0.0,0.0,0.0,0.0,3.3667,3.3975,3.4891,3.7315,3.762,3.7294,3.6427,3.5085,3.3843,3.2841,3.0797,2.9593,0.0,0.0,0.0,0.0,0.0,0.0,0.0,0.0,0.0,0.0,0.0,0.0,0.0,0.0,0.0,0.0,0.0,0.0,0.0,0.0,0.0,0.0,0.0,0.0,0.0,0.0,0.0,0.0,0.0,0.0,0.0,0.0,2.86,2.9129,0.0,0.0,0.0,0.0,0.0,0.0,0.0,0.0,0.0,0.0,0.0,0.0,0.0,3.5816,3.7189,4.0276,4.1188,3.9946,4.2374,4.283,4.1584,4.3007,4.4014,4.4607,4.416,0.0,3.427,3.2858,0.0,0.0,0.0,0.0,0.0,0.0,0.0,0.0,0.0,0.0,0.0,0.0,0.0,0.0,0.0,0.0,0.0,0.0,0.0,0.0,0.0,0.0,3.6818,3.6339,3.632,3.6224,0.0,3.4228,3.29,3.2015,3.0891,0.0,0.0,0.0,0.0,0.0,0.0,0.0,3.2833,3.3064,3.3776,3.5635,3.5834,3.5494,3.4616,3.4334,3.3545,3.1961,3.1557,3.1035,3.0285,3.0139,0.0,0.0,0.0,0.0,0.0,0.0,0.0,0.0,0.0,0.0,0.0,0.0,0.0,0.0,0.0,0.0,0.0,0.0,0.0,0.0,0.0,0.0,0.0,0.0,0.0,0.0,0.0,0.0,0.0,2.8678,3.0161,2.9275,3.0272,3.0496,0.0,0.0,0.0,0.0,0.0,0.0,0.0,0.0,0.0,3.6803,3.773,3.851,3.9175,4.158,4.2692,4.246,4.4085,4.4931,4.508,4.5816,4.656,4.7298,4.7198,4.4844,4.0889,3.8245,3.6185,3.4497,0.0,0.0,0.0,0.0,3.3994,3.4441,3.5375,3.5401,3.5043,3.5249,0.0,0.0,0.0,0.0,0.0,0.0,0.0,0.0,0.0,0.0,3.8998,3.9533,4.001,4.0228,3.9766,3.8268,3.6278,0.0,3.351,3.2966,3.0877,0.0,0.0,0.0,0.0,3.1329,3.2522,3.363,3.4607,3.5357,3.5486,3.5154,3.4263,3.3744,3.2968,3.1775,3.1698,3.132,3.0446,3.0406,3.0403,0.0,0.0,0.0,0.0,0.0,0.0,0.0,0.0,0.0,0.0,0.0,0.0,0.0,0.0,0.0,0.0,0.0,0.0,0.0,0.0,0.0,0.0,0.0,0.0,0.0,0.0,0.0,0.0,3.0506,3.2066,3.0295,3.2352,3.2906,0.0,0.0,0.0,0.0,0.0,0.0,3.7291,3.7811,3.8742,4.0298,4.1004,4.1442,4.1591,4.3126,4.4124,4.4515,4.4987,4.581,4.6908,4.7125,4.7692,4.8434,4.8592,4.79,4.6354,4.2747,3.9987,3.7893,3.6702,3.625,3.6302,3.6699,3.6801,3.6898,3.7923,3.7984,3.7476,3.6951,3.6509,3.5795,3.3794,0.0,0.0,0.0,0.0,3.6655,3.8703,3.982,4.0789,4.22,4.3005,4.3298,4.2711,4.148,3.9427,0.0,3.5738,3.5231,3.1999,0.0,0.0,0.0,0.0,3.1803,3.2609,3.3988,3.4998,3.5266,3.5369,3.5156,3.457,3.3712,3.2872,3.2064,3.1814,3.1308,3.0442,3.0408,3.04,3.04,0.0,0.0,0.0,0.0,0.0,0.0,0.0,0.0,0.0,0.0,0.0,0.0,0.0,0.0,0.0,0.0,0.0,0.0,0.0,0.0,0.0,0.0,0.0,0.0,0.0,0.0,0.0,0.0,0.0,3.3389,3.6072,0.0,0.0,0.0,0.0,3.3784,3.5453,3.7021,3.8259,3.9732,4.1248,4.2878,4.4468,4.5673,4.6438,4.7291,4.7387,4.6716,4.6249,4.6062,4.6103,4.6989,4.7784,4.8535,4.9156,4.8986,4.797,4.4109,4.1613,4.0007,3.7736,3.6877,3.6864,3.6139,3.7092,3.8672,3.799,3.8016,3.8713,4.0934,4.0607,3.9205,3.8312,3.7546,0.0,0.0,3.815,3.9569,4.0461,4.13,4.212,4.2941,4.3286,4.3394,4.3357,4.2713,4.1222,0.0,3.613,3.4613,3.315,0.0,3.2691,3.208,3.2034,3.2364,3.3241,3.3439,3.3895,3.4912,3.5069,3.5187,3.534,3.4602,3.3763,3.2891,3.2122,3.1308,3.0442,3.0404,3.0404,3.0404,3.041,0.0,0.0,0.0,0.0,0.0,0.0,0.0,0.0,0.0,0.0,0.0,0.0,0.0,0.0,0.0,0.0,0.0,0.0,0.0,0.0,0.0,0.0,0.0,0.0,0.0,0.0,0.0,0.0,3.6003,3.9078,0.0,3.6339,3.6531,3.7078,3.7525,3.9104,4.1145,4.3615,4.4256,4.5269,4.6855,4.6224,4.5993,4.6278,4.577,4.5365,4.5099,4.4891,4.5048,4.5503,4.6321,4.7094,4.7821,4.8056,4.7749,4.6885,4.5035,4.3906,4.315,4.1788,4.0986,4.0573,4.0288,4.0327,4.0554,4.0329,4.0379,4.0503,4.0365,3.9239,3.7935,3.7951,3.8111,3.8469,3.9286,4.03,4.1337,4.2139,4.2558,4.2832,4.3142,4.3233,4.3141,4.2611,4.2299,4.1458,3.9282,3.8062,3.6717,3.4639,3.3873,3.3265,3.2524,3.2575,3.2787,3.3097,3.3748,3.4326,3.4688,3.4302,3.4099,3.4279,3.3559,3.2809,3.2115,3.1789,3.1232,3.0362,3.0349,3.0342,3.0342,3.0373,3.0404,0.0,0.0,0.0,0.0,0.0,0.0,0.0,0.0,0.0,0.0,0.0,0.0,0.0,0.0,0.0,0.0,0.0,0.0,0.0,0.0,0.0,0.0,0.0,0.0,0.0,0.0,4.0129,3.8172,4.1679,4.2748,3.8888,3.9545,4.0404,4.09,4.2475,4.4407,4.6646,4.7005,4.7495,4.8288,4.6758,4.5826,4.5556,4.4742,4.4186,4.3923,4.4423,4.4803,4.5053,4.6132,4.6748,4.6999,4.7264,4.6977,4.6223,4.55,4.5139,4.4863,4.3577,4.2676,4.2033,4.1773,4.1505,4.1298,4.1561,4.1626,4.1472,4.0437,3.9376,3.8569,3.8903,3.9355,3.995,4.0811,4.1427,4.2006,4.2662,4.2864,4.2901,4.3068,4.3123,4.3014,4.2486,4.1957,4.1282,4.0206,3.9449,3.8318,3.6153,3.5329,3.472,3.3959,3.3749,3.366,3.366,3.4064,3.4256,3.4067,3.3579,3.326,3.321,3.2767,3.2186,3.1435,3.1529,3.1173,3.0245,3.0267,3.0304,3.0304,3.063,3.0803,3.081,0.0,0.0,0.0,0.0,0.0,0.0,0.0,0.0,0.0,0.0,0.0,0.0,0.0,0.0,0.0,0.0,0.0,0.0,0.0,0.0,0.0,0.0,0.0,3.5155,3.9727,4.2339,4.0095,4.3954,4.5328,4.1636,4.2943,4.3939,4.3721,4.5417,4.6597,4.6923,4.7603,4.7686,4.6958,4.6245,4.55,4.4771,4.4754,4.439,4.3648,4.5119,4.5417,4.4801,4.6417,4.6762,4.6143,4.6951,4.6926,4.619,4.5453,4.5135,4.4884,4.2775,4.1567,4.0935,4.0204,4.0288,4.0849,4.1281,4.1459,4.1459,4.1459,4.1459,4.1459,4.1459,4.1481,4.1481,4.1503,4.1503,4.1591,4.2074,4.2177,4.2279,4.275,4.2956,4.3049,4.3031,4.185,4.081,4.079,4.0134,3.911,3.7601,3.7323,3.7079,3.6435,3.5573,0.0,3.5004,3.427,3.3582,3.3103,3.3018,3.279,3.226,3.2386,3.2039,3.1032,3.1322,3.1073,3.003,3.0182,3.0292,3.0336,3.1156,3.1616,3.164,0.0,0.0,0.0,0.0,0.0,0.0,0.0,0.0,0.0,0.0,0.0,0.0,0.0,0.0,0.0,0.0,0.0,0.0,0.0,0.0,0.0,3.7381,3.9242,3.8601,4.2155,4.4826,4.4777,4.6937,4.7607,4.549,4.6255,4.6624,4.6061,4.697,4.7616,4.7686,4.7885,4.8018,4.808,4.7622,4.6911,4.5863,4.6152,4.5649,4.4406,4.5334,4.5682,4.55,4.5976,4.609,4.5875,4.5573,4.5338,4.5089,4.4328,4.3713,4.3211,4.2841,4.2266,4.1573,4.0819,4.0381,4.0171,4.0303,4.041,4.0466,4.0466,4.0466,4.0538,4.0879,4.0995,4.1065,4.1393,4.1503,4.1525,4.1656,4.1678,4.1721,4.1849,4.1909,4.1872,4.1624,4.1236,4.0866,4.0619,3.9964,3.9179,3.8253,3.7612,3.7171,3.7061,3.5835,0.0,3.499,3.3793,3.3319,3.4341,3.341,3.2705,3.2721,3.223,3.1359,3.0058,3.0091,3.0023,2.9725,2.9809,3.0235,3.1008,3.1256,3.1747,0.0,0.0,0.0,0.0,0.0,0.0,0.0,0.0,0.0,0.0,0.0,0.0,0.0,0.0,0.0,0.0,0.0,0.0,0.0,0.0,0.0,0.0,4.07,4.2877,4.3318,4.5152,4.6544,4.677,4.7883,4.8297,4.742,4.7605,4.7556,4.7144,4.7374,4.7554,4.7554,4.78,4.7911,4.7785,4.791,4.7484,4.653,4.6732,4.6274,4.5142,4.588,4.6174,4.6023,4.632,4.6399,4.6228,4.5798,4.5251,4.4655,4.4241,4.3645,0.0,0.0,0.0,0.0,0.0,4.0115,3.9824,3.9824,3.9858,3.9918,3.9918,3.9918,3.9969,4.0254,4.0385,4.0483,4.0761,4.0861,4.0955,4.1162,4.1208,4.1253,4.1459,4.1503,4.1446,4.1262,4.0928,4.0656,4.0451,3.9963,0.0,3.8614,3.8023,3.7567,3.7299,3.6182,3.5246,3.4956,3.3822,3.3254,3.3845,3.2805,3.1966,3.1746,3.1425,0.0,0.0,0.0,3.0143,3.0152,3.0518,0.0,0.0,0.0,3.2424,3.3012,0.0,0.0,0.0,3.3271,3.3452,0.0,0.0,0.0,0.0,0.0,0.0,0.0,0.0,0.0,0.0,0.0,0.0,0.0,0.0,0.0,0.0,4.4002,4.6445,4.8194,4.8245,4.7872,4.7172,4.7654,4.8018,4.7869,4.7555,4.7337,4.7337,4.7082,4.6876,4.6876,0.0,0.0,0.0,0.0,4.7726,4.6848,4.6931,4.6512,4.5622,4.6332,4.6504,4.6157,4.6727,4.6863,4.6601,4.6518,4.5695,4.4457,4.4457,4.396,4.3129,4.1865,4.1078,4.049,3.9883,3.9651,3.9677,3.9677,0.0,0.0,3.9703,3.9703,3.9703,3.9703,3.9781,3.9875,3.9875,3.9961,4.0146,4.058,4.0683,4.0784,4.123,4.1326,4.1326,4.141,4.0845,4.0372,4.0433,4.012,3.9638,3.8907,3.8599,3.8178,3.7439,3.6635,3.5848,3.5042,3.4225,3.3459,3.2753,0.0,0.0,3.0417,3.0478,3.012,2.917,3.0254,3.0947,3.0929,3.1641,3.2064,3.2207,3.2902,3.3314,3.3446,3.414,3.4508,3.4489,3.4008,3.3787,0.0,0.0,0.0,0.0,0.0,0.0,0.0,0.0,0.0,0.0,0.0,0.0,0.0,0.0,0.0,4.399,4.6728,4.8729,4.9674,4.9984,4.9664,4.8342,4.8326,4.8076,4.7181,4.7048,4.6979,4.6979,4.6945,4.6876,4.6876,4.7521,4.7961,4.8102,4.9139,4.8897,4.7233,4.762,4.6929,4.5056,0.0,0.0,4.5236,4.4795,4.4666,4.4783,4.4177,4.3532,4.292,4.292,4.2173,4.1029,4.1309,4.1022,4.0337,3.9634,3.9458,3.9537,3.9537,3.9616,3.9703,3.9703,3.9703,3.9703,3.9703,3.9729,0.0,3.9729,3.9755,3.9807,3.9893,3.9901,3.9952,4.0154,4.0204,4.0336,4.0832,4.0822,4.0816,4.1205,4.0699,4.0162,4.0,3.9527,3.8948,3.8198,3.7412,3.6609,3.5866,3.5064,3.4517,3.4349,3.3049,3.2119,3.1973,3.0813,3.0021,2.9813,3.0662,3.1176,3.1219,3.1366,3.1886,3.281,3.2977,3.3459,3.4282,3.4414,3.4508,3.4508,3.4402,3.4348,0.0,0.0,0.0,0.0,0.0,0.0,0.0,0.0,0.0,0.0,0.0,3.7262,0.0,0.0,4.4226,4.73,4.8995,5.0159,5.09,5.0956,5.0301,4.868,4.8329,4.7853,4.6972,4.7043,4.7025,4.6671,4.6768,4.6577,4.5923,4.6829,4.7306,4.7169,4.8365,4.8529,4.7621,4.7208,4.647,4.5384,4.4747,4.4562,4.4756,4.4378,4.4371,4.4627,4.4267,4.3584,4.2702,4.198,4.1269,4.0642,4.0357,4.0074,3.9812,3.9448,3.9325,3.9405,3.9405,3.9432,3.9494,3.9494,3.9494,3.9494,3.9494,3.9563,3.9616,3.9616,3.9651,3.9703,3.9703,3.9703,3.9729,3.9781,3.9781,3.9867,4.0162,4.0237,4.0336,4.0642,4.0568,4.033,4.0011,3.9597,3.899,3.8043,3.7401,3.664,3.5454,3.4963,3.44,3.3578,3.2825,3.2019,3.1219,3.0438,3.0159,3.0578,3.1349,3.1818,3.184,3.2237,3.2719,3.3292,3.3305,3.3554,3.4043,3.4043,3.4043,3.4043,3.4043,3.416,0.0,0.0,0.0,0.0,0.0,0.0,0.0,0.0,3.4345,3.6341,3.8946,4.1477,4.3317,4.5501,4.7715,4.9938,5.0648,5.1017,5.1406,5.1081,5.0182,4.8492,4.8139,4.7677,4.6786,4.6945,4.6859,4.6321,4.6462,4.6167,4.5111,4.6174,4.6622,4.6113,4.7281,4.7843,4.7722,4.652,4.5772,4.55,4.4308,4.3823,4.4021,4.4021,4.4197,4.4478,4.4291,4.3565,4.2469,4.1079,4.0483,4.0401,3.9413,3.9035,3.8996,3.8964,3.8942,3.8942,3.9067,3.9121,3.9121,3.9272,3.9299,3.9299,3.9299,3.9395,3.9475,3.9475,3.9537,3.9625,3.9625,3.9625,3.9625,3.9651,3.9651,3.9677,3.9703,3.9703,3.9729,3.9849,4.0162,4.026,3.9709,3.9391,3.8839,3.7761,3.7256,3.6402,3.4801,3.4603,3.4006,3.2477,3.2227,3.1614,3.0231,3.0301,3.0704,3.1346,3.2147,3.2602,3.2616,3.3231,3.3591,3.3605,3.3605,3.3605,3.3605,3.3605,3.3605,3.3605,3.3605,3.3853,2.9869,2.9597,3.0209,3.2893,3.297,3.4027,0.0,0.0,4.1133,4.2373,4.4368,4.586,4.5701,4.7382,4.9209,5.0446,5.1224,5.1352,5.0406,4.9939,4.9173,4.7758,4.8091,4.7794,4.6081,4.594,4.5945,4.5844,4.5865,4.5834,4.5713,4.6472,4.6837,4.6796,4.7524,4.7615,4.7023,4.6286,4.5293,4.4106,4.3436,4.2836,4.2351,4.2351,4.2514,4.2629,4.1685,4.1184,4.0946,3.9609,3.9047,3.9013,3.8895,3.8479,3.7947,3.7694,3.7605,3.7693,3.8238,3.8407,3.8507,3.9121,3.9299,3.9299,3.9299,3.9299,3.9325,3.9325,3.9325,3.9352,3.9352,3.9352,3.9379,3.9484,3.9528,3.9537,3.9677,3.9703,3.9703,3.9729,3.9764,3.9773,3.9715,3.9423,3.8906,3.8067,3.7349,3.6349,3.4798,3.4586,3.4129,3.2864,3.2107,3.1461,3.093,3.1537,3.1991,3.2081,3.2842,3.3325,3.3364,3.3469,3.3534,3.3605,3.3605,3.3605,3.3605,3.3605,3.3605,3.3605,3.3605,3.4016,3.2939,3.2657,3.2977,3.4976,3.6418,3.8362,4.2181,4.3389,4.4142,4.5917,4.7242,4.829,4.8945,4.9604,5.0178,0.0,5.059,5.0135,4.9271,4.8515,4.7548,4.6206,4.6295,4.6314,4.5885,4.6218,4.6286,4.5883,4.6221,4.612,4.5321,4.5928,4.6135,4.5735,4.6386,4.6593,4.6327,4.5286,4.4511,4.3926,4.2944,4.2339,4.2092,4.2092,4.2133,4.217,4.0923,4.0393,4.029,3.899,3.8436,3.8419,3.8172,3.7655,3.7153,3.7514,3.7385,3.71,3.7456,3.7851,3.8303,3.9079,3.9342,3.9381,3.9812,3.9647,3.9299,3.9299,3.9299,3.9299,3.9299,3.9299,3.9299,3.9379,3.9379,3.9405,3.9458,3.9484,3.9484,3.9563,3.959,3.9616,3.9677,3.9219,3.8606,3.7809,3.7559,3.6748,3.4845,3.4599,3.4057,3.2662,3.1373,3.1005,3.1963,3.1921,3.2154,3.2853,3.3212,3.3408,3.3437,3.3437,3.3452,3.3495,3.3495,3.3698,3.4171,3.4171,3.4171,3.4171,3.4171,3.4606,3.443,3.4803,3.5745,3.7368,3.9787,4.2227,4.3927,4.5219,4.652,4.813,4.8945,4.9623,5.0398,5.0309,5.0132,5.0105,4.9466,4.8746,4.8164,4.727,4.6277,4.5084,4.4672,4.4689,4.5325,4.5988,4.6157,4.5665,4.6222,4.6174,4.5258,4.5654,4.5698,4.5199,4.5634,4.588,4.588,4.4792,4.4153,4.3979,4.2876,4.2252,4.2092,4.2092,4.199,4.1758,4.08,4.0263,4.0017,3.8928,3.8478,3.842,3.7892,3.7324,3.6825,3.7234,3.6917,3.6322,3.6661,3.7086,3.7623,3.8427,3.8658,3.8716,3.9254,3.9198,3.8969,3.8969,3.9121,3.9299,3.9299,3.9299,3.9299,3.9299,3.9299,3.9299,3.9299,3.9299,3.9325,3.9448,3.9432,3.9484,3.9573,3.9139,3.8488,3.7585,3.758,3.6805,3.4495,3.3916,3.3295,3.2214,3.1148,3.1087,3.2545,3.2135,3.2206,3.3172,3.3223,3.3286,3.3411,3.3393,3.3393,3.3393,3.3628,3.4027,3.4606,3.4824,3.4824,3.4624,3.4842,3.5243,3.3081,3.5098,3.7902,4.0739,4.3032,4.5149,4.7338,4.8431,4.8995,4.9061,4.9674,4.9819,4.8767,4.867,4.87,4.8576,4.808,4.7502,4.703,4.6365,4.5677,4.4982,4.3804,4.3325,0.0,4.4589,4.4937,4.4908,4.5548,4.5896,4.5851,4.5896,4.5896,4.5851,4.588,4.588,4.588,4.5213,4.456,4.3979,4.3297,4.2658,4.2092,4.2092,4.1744,4.1134,4.1091,4.0699,4.0046,3.9421,3.9175,3.9102,3.8434,3.781,3.7186,3.659,3.5751,3.5052,3.5705,3.5944,3.6055,3.6692,3.6873,3.6873,3.6889,3.7485,3.8153,3.8153,3.8689,3.9299,3.9299,3.9299,3.9299,3.9299,3.9299,3.9299,3.9299,3.9299,3.9299,3.9299,3.9299,3.9299,3.9299,3.9282,3.8837,3.7511,3.7328,3.6317,3.3505,3.2184,3.1524,3.162,3.1862,3.2109,3.2299,3.2282,3.2434,3.2795,3.2829,3.2988,3.3378,3.3393,3.3393,3.3393,3.4172,3.4588,3.4606,3.5369,3.5351,3.4609,3.5388,3.5768,3.5775,3.8207,4.0718,4.3654,4.6011,4.7934,4.9193,5.0021,5.0236,4.9022,4.7929,4.7019,4.6433,4.5412,4.4809,4.5218,4.5627,4.5798,4.5595,4.5361,4.4675,4.3223,4.3007,0.0,0.0,0.0,0.0,4.4821,4.5097,4.5416,4.5866,4.588,4.588,4.588,4.588,4.5677,4.5227,4.4995,4.4356,4.3326,4.2702,4.2295,4.2092,4.2092,4.1729,4.1091,4.1091,4.0495,3.9494,3.9276,3.8942,3.8507,3.8289,3.7839,3.7288,3.7056,3.6488,3.5755,3.5263,3.5681,3.6421,3.6824,3.6878,3.6969,3.792,3.8074,3.7975,3.8401,3.8987,3.9401,3.895,3.9272,3.9583,3.9073,3.9121,3.9299,3.9299,3.9299,3.9299,3.9299,3.9299,3.9299,3.9299,3.9299,3.8801,3.7385,3.6071,3.472,3.3277,3.2337,3.1635,3.1168,3.1237,3.1414,3.1678,3.1715,3.1861,3.2248,3.2316,3.2401,3.2535,3.2619,3.2901,3.3382,3.3665,3.4321,3.5332,3.5598,3.5723,3.5731,3.6018,3.6143,3.8529,4.0639,4.2557,4.5783,4.7472,4.857,4.9336,4.9291,4.8722,4.7343,4.5454,4.3978,4.3619,4.2093,4.1301,4.2575,4.3046,4.3566,4.4458,4.456,4.4197,4.321,4.3036,4.2586,0.0,0.0,0.0,4.4487,4.498,4.543,4.5866,4.588,4.588,4.588,4.588,4.5677,4.5242,4.501,4.4255,4.2977,4.2382,4.2092,4.2092,4.1845,4.1381,4.0742,4.0742,4.0162,3.9204,3.9204,3.8942,3.8536,3.8289,3.797,3.7607,3.7389,3.7317,3.7128,3.5758,3.581,3.6529,3.6683,3.6682,3.6797,3.7697,3.7849,3.7768,3.8165,3.8743,3.9172,3.8747,3.9218,3.9622,3.8893,3.9042,3.927,3.9024,3.8975,3.9002,3.9094,3.9121,3.9164,3.9272,3.9083,3.8576,3.7649,3.6214,3.4778,3.3501,3.2722,3.1992,3.1299,3.1215,3.1221,3.1218,3.122,3.1376,3.1751,3.2067,3.2314,3.2458,3.2773,3.3193,3.3719,3.3999,3.4666,3.5703,3.6003,3.6119,3.6077,3.6379,3.6219,4.0945,4.227,4.3532,4.703,4.7476,4.7286,4.7887,4.6526,4.4888,4.4136,4.2335,4.0763,0.0,0.0,3.84,4.0546,4.0534,4.1091,4.3674,4.4066,4.4269,0.0,0.0,0.0,0.0,0.0,0.0,4.3907,0.0,4.5851,4.5835,4.5835,4.5835,4.5835,4.5835,4.5821,4.5792,4.5096,4.4168,4.2993,4.2355,4.2009,4.198,4.1273,4.0607,4.001,4.0064,3.9702,3.916,3.9189,3.9175,3.9088,3.8492,3.826,3.8188,3.7607,3.8159,3.8928,3.7056,3.6402,3.6402,3.633,3.6301,3.6315,3.6344,3.6866,3.7492,3.7522,3.8114,3.8707,3.8676,3.9125,3.9421,3.8694,3.8955,3.913,3.8452,3.8335,3.8432,3.8694,3.8777,3.8887,3.9218,3.8649,3.8186,3.8186,3.7582,3.6307,3.4137,3.3265,3.2558,3.1919,3.1836,3.1616,3.1039,3.0989,3.1136,3.144,3.2142,3.2691,3.3074,3.3696,3.4135,3.4283,3.5053,3.5512,3.5679,3.6451,3.6435,3.5735,3.649,3.6034,4.1314,4.3388,4.5346,4.6335,4.6893,4.6973,4.615,4.4778,4.3165,4.1168,3.8899,3.6822,3.5404,3.5633,3.652,3.8011,4.0149,0.0,4.4371,4.5082,0.0,4.4313,0.0,4.3965,4.2855,4.3443,0.0,0.0,4.4207,4.4819,4.5293,4.4954,4.4783,4.4783,4.4783,4.4542,4.4061,4.3338,4.3041,4.3126,4.1682,4.0972,4.0944,3.9675,3.9062,3.9062,3.9171,3.8918,3.8492,3.8986,3.8913,3.8492,3.8826,3.8942,3.8928,3.8783,3.8928,3.9059,3.8072,3.7723,3.7564,3.662,3.6301,3.6402,3.6896,3.7186,3.744,3.7894,3.8483,3.8862,3.8302,3.8769,3.9062,3.7917,3.7951,3.8024,3.7347,3.7501,3.7825,3.7895,3.823,3.86,3.886,3.8323,3.79,3.816,3.7582,3.6506,3.4833,3.4452,3.3862,3.2591,3.2459,3.2414,3.2259,3.2242,3.2285,3.236,3.2641,3.2844,3.2934,3.3153,3.3588,3.4201,3.4443,3.482,3.5384,3.561,3.5752,3.5834,3.6061,3.5652,4.2994,4.4412,4.5593,4.5908,4.5498,4.4549,4.2948,4.1328,3.9412,3.66,3.4476,3.2824,3.187,3.2311,3.363,3.6054,0.0,0.0,4.3703,4.4864,4.5241,0.0,4.4785,0.0,4.2865,4.3322,4.3482,0.0,4.3696,4.4447,4.4787,4.4551,4.4256,4.3885,4.3885,4.3515,4.2751,4.1832,4.154,4.1858,4.0159,3.9355,3.94,3.8092,3.7604,3.7771,0.0,3.7276,3.7092,3.7458,3.7402,3.7106,3.7473,3.7783,3.8077,3.8485,3.8789,3.8971,3.8702,3.8638,3.8478,3.7462,3.7143,3.7201,3.7593,3.7694,3.7767,3.8101,3.8427,3.8598,3.8179,3.8639,3.8856,3.7525,3.7554,3.7586,3.6615,3.6646,3.6905,3.704,3.7399,3.7825,3.8197,3.7915,3.7838,3.8393,3.7847,3.6999,3.5984,3.5578,3.4816,3.3326,3.3176,3.305,3.2735,3.2702,3.2702,3.2702,3.3078,3.3283,3.3283,3.365,3.4062,3.4597,3.4597,3.4821,3.5291,3.5291,3.5412,3.5633,3.5294,3.4943,4.4764,4.5,4.498,4.5422,4.3732,4.1439,3.9407,3.7317,3.4936,3.1872,3.0161,2.9218,2.9218,2.9494,3.0959,3.4666,0.0,3.932,4.2542,4.3965,4.4729,4.4818,4.4823,4.434,4.3067,4.2923,4.262,4.1749,4.3033,4.3912,4.396,4.3912,4.3553,4.2827,4.2827,4.2461,4.17,4.063,4.0106,4.008,3.8339,3.7576,3.7712,3.6447,3.6052,3.6303,3.5642,3.5453,3.5574,3.5574,3.5574,3.5628,3.5669,3.6035,3.6592,3.7449,3.8025,3.8485,3.8781,3.8905,3.8818,3.8353,3.8202,3.8202,3.8202,3.8202,3.8202,3.8202,3.8202,3.8202,3.8202,3.8575,3.8618,3.7331,3.7355,3.7303,3.5991,3.5753,3.5913,3.6275,3.6523,3.6843,3.7338,3.7442,3.7677,3.8423,3.7986,3.7416,3.6967,3.6381,3.5462,3.4087,3.3938,3.3673,3.305,3.2978,3.2978,3.2978,3.3574,3.3938,3.3938,3.4551,3.4947,3.5065,3.5065,3.5111,3.5245,3.5245,3.5245,3.5228,3.4498,3.4141,4.3611,4.4119,4.4661,4.3714,4.2364,4.0626,3.8188,3.5328,0.0,3.0378,2.8521,2.7273,2.7273,2.9028,3.1322,3.4124,3.662,3.932,4.2542,4.3301,4.3446,0.0,4.3443,4.3019,4.1667,4.1568,0.0,0.0,4.0906,4.1269,4.1716,4.1306,4.1006,4.0906,4.0906,4.0805,4.0654,3.9897,3.9564,3.949,3.7442,3.649,3.6451,3.4572,3.4154,3.4856,3.4441,0.0,3.5346,3.5346,3.5453,3.5629,3.6021,3.6332,3.6592,3.6757,3.6894,3.6989,3.7223,3.73,3.7402,3.8005,3.8202,3.8202,3.8202,3.8202,3.8202,3.8202,3.8202,3.8202,3.8202,3.8277,3.8031,3.6749,3.6514,3.6219,3.4932,3.5019,3.5447,3.5913,3.6024,3.6166,3.6538,3.6631,3.6737,3.7084,3.7034,3.6704,3.6041,3.5967,3.5678,3.48,3.47,3.4651,3.4518,3.4518,3.4518,3.4518,3.4634,3.47,3.47,3.4833,3.4923,3.4923,3.4923,3.4947,3.497,3.497,3.497,3.4954,3.4207,3.3858,4.3566,4.3964,4.4269,4.366,4.2034,3.9741,3.6533,0.0,0.0,2.7766,2.6155,2.5386,2.5705,2.7592,2.9929,3.2498,3.4777,3.7277,4.0351,4.0944,4.1249,4.1787,4.2027,4.1654,4.0275,4.0173,3.9992,3.9631,3.9318,3.9648,4.0718,4.0109,3.9763,3.9763,3.9351,3.9144,3.9144,3.8304,3.7841,3.7828,3.5939,3.4959,3.4811,3.3543,3.3148,3.3407,3.323,3.339,3.3771,3.3771,3.3856,3.3953,3.4165,3.4491,3.4878,3.5365,3.5521,3.5608,3.6171,3.6235,3.6162,3.6844,3.7567,3.8202,3.8202,3.8202,3.8202,3.8202,3.8202,3.8202,3.8202,3.8202,3.7883,3.6606,3.5807,3.5154,3.4545,3.4601,3.4854,3.507,3.5136,3.5252,3.5721,3.5785,3.5961,3.6523,3.6275,3.5949,3.5727,3.5478,3.5193,3.4935,3.5205,3.5279,3.4979,3.5276,3.5313,3.4916,3.4899,3.4899,3.4899,3.4899,3.4899,3.4899,3.4899,3.4899,3.4899,3.4899,3.4899,3.4883,3.4137,3.4005,4.3583,4.3979,4.4124,4.3848,4.1816,3.8913,3.5082,3.2004,0.0,2.5589,2.4254,2.392,2.4665,2.6055,2.7993,3.0659,3.2446,3.4505,3.7428,3.8297,3.8973,0.0,4.0512,0.0,3.9065,3.9032,0.0,3.8846,3.8407,3.8664,3.9815,3.9312,3.8961,3.8961,3.8344,3.7986,3.7986,3.694,3.6411,3.6386,3.4751,3.3812,3.3526,3.2992,3.2548,3.2257,3.2313,3.23,3.23,3.23,3.2356,3.2388,3.2356,3.2614,3.3116,3.3846,3.4081,3.4155,3.5099,3.5214,3.5061,3.5602,3.6688,3.7848,3.8014,3.8014,3.7976,3.8052,3.8014,3.7938,3.7938,3.7938,3.7688,3.6635,3.5476,3.4617,3.4617,3.4501,3.4414,3.4414,3.4414,3.4534,3.4953,3.5037,3.5252,3.5897,3.5473,3.5171,3.5401,3.4956,3.4694,3.4842,3.5203,3.5299,3.4979,3.5175,3.5176,3.4865,3.4579,3.4505,3.4669,3.4546,3.4505,3.4554,3.4554,3.4554,3.4554,3.4554,3.4554,3.4537,3.3775,3.3824,4.2898,4.3921,4.4531,4.3369,4.1163,3.8275,3.4462,0.0,2.7376,2.5313,2.3867,2.3351,2.4592,2.5015,2.6186,2.9275,3.0176,3.1526,3.4556,3.6189,3.726,3.7661,0.0,0.0,3.8185,3.855,3.8821,3.8815,3.8767,3.8569,3.8262,3.8133,3.8092,3.8092,3.8039,3.7986,3.7986,3.694,3.6411,3.6386,3.4751,3.3777,3.3319,3.2789,3.2235,3.1749,3.195,3.2038,0.0,3.2038,3.2169,3.24,3.2125,3.2206,3.2462,3.2549,3.2593,3.2711,3.3581,3.3869,3.3998,3.4815,3.5722,3.6624,3.7404,3.7419,3.7173,3.7534,3.738,3.7095,3.7095,3.7095,3.7042,3.6716,3.5964,3.5319,3.5319,3.482,3.4414,3.4414,3.4414,3.4414,3.4481,3.4481,3.4501,3.4568,3.4509,3.4499,3.4514,3.4455,3.4493,3.4707,3.4241,3.4138,3.4675,3.3662,3.3497,3.4635,3.358,3.3238,3.3963,3.3477,3.3224,3.3339,3.3355,3.3355,3.3355,3.3355,3.3355,3.3339,3.2606,3.2653,4.092,4.238,4.3127,4.2352,4.0014,3.713,3.4272,0.0,2.6903,2.5259,2.3612,2.2833,2.4031,2.4295,2.5094,2.7476,2.7903,2.8819,3.1299,3.2252,3.3403,3.535,3.6456,0.0,0.0,0.0,3.8815,3.8815,3.9116,3.8912,3.8034,3.7986,3.7986,3.7986,3.7986,3.7986,3.7986,3.694,3.6411,3.6386,3.5124,3.409,3.3284,3.3068,3.2491,3.1705,3.1793,3.1805,0.0,3.1805,3.1893,3.1981,3.1849,3.1893,3.1981,3.1981,3.1981,3.2025,3.2382,3.2599,3.2772,3.3403,3.394,3.4581,3.6136,3.652,3.652,3.7095,3.7109,3.6978,3.6978,3.6712,3.6374,3.6287,3.5587,3.4923,3.4725,3.4842,3.4946,3.4689,3.5146,3.5546,3.5546,3.5546,3.5546,3.5546,3.5227,3.498,3.498,3.4646,3.4414,3.4515,3.4713,3.4835,3.4743,3.4591,3.4558,3.4701,3.4216,3.4057,3.4366,3.3751,3.3474,3.3626,3.3271,3.3119,3.3182,3.3182,3.3182,3.3182,3.2888,3.2903,3.8171,4.0087,4.1199,4.0661,3.8366,3.5545,0.0,0.0,2.5943,2.4487,2.2939,2.2131,2.3142,2.3175,2.3642,2.5488,2.577,2.6492,2.8662,2.9528,3.0885,3.3305,0.0,3.5545,0.0,3.8359,3.8984,3.8827,3.9308,3.9128,3.8046,3.7986,3.7986,3.7986,3.7986,3.7902,3.7745,3.6855,3.6326,3.6158,3.5256,3.4282,3.3284,3.3284,3.2695,3.1705,3.1705,3.1705,0.0,3.1705,3.1705,3.1705,3.1705,3.1705,3.1705,3.1705,3.1705,3.1705,3.1705,3.1805,3.1981,3.2288,3.2481,3.2945,3.4553,3.5169,3.5454,3.603,3.6243,3.6336,3.6336,3.6228,3.6116,3.6116,3.5606,3.5014,3.4773,3.5031,3.5246,3.4946,3.5461,3.5978,3.6086,3.6122,3.6158,3.6265,3.5923,3.5683,3.5683,3.5256,3.4965,3.4965,3.5303,3.5317,3.4739,3.4727,3.4714,3.4607,3.4256,3.4164,3.4377,3.3596,3.3194,3.3352,3.2761,3.2489,3.2583,3.2583,3.2583,3.2583,3.2583,3.261,3.4731,3.7134,3.8871,3.8183,3.6179,3.3515,3.0369,2.6956,2.4063,2.28,2.1715,2.1202,2.1813,2.1433,2.1604,2.335,2.3866,2.4767,2.6907,2.8887,3.0513,0.0,0.0,3.3921,3.5497,3.8046,3.9381,3.8864,3.9308,0.0,3.8046,3.7986,3.7986,3.7986,3.7986,3.7733,3.7204,3.6675,3.6146,3.5617,3.5088,3.4282,3.3284,3.3284,3.2695,3.1705,3.1705,3.1705,0.0,3.1705,3.1705,3.1705,3.1705,3.1705,3.1705,3.1705,3.1705,3.1705,3.1705,3.1705,3.1705,3.1705,3.1705,3.1837,3.2537,3.3215,3.3827,3.4194,3.4511,3.4716,3.4716,3.5548,3.6391,3.6391,3.6181,3.5975,3.5975,3.5536,3.5101,3.5101,3.5115,3.5249,3.5638,3.5711,3.5856,3.6229,3.6301,3.6301,3.6301,3.6286,3.6286,3.6286,3.5755,3.5131,3.4457,3.3253,3.3064,3.4312,3.3209,3.2885,3.3692,3.2491,3.1879,3.2015,3.1442,3.1102,3.1102,3.1102,3.1102,3.1102,3.1102,3.1176,3.0541,3.2332,3.3461,3.2958,3.1096,2.9059,2.7827,2.5218,2.2844,2.2209,2.1215,2.0744,2.1666,2.1001,2.1259,2.4158,2.4255,2.4767,2.6907,0.0,0.0,3.2066,3.4763,3.6843,0.0,0.0,3.8996,3.8827,3.8972,3.8755,3.8022,3.7986,3.7986,3.7986,3.7986,3.7733,3.7204,3.6675,3.6134,3.5605,3.5088,3.4282,3.3284,3.3284,3.2695,3.1705,3.1705,3.1705,3.1705,3.1705,3.1705,3.1705,3.1705,3.1705,3.1705,3.1705,3.1705,3.1705,3.1705,3.1705,3.1705,3.1705,3.1705,3.1749,3.1969,3.2494,3.3129,3.3742,3.3953,3.4008,3.4008,3.4301,3.4551,3.4551,3.4714,3.484,3.4564,3.5132,3.5657,3.5429,3.5931,3.6441,3.6555,3.658,3.6618,3.6746,3.6653,3.6566,3.6566,3.6396,3.6301,3.6301,3.6127,3.5749,3.516,3.4298,3.3993,3.4385,3.4037,3.3891,3.4161,3.3409,3.3007,3.3152,3.2128,3.1615,3.1706,3.1294,3.1117,3.1117,3.1117,3.1102,2.657,2.8414,2.9512,2.9241,2.7653,0.0,2.5352,2.3385,2.1559,2.1121,2.0348,1.9947,2.0636,2.0133,2.0455,2.2994,2.3349,2.4059,2.6178,0.0,0.0,3.2226,0.0,0.0,0.0,3.8346,3.8731,3.8515,3.8695,3.8575,3.801,3.7986,3.7986,3.7986,3.7986,3.7733,3.7204,3.6675,3.6134,3.5605,3.4823,3.409,3.3284,3.308,3.2503,3.1717,3.1934,3.1985,0.0,3.1985,3.1985,3.1961,3.1789,3.1705,3.1705,3.1705,3.1705,3.1705,3.1705,3.1705,3.1705,3.1705,3.1705,3.1705,3.1705,3.1969,3.2407,3.2828,3.3129,3.3343,3.3343,3.3501,3.3713,3.3713,3.3931,3.4081,3.3807,3.4687,3.5377,3.4901,3.5731,3.6538,3.668,3.674,3.692,3.7288,3.7042,3.6812,3.6812,3.6682,3.6573,3.6573,3.6482,3.6202,3.5552,3.5056,3.4675,3.4428,3.4414,3.4414,3.4414,3.3804,3.342,3.3255,3.222,3.1711,3.1817,3.1438,3.1247,3.1247,3.1072,3.0984,0.0,2.5121,2.6618,2.6627,2.5481,2.4038,2.291,2.1498,0.0,1.9664,1.9251,1.9023,1.9143,1.9095,1.9468,2.0742,2.174,2.3087,0.0,2.7428,0.0,0.0,3.4535,0.0,3.5737,3.7565,3.8551,3.8022,3.8467,3.8515,3.795,3.7962,3.7962,3.7926,3.7926,3.7673,3.7144,3.6651,3.6122,3.5545,3.4474,3.373,3.3272,3.2743,3.2214,0.0,3.2274,3.2503,3.2503,3.2503,3.2478,3.2382,3.191,3.1705,3.1705,3.1705,3.1705,3.1705,3.1705,3.1705,3.1705,3.1705,3.1705,3.1705,3.1705,3.1705,3.1705,3.1705,3.2145,3.2624,3.2624,3.3086,3.3543,3.3543,3.3586,3.3628,3.3628,3.4176,3.4426,3.3839,3.4716,3.5683,3.5988,3.6157,3.6586,3.7472,3.7174,3.6864,3.6822,3.6822,3.6861,3.6861,3.666,3.6262,3.5608,3.5502,3.5174,3.4457,3.4457,3.4457,3.4414,3.3804,3.3195,3.2568,3.1901,3.1538,3.1495,3.1538,3.1553,3.1553,3.111,3.0908,1.998,0.0,2.1705,2.2181,2.1533,2.0715,0.0,1.9857,1.9318,1.917,1.9078,1.9372,2.061,2.0153,2.061,2.3701,2.4073,2.4723,2.6863,0.0,0.0,3.4667,3.6386,3.7264,3.6855,3.7649,3.813,3.7986,3.8106,3.7938,3.7409,3.7757,3.7793,3.7385,3.7385,3.712,3.6591,3.6471,3.5942,3.4955,3.4306,3.373,3.3272,3.2743,3.243,3.231,3.2442,3.2503,3.2503,3.2503,3.225,3.1898,3.1765,3.1705,3.1705,3.1705,3.1705,3.1705,3.1705,3.1705,3.1705,3.1705,3.1705,3.1705,3.1705,3.1705,3.1705,3.1705,3.1793,3.1925,3.1925,3.2057,3.2176,3.2176,3.2568,3.2927,3.2927,3.3458,3.3882,3.3713,3.3966,3.4215,3.426,3.466,3.4891,3.4703,3.5167,3.5402,3.4991,3.5237,3.548,3.548,3.5073,3.4594,3.4058,3.5285,3.5604,3.4486,3.4878,3.4922,3.4428,3.3804,3.3431,3.3285,3.2614,3.2002,3.1495,3.2002,3.2249,3.2249,3.2167,3.1818,1.8923,1.937,1.9823,2.0181,1.9773,1.933,1.933,1.9146,1.8987,1.8987,1.8987,1.9336,2.0454,2.0382,2.0983,2.3472,2.4242,0.0,0.0,0.0,3.3597,3.54,3.6795,3.7601,0.0,3.7817,3.7986,3.7986,3.7757,3.7493,3.7216,3.6799,3.664,3.6843,3.6355,3.6331,3.6759,3.629,3.5761,3.5184,3.4354,3.3529,3.2594,3.2253,3.1704,3.1078,3.2031,3.243,3.2465,3.2763,3.2683,3.2403,3.1898,3.1705,3.1705,3.1705,3.1705,3.1705,3.1705,3.1705,3.1705,3.1705,3.1705,3.1705,3.1705,3.1705,3.1705,3.1705,3.1705,3.1705,3.1705,3.1898,3.203,3.1765,3.2176,3.2624,3.2624,3.3127,3.3507,3.3215,3.3637,3.3981,3.3723,3.4137,3.4413,3.4148,3.45,3.4645,3.4076,3.4262,3.4387,3.4387,3.4095,3.3675,3.3144,3.4245,3.4511,3.3396,3.4327,3.4473,3.3409,3.336,3.3081,3.241,3.1791,3.1617,3.1854,3.1867,3.2037,3.2415,3.2082,3.1768,1.8653,1.9143,1.9559,1.9577,1.9364,1.9083,1.8984,1.896,1.8987,1.8934,0.0,1.93,1.9941,2.055,0.0,0.0,0.0,0.0,3.0182,3.1848,3.3479,3.5459,3.6675,0.0,3.7594,3.782,3.7868,3.7601,3.7249,3.6963,3.6828,3.5509,3.5074,3.5876,3.5016,3.5138,3.6462,3.5747,3.5272,3.5117,3.4016,3.2792,3.1462,3.1376,3.0647,2.9528,0.0,0.0,3.2111,3.2582,3.2746,3.2508,3.1786,3.1472,3.1472,3.1661,3.1705,3.1705,3.1617,3.1572,3.1572,3.1572,3.1617,3.1705,3.1705,3.1705,3.1661,3.1617,3.1617,3.1705,3.1705,3.2066,3.225,3.1825,3.2034,3.237,3.237,3.2841,3.3052,3.2506,3.3318,3.3909,3.3394,3.3809,3.4185,3.417,3.4203,3.4007,3.3449,3.3373,3.3373,3.3373,3.3203,3.287,3.23,3.2738,3.2596,3.1703,3.322,3.3486,3.2024,3.2546,3.2255,3.0999,3.0628,3.0966,3.2129,3.1533,3.1609,3.2255,3.167,3.1378,1.7761,1.8532,1.9388,1.9571,1.9646,1.9513,1.8815,1.8827,1.8934,1.8721,0.0,0.0,0.0,2.1957,2.3099,0.0,0.0,2.9159,0.0,0.0,3.4369,3.6083,0.0,3.7328,3.592,3.7104,3.7388,3.5916,3.6108,3.5944,3.5038,3.4657,3.4174,3.3548,3.3367,3.3201,3.3142,3.3874,3.3835,3.305,3.1836,3.0798,2.9851,3.0114,3.0149,3.0008,0.0,3.0822,3.0486,3.0555,3.013,2.9446,3.0182,3.0453,3.0543,3.1383,3.1705,3.1617,3.1172,3.1038,3.1038,3.1038,3.135,3.1705,3.1705,3.1705,3.1617,3.1172,3.135,3.1705,3.1705,3.1765,3.1813,3.1729,3.1777,3.1837,3.1837,3.1926,3.197,3.1837,3.2002,3.2091,3.2002,3.2435,3.2637,3.2196,3.2536,3.2601,3.2074,3.2013,3.2013,3.2013,3.1558,3.1149,3.0761,3.1002,3.0723,2.9611,3.1704,3.2468,3.1297,3.1363,3.1091,3.0356,3.0748,3.1075,3.1311,3.1743,3.201,3.2118,3.2036,3.1673,1.7327,1.8163,1.9121,1.9207,1.9455,1.9586,1.9227,1.943,1.9796,2.0153,0.0,0.0,0.0,0.0,2.4141,2.608,0.0,2.976,3.2158,3.2586,3.3292,0.0,0.0,3.5136,3.4449,3.4907,3.4896,3.4087,3.3941,3.3661,3.3186,3.2384,3.2052,3.2241,3.1644,3.1547,3.1954,3.184,3.1878,3.2062,3.1499,3.0586,2.9395,2.964,2.9308,2.8594,0.0,2.9744,2.9555,2.9788,2.9607,2.9258,2.9214,2.9154,2.9189,2.951,2.9932,3.0283,3.0011,3.0204,3.0532,3.0532,3.0847,3.1217,3.0982,3.1272,3.1539,3.0749,3.0904,3.1217,3.0949,3.1284,3.1606,3.1333,3.1475,3.1677,3.1677,3.1677,3.1677,3.1677,3.1926,3.2022,3.1765,3.213,3.231,3.1789,3.2142,3.2298,3.1777,3.1705,3.1705,3.1705,3.1235,3.0706,3.0272,3.0074,3.0096,3.0368,3.0611,3.0788,3.0824,3.0032,2.9632,2.9757,2.9755,3.0129,3.0834,3.0841,3.1071,3.1439,3.1439,3.1306,1.6899,1.7809,1.8748,1.8578,1.8988,1.9515,1.978,2.0033,2.0477,2.1428,0.0,0.0,0.0,2.3455,0.0,2.7294,2.8486,2.9569,3.1042,3.1351,3.2039,3.3551,3.33,3.296,3.2812,3.2783,3.257,3.2185,3.1772,3.1487,3.1381,3.0259,2.998,3.0871,3.0035,2.9983,3.0805,2.9869,2.9922,3.0842,3.0749,2.993,2.8401,2.8842,2.8325,2.7185,2.8225,2.8602,2.8468,2.8724,2.8757,2.8533,2.8021,2.7992,2.8168,2.797,2.8215,2.8656,2.8656,2.9037,2.9509,2.9509,2.992,3.0385,3.0068,3.0617,3.118,3.0274,3.0306,3.0487,3.0261,3.0777,3.1248,3.0806,3.1061,3.1354,3.1354,3.1354,3.1354,3.1354,3.1697,3.1851,3.1555,3.1842,3.2019,3.1733,3.2034,3.2154,3.1765,3.1705,3.1705,3.1705,3.1344,3.0838,3.0146,2.9484,2.9576,3.072,2.9742,2.947,3.0203,2.9098,2.8739,2.9341,2.8944,2.9226,3.0241,2.9831,2.9947,3.0494,3.0494,3.0494,1.6322,1.7324,1.8277,1.76,1.8194,1.9234,2.0284,2.0224,2.0258,2.1375,0.0,0.0,0.0,2.3085,2.5146,2.8358,2.8593,2.9107,3.1218,0.0,3.1577,3.2362,3.2405,3.1951,3.0801,3.169,3.1669,2.9951,3.0324,3.0339,2.9806,2.9138,2.8788,2.8742,2.8623,2.8593,2.8558,2.8228,2.8229,2.8529,2.8301,2.7313,2.5812,2.7031,2.7311,2.6844,2.7305,2.7083,2.6403,2.6448,2.5961,2.5342,2.6225,2.7132,2.7923,2.7923,2.7652,2.7332,2.7332,2.7379,2.7426,2.7426,2.8226,2.9222,2.9176,2.9715,3.0216,2.968,2.9577,2.9715,3.008,3.0239,3.0307,3.0273,3.0284,3.0319,3.0319,3.0319,3.0319,3.0319,3.0319,3.0488,3.0904,3.0972,3.1175,3.1617,3.1741,3.1753,3.1717,3.1705,3.1705,3.1705,3.1681,3.1235,3.017,2.916,2.8586,2.8697,2.8973,2.9131,2.9197,2.9094,2.9055,2.9131,2.9094,2.9121,2.9209,2.917,2.917,2.9236,2.9236,2.9236,1.599,1.7021,1.8002,1.7442,1.7986,1.8918,1.9886,2.0585,2.1298,2.2283,2.3299,0.0,0.0,0.0,2.565,2.6878,2.7843,2.8838,3.0025,2.9985,3.0097,3.0778,3.0214,2.9521,2.8859,2.9,2.8845,2.8163,2.8239,2.8195,2.7986,2.7941,2.7884,2.7841,2.7831,2.7809,2.7755,2.7638,2.7448,2.7124,2.7467,2.7283,2.6678,2.699,2.7067,2.6917,2.6663,2.6386,2.6051,2.5685,2.5333,2.5033,2.5155,2.5382,2.5615,2.5615,2.5761,2.6003,2.6003,2.635,2.6822,2.7069,2.7486,2.7904,2.7887,2.8296,2.8707,2.838,2.852,2.8823,2.9241,2.9531,2.976,2.976,2.976,2.976,2.976,2.976,2.976,2.976,2.9988,3.0261,3.0442,3.0442,3.0623,3.1128,3.1217,3.1306,3.1661,3.1705,3.1705,3.1705,3.1115,3.0518,3.0122,2.9124,2.851,2.851,2.863,2.8776,2.8922,2.8776,2.8776,2.8922,2.8922,2.8922,2.8922,2.9052,2.9091,2.9091,2.9091,2.9091,1.5767,1.6532,1.7309,1.7278,1.776,1.8516,1.9636,2.0712,2.192,2.3225,2.3959,2.4553,2.5109,0.0,0.0,0.0,2.7023,2.8018,2.8476,2.8427,2.848,2.8881,2.8209,2.7623,2.7454,2.715,2.6985,2.6985,2.6948,2.689,2.689,2.7062,2.7161,2.7269,2.7138,2.7191,2.7377,2.7069,2.6755,2.6393,2.6648,2.6842,2.6964,2.674,2.676,2.6808,2.6111,2.5828,2.5773,2.5228,2.4918,2.477,2.4492,2.4341,2.4202,2.4202,2.4538,2.4962,2.4962,2.5294,2.583,2.6094,2.6367,2.6582,2.6535,2.6958,2.741,2.7293,2.7486,2.7854,2.8308,2.8839,2.9255,2.9255,2.9255,2.9255,2.9255,2.9255,2.9255,2.9255,2.9531,2.9806,2.9943,2.9988,3.0125,3.0623,3.0679,3.0802,3.116,3.135,3.1528,3.1661,3.091,3.0266,3.0098,2.9268,2.8691,2.8522,2.851,2.8538,2.8685,2.8578,2.8538,2.8685,2.8724,2.8724,2.8724,2.8855,2.8895,2.8895,2.8895,2.8895,1.568,1.5796,1.6022,1.6963,0.0,0.0,1.965,2.0626,2.1864,2.4125,2.4029,2.3923,2.5322,2.4441,0.0,2.5545,2.625,2.6582,2.6591,2.6921,2.7022,2.6628,2.6582,2.6582,2.6582,2.6582,2.6582,2.6582,2.6582,2.6582,2.6582,2.6582,2.6727,2.698,2.6588,2.6686,2.7359,2.6355,2.5992,2.6374,2.5721,2.5626,2.6002,2.6002,2.6232,2.6527,2.572,2.5362,2.5387,2.4941,2.4578,2.4202,2.4202,2.4202,2.4202,2.4202,2.4202,2.4202,2.4202,2.4202,2.4202,2.4211,2.4677,2.5294,2.5294,2.5829,2.6504,2.6504,2.6504,2.6648,2.74,2.8175,2.8803,2.8803,2.8803,2.8803,2.8803,2.8803,2.8803,2.8803,2.8803,2.8932,2.9393,2.9485,2.9669,3.0125,3.0216,3.0216,3.0216,3.0623,3.1083,3.1617,3.1192,3.0663,3.0134,2.9605,2.9076,2.8546,2.851,2.851,2.851,2.851,2.851,2.851,2.851,2.851,2.851,2.851,2.851,2.851,2.851,2.851,1.5371,1.6058,0.0,1.6665,0.0,0.0,0.0,2.0814,0.0,0.0,2.4522,2.4291,2.5258,2.4894,0.0,2.5405,2.5878,2.6306,2.6545,2.6435,2.6333,2.6214,2.5957,2.5782,2.5782,2.5782,2.5782,2.5782,2.6039,2.6023,2.5748,2.6048,2.6067,2.5887,2.5767,2.5811,2.5983,2.57,2.5592,2.5703,2.5479,2.5479,2.5598,2.5598,2.561,2.5702,2.5179,2.4959,2.4931,2.456,2.4321,2.4202,2.4202,2.4202,2.4202,2.4202,2.4202,2.4202,2.4202,2.4202,2.4248,2.4551,2.459,2.4594,2.4842,2.492,2.4971,2.5489,2.5684,2.5819,2.6638,2.7229,2.7827,2.86,2.8803,2.8803,2.8803,2.8803,2.8803,2.8803,2.8803,2.885,2.8978,2.9024,2.9163,2.9623,2.9715,2.9806,3.017,3.0306,3.0589,3.1083,3.0346,2.9918,3.0092,2.9302,2.8738,2.8507,2.851,2.851,2.851,2.851,2.851,2.851,2.851,2.851,2.851,2.851,2.851,2.851,2.851,2.851,1.5405,1.6036,0.0,1.6854,1.7865,1.9172,2.0536,0.0,0.0,0.0,2.4909,2.4698,2.5506,2.5332,0.0,2.5589,2.6002,2.6296,2.6325,2.6177,2.5957,2.58,2.5571,2.5424,2.5424,2.5424,2.5424,2.5424,2.5644,2.5672,2.5433,2.5644,2.5672,2.5433,2.5216,2.5267,2.5424,2.5102,2.5019,2.5133,2.5019,2.4937,2.4946,2.5111,2.5277,2.5405,2.495,2.4684,2.4551,2.4079,2.4005,2.4174,2.3804,2.3917,2.4165,2.3794,2.3776,2.3886,2.373,2.3776,2.395,2.4207,2.4235,2.4248,2.4505,2.4404,2.4301,2.4726,2.4864,2.506,2.5829,2.622,2.6691,2.8004,2.8466,2.861,2.8754,2.8803,2.8803,2.8803,2.8803,2.8803,2.8803,2.8803,2.8896,2.9163,2.9209,2.9393,2.9852,2.9943,3.008,3.0578,3.0086,2.9739,2.9836,2.9094,2.8537,2.828,2.8084,2.8059,2.8231,2.8431,2.851,2.851,2.851,2.851,2.851,2.851,2.851,2.851,2.851,2.851,1.5547,1.57,1.6078,1.7293,1.8303,0.0,2.1769,2.3217,2.433,2.5139,0.0,2.5069,2.5874,2.569,2.5552,2.5947,2.6306,2.6344,2.6012,2.5929,2.5754,2.5359,2.5225,2.5188,2.5161,2.5152,2.5152,2.5152,2.524,2.5207,2.5207,2.5286,2.5313,2.5313,2.4964,2.4895,2.5304,2.4578,2.4395,2.4721,2.4385,2.4202,2.4211,2.4606,2.4922,2.5286,2.4876,2.456,2.4165,2.3712,2.3767,2.4073,2.3206,2.34,2.4009,2.3178,2.3133,2.3389,2.3032,2.3142,2.3444,2.3444,2.3767,2.4146,2.4146,2.4174,2.4202,2.4202,2.4202,2.4341,2.5011,2.5226,2.5635,2.703,2.7813,2.8273,2.8621,2.8757,2.8803,2.8803,2.8771,2.8749,2.8792,2.8803,2.8803,2.8803,2.8803,2.8932,2.9393,2.9439,2.9623,3.008,3.008,2.9874,2.946,2.899,2.8485,2.7935,2.7506,2.7447,2.78,2.8231,2.8471,2.851,2.851,2.851,2.851,2.851,2.851,2.851,2.851,2.851,1.4539,1.505,0.0,0.0,1.9316,2.1257,2.2089,2.2739,2.3446,2.4303,2.4909,2.5442,2.592,2.569,2.5552,2.5947,2.5828,2.5653,2.5561,2.5286,2.4937,2.4514,2.4134,2.3764,2.3453,2.3425,2.3425,2.3425,2.3709,2.3883,2.3883,2.4244,2.4459,2.4459,2.4385,2.4376,2.4459,2.4293,2.4248,2.4339,2.4248,2.4202,2.4211,2.4293,2.4385,2.4459,2.4376,2.4284,2.4165,2.3712,2.3544,2.3581,2.3096,2.3014,2.3142,2.2968,2.2959,2.3023,2.294,2.2959,2.3032,2.3032,2.3306,2.3627,2.3627,2.3895,2.4202,2.4202,2.4202,2.4251,2.4399,2.469,2.5048,2.5664,2.7079,2.8214,2.7931,2.8362,2.8803,2.8803,2.8451,2.8309,2.8738,2.8803,2.8803,2.8803,2.8803,2.885,2.8943,2.8932,2.9117,2.9577,2.9301,2.9192,2.9371,2.8968,2.8471,2.7916,2.7798,2.7651,2.7371,2.7788,2.8163,2.8471,2.851,2.851,2.851,2.851,2.851,2.851,2.851,2.851,1.466,0.0,0.0,1.7686,0.0,2.1594,2.2144,2.2602,2.3078,2.373,2.4404,2.5084,2.5865,2.5846,2.5773,2.5984,2.5837,2.5571,2.5194,2.479,2.4326,2.3914,2.3453,2.3133,2.2931,2.2904,2.2904,2.2904,2.3096,2.3215,2.3215,2.3464,2.3666,2.3859,2.3859,2.3859,2.3859,2.4101,2.4009,2.3584,2.3767,2.3859,2.3868,2.411,2.4101,2.3859,2.3859,2.3758,2.3547,2.3134,2.3032,2.3151,2.2556,2.2565,2.2858,2.2474,2.2446,2.2574,2.2391,2.2446,2.2638,2.284,2.3169,2.3535,2.3776,2.3987,2.4202,2.4202,2.4202,2.4202,2.4202,2.4367,2.4577,2.4733,2.5966,2.7234,2.7541,2.793,2.8315,2.8746,2.8549,2.8462,2.876,2.8803,2.8803,2.8803,2.8803,2.8803,2.8803,2.8803,2.8885,2.9117,2.8943,2.8879,2.9081,2.8666,2.8266,2.7974,2.776,2.7588,2.7583,2.7618,2.7782,2.8222,2.8222,2.8222,2.8222,2.8004,2.7886,2.7886,2.7886,2.7886,1.482,0.0,1.6302,1.8073,1.9659,0.0,2.1823,2.2291,2.2721,2.3187,2.3712,2.445,2.5598,2.5754,2.5727,2.58,2.5745,2.5442,2.4666,2.4271,2.3868,2.3343,2.2995,2.2776,2.2702,2.2693,2.2693,2.2693,2.2693,2.273,2.2794,2.2794,2.2986,2.338,2.3398,2.3398,2.3398,2.3776,2.3611,2.2913,2.3242,2.3398,2.3407,2.3794,2.3804,2.3489,2.3425,2.3206,2.2876,2.2455,2.2483,2.2721,2.198,2.2108,2.262,2.1943,2.1897,2.2126,2.1806,2.1906,2.2236,2.2584,2.3014,2.3453,2.3849,2.4091,2.4202,2.4202,2.4202,2.4202,2.4202,2.4202,2.4202,2.4202,2.4899,2.5885,2.6959,2.74,2.7788,2.8466,2.871,2.8803,2.8803,2.8803,2.8803,2.8803,2.8803,2.8836,2.8913,2.8858,2.8836,2.8924,2.8858,2.8803,2.8803,2.8386,2.8078,2.8002,2.762,2.7536,2.7764,2.7541,2.7512,2.766,2.7737,2.7775,2.7775,2.7392,2.7185,2.7185,2.7185,2.7185,1.3672,0.0,1.6462,0.0,1.8605,1.976,0.0,0.0,2.1566,0.0,2.305,2.3895,2.4776,2.4689,2.456,2.4876,2.4689,2.4284,2.3776,2.3608,2.3288,2.2529,2.2391,2.2227,2.1888,2.1851,2.1851,2.1851,2.1851,2.2007,2.2346,2.2364,2.2547,2.2968,2.2986,2.2986,2.2986,2.3041,2.3014,2.2904,2.2959,2.2986,2.2986,2.3041,2.3224,2.3471,2.3133,2.2959,2.2876,2.2455,2.2309,2.2318,2.187,2.176,2.1842,2.1733,2.1723,2.176,2.1705,2.1723,2.1778,2.1833,2.2373,2.2995,2.305,2.3602,2.4202,2.4202,2.4202,2.4202,2.4202,2.4202,2.4202,2.4202,2.4337,2.4653,2.545,2.6675,2.7636,2.7731,2.8315,2.8803,2.8803,2.8803,2.8803,2.8803,2.8803,2.8957,2.9325,2.9066,2.8967,2.9336,2.9055,2.8803,2.8803,2.8738,2.8484,2.8023,2.7936,2.7577,2.6845,2.7491,2.7557,2.681,2.7103,2.7288,2.7288,2.7219,2.7185,2.7185,2.7185,2.7185,1.3927,1.466,1.559,0.0,1.7568,1.8559,1.9604,0.0,2.1007,2.1787,2.241,2.318,2.4235,2.4523,2.4565,2.4748,2.4477,2.4055,2.3553,2.3105,2.2684,2.2318,2.2089,2.1879,2.1705,2.1696,2.1696,2.1696,2.1696,2.1769,2.1943,2.1952,2.2135,2.2538,2.2556,2.2556,2.2556,2.2785,2.2785,2.2556,2.2556,2.2556,2.2556,2.2556,2.2648,2.2803,2.2629,2.2428,2.2208,2.2025,2.1952,2.1934,2.176,2.1696,2.1696,2.1696,2.1696,2.1696,2.1696,2.1696,2.1733,2.1952,2.2263,2.2638,2.3096,2.348,2.3859,2.4137,2.4202,2.4202,2.4202,2.4202,2.4202,2.4202,2.4202,2.4301,2.4627,2.5538,2.659,2.7447,2.8269,2.8803,2.8803,2.8803,2.8803,2.8803,2.8803,2.888,2.9088,2.8935,2.888,2.9099,2.8924,2.8803,2.8803,2.8803,2.8705,2.8451,2.844,2.8134,2.7402,2.7773,2.7555,2.6606,2.7269,2.7508,2.7272,2.7004,2.6881,2.687,2.659,2.6456,0.0,0.0,1.4564,1.5501,1.6401,1.7369,0.0,0.0,2.0369,0.0,2.1714,2.2456,2.3373,2.4051,2.45,2.4652,2.4413,2.3978,2.3416,2.2821,2.2364,2.2153,2.187,2.1696,2.1696,2.1696,2.1696,2.1696,2.1696,2.1696,2.1696,2.1696,2.1824,2.2117,2.2071,2.2016,2.2126,2.2446,2.2437,2.2126,2.2126,2.2126,2.2126,2.2126,2.2126,2.2126,2.2126,2.1961,2.1696,2.1696,2.1696,2.1696,2.1696,2.1696,2.1696,2.1696,2.1696,2.1696,2.1696,2.1696,2.1742,2.2034,2.2199,2.2391,2.3004,2.3334,2.3553,2.3914,2.4128,2.4202,2.4202,2.4202,2.4202,2.4202,2.4202,2.4251,2.444,2.4913,2.5674,2.7067,2.7977,2.8513,2.8513,2.8653,2.8803,2.8803,2.8902,2.8989,2.8989,2.8989,2.8989,2.8989,2.8869,2.8803,2.8803,2.8803,2.8803,2.8803,2.8803,2.8538,2.8012,2.7991,2.7609,2.678,2.7576,2.7642,2.6955,2.6605,2.6399,2.6388,2.607,2.5895,0.0,1.3254,0.0,1.4113,1.5046,0.0,0.0,0.0,0.0,1.9893,2.0909,2.1742,2.1806,2.2767,2.373,2.4174,2.422,2.3877,2.305,2.2904,2.2593,2.1815,2.1705,2.1696,2.1696,2.1696,2.1696,2.1696,2.1696,2.1696,2.1696,2.1696,2.1705,2.1723,2.1383,2.1365,2.1723,2.1742,2.1742,2.1723,2.1723,2.1723,2.1723,2.1723,2.1723,2.1723,2.1723,2.1714,2.1696,2.1696,2.1696,2.1696,2.1696,2.1696,2.1696,2.1696,2.1696,2.1696,2.1696,2.1696,2.1696,2.1714,2.197,2.2327,2.2327,2.2885,2.3499,2.3526,2.3859,2.4202,2.4202,2.4202,2.4202,2.4202,2.4202,2.439,2.5099,2.5294,2.5528,2.6408,2.7163,2.7683,2.7683,2.8315,2.8803,2.8803,2.9197,2.9445,2.9445,2.9445,2.9445,2.9445,2.9077,2.8803,2.8803,2.8803,2.8803,2.8803,2.8803,2.8538,2.8012,2.7991,2.7762,2.7282,2.774,2.7315,2.5972,2.595,2.5939,2.5939,2.5917,2.5895,0.0,0.0,0.0,1.3629,1.4205,1.4987,1.5996,1.7072,1.8147,1.9298,2.0049,2.0689,2.1245,2.2291,2.3251,2.3694,2.3318,2.2969,2.2913,2.2455,2.2016,2.1723,2.1696,2.1696,2.1696,2.1493,2.1403,2.1668,2.144,2.1412,2.1678,2.1696,2.1696,2.1696,2.1328,2.1181,2.1328,2.1328,2.1421,2.1696,2.1696,2.1696,2.1696,2.1696,2.1696,2.1696,2.1696,2.1696,2.1696,2.1696,2.1696,2.1696,2.1696,2.1696,2.1696,2.1696,2.1696,2.1696,2.1696,2.1696,2.1696,2.1696,2.1787,2.1952,2.2199,2.2675,2.3169,2.3425,2.384,2.4202,2.4202,2.4202,2.4202,2.4202,2.3895,2.3786,2.443,2.4962,2.5392,2.5674,2.635,2.716,2.794,2.829,2.8625,2.9168,2.9368,2.9368,2.9099,2.9066,2.9066,2.9066,2.8902,2.8803,2.8803,2.8803,2.8803,2.8803,2.8803,2.8538,2.8012,2.8331,2.8123,2.7326,2.749,2.7435,2.7227,2.6966,2.6813,2.6791,2.6179,2.5895,1.3028,0.0,0.0,0.0,0.0,1.4158,1.5022,0.0,1.7135,1.8254,1.9045,1.9683,2.0374,2.1248,2.2153,2.2959,2.2748,2.2538,2.2675,2.2236,2.1842,2.1705,2.1696,2.1632,2.1495,2.1273,2.1218,2.1458,2.1264,0.0,2.1668,2.1696,2.1632,2.1485,2.1255,2.1108,2.1108,2.1108,2.1319,2.1696,2.1696,2.1696,2.1696,2.1696,2.1696,2.1696,2.1696,2.1696,2.1696,2.1696,2.1696,2.1696,2.1696,2.1696,2.1696,2.1696,2.1696,2.1696,2.1696,2.1696,2.1696,2.1696,2.1696,2.1742,2.1998,2.2474,2.2959,2.3224,2.373,2.4202,2.4202,2.4202,2.4202,2.4202,2.3737,2.3473,2.3967,2.4225,2.4402,2.4609,2.5285,2.6102,2.6867,2.7498,2.806,2.8603,2.8917,2.8993,2.8638,2.8739,2.8812,2.879,2.8803,2.8803,2.8803,2.8803,2.8803,2.8803,2.8803,2.8661,2.8287,2.8429,2.8211,2.7566,2.7511,2.7587,2.7751,2.7151,2.6846,2.6824,2.619,2.5895,0.0,0.0,0.0,0.0,0.0,0.0,1.3998,0.0,1.6428,1.683,1.7807,1.8749,1.9191,1.9613,2.036,2.1916,2.2547,2.2693,2.23,2.2227,2.208,2.1705,2.1668,2.1504,2.1135,2.1089,2.1089,2.1046,2.108,2.1211,2.1632,2.1668,2.1485,2.1099,2.1099,2.1108,2.1108,2.1108,2.1319,2.1696,2.1696,2.1696,2.1696,2.1696,2.1696,2.1696,2.1696,2.1696,2.1696,2.1696,2.1696,2.1696,2.1696,2.1696,2.1696,2.1696,2.1696,2.1696,2.1696,2.1696,2.1696,2.1696,2.1696,2.1696,2.1696,2.2254,2.2885,2.2885,2.3501,2.4165,2.4183,2.4143,2.4152,2.4152,2.3687,2.3394,2.3801,2.3123,2.2644,2.3197,2.3935,2.448,2.4529,2.5976,2.7082,2.7131,2.7864,2.834,2.8254,2.8593,2.8862,2.8841,2.8825,2.8814,2.8836,2.8825,2.8814,2.8825,2.8814,2.8803,2.8803,2.8309,2.8012,2.7991,2.7991,2.7751,2.7293,2.6387,2.5928,2.5917,2.5906,2.5895,1.259,0.0,0.0,0.0,0.0,0.0,0.0,0.0,0.0,1.6225,1.6803,1.7316,1.8245,1.874,1.9191,1.96,2.0497,2.1255,2.142,2.12,2.0979,2.0869,2.1108,2.1117,2.0723,2.0677,2.055,0.0,2.0243,2.0261,2.0404,2.0953,2.1099,2.0695,2.0961,2.1108,2.1108,2.1108,2.1319,2.1696,2.1696,2.1696,2.1696,2.1696,2.1696,2.1696,2.1696,2.1696,2.1696,2.1696,2.1696,2.1696,2.1696,2.1696,2.1696,2.1696,2.1696,2.1696,2.1696,2.1696,2.1696,2.1696,2.1696,2.1696,2.1696,2.2053,2.2455,2.2455,2.2831,2.3258,2.3143,2.3026,2.2987,2.2987,2.2526,2.2384,2.3135,2.2455,2.2121,2.3467,2.3788,2.4327,2.5793,2.6288,2.6885,2.7881,2.8256,2.8451,2.8661,2.8509,2.8767,2.9698,2.923,2.9088,2.9751,2.9208,2.8957,2.9259,2.9,2.8803,2.8803,2.8672,2.8396,2.8002,2.7991,2.7598,2.678,2.6889,2.6747,2.642,2.607,2.5895,1.259,0.0,0.0,0.0,0.0,0.0,1.3244,1.3471,1.3986,0.0,1.5798,1.6263,1.7378,1.7786,1.8078,1.8402,1.9024,1.9714,2.0273,2.0154,2.0008,2.0008,2.0365,2.0382,1.9815,1.9882,1.9775,1.9191,1.9144,1.9311,1.9653,2.0258,2.058,2.0488,2.0741,2.0943,2.1108,2.0943,2.1154,2.1696,2.1513,2.1522,2.1696,2.1696,2.1595,2.144,2.1614,2.1595,2.1449,2.1623,2.1696,2.1696,2.1696,2.1696,2.1696,2.1696,2.1696,2.1696,2.1696,2.1696,2.1696,2.1696,2.1696,2.1696,2.1696,2.197,2.2282,2.2052,2.2164,2.233,2.2412,2.2322,2.2329,2.2492,2.2072,2.1884,2.2619,2.2025,2.1764,2.3014,2.3268,2.3569,2.4632,2.5336,2.609,2.6893,2.7261,2.7616,2.8328,2.7986,2.8247,2.9502,2.9142,2.9033,2.9554,2.9121,2.8924,2.9208,2.8957,2.8803,2.8803,2.8803,2.8528,2.8002,2.7991,2.7533,2.6584,2.6857,2.678,2.6321,2.6037,2.5895,1.2646,0.0,0.0,0.0,1.2678,0.0,1.2852,1.3229,1.3693,0.0,0.0,1.5317,1.6297,1.6499,1.6739,1.7476,1.7659,1.8023,1.9015,1.9173,1.9173,1.9173,1.954,1.9479,1.8731,1.8994,1.8885,1.8049,1.7934,1.8241,1.9078,1.9555,1.9964,2.03,2.0424,2.0686,2.1034,2.0695,2.0845,2.1549,2.1264,2.13,2.1623,2.1668,2.1485,2.12,2.1476,2.1484,2.12,2.1485,2.165,2.1696,2.1696,2.1696,2.1696,2.1696,2.1687,2.1642,2.1696,2.1687,2.1642,2.1642,2.1642,2.1597,2.1553,2.1798,2.1989,2.1575,2.14,2.1391,2.1707,2.1769,2.1848,2.2172,2.1912,2.1681,2.21,2.1796,2.161,2.2135,2.2544,2.2683,2.2521,2.3909,2.5004,2.5004,2.5504,2.6274,2.748,2.7252,2.7488,2.8813,2.8869,2.8847,2.8957,2.8913,2.888,2.888,2.888,2.8858,2.8803,2.8803,2.8528,2.8002,2.7893,2.7478,2.6748,2.6639,2.6376,2.5895,2.5895,2.5895,0.0,0.0,0.0,0.0,1.3219,0.0,1.2235,1.2641,1.3092,0.0,1.3009,1.3484,1.3858,1.393,1.4042,1.4428,1.4887,1.5944,1.8043,1.8319,1.8319,1.8319,1.8705,1.8759,1.8252,1.8561,1.8354,1.7243,1.6847,1.6872,1.7457,1.8444,1.9066,1.9147,2.0016,2.0558,2.0631,2.0558,2.0594,2.0759,2.0998,2.1145,2.1245,2.1531,2.165,2.1559,2.1302,2.1374,2.1549,2.1337,2.1385,2.1696,2.1696,2.1696,2.1696,2.1696,2.1454,2.1177,2.1553,2.1463,2.1132,2.1132,2.1132,2.1087,2.0699,2.0616,2.0668,2.0585,2.0483,2.0412,2.0431,2.0376,2.0394,2.0708,2.0746,2.0822,2.1418,2.1717,2.1916,2.2023,2.2311,2.2855,2.3702,2.4136,2.4401,2.4464,2.4686,2.5427,2.6953,2.6732,2.7369,2.9699,2.9274,2.9121,2.986,2.9565,2.9347,2.9347,2.9347,2.9208,2.8814,2.8803,2.8528,2.8002,2.7249,2.714,2.7718,2.6955,2.6376,2.5895,2.5895,2.5895,0.0,0.0,0.0,1.3561,1.3592,0.0,0.0,1.3041,1.3018,1.2714,1.2618,1.2699,1.3093,0.0,1.3054,1.3343,1.389,1.4679,1.5904,1.6572,1.7,1.7189,1.7421,1.7358,1.6942,1.7461,1.738,1.64,1.5955,1.5955,1.6366,1.7308,1.8035,1.8478,1.9398,2.0011,2.0186,2.0186,2.0287,2.0521,2.0521,2.0723,2.1117,2.1328,2.142,2.142,2.142,2.131,2.1083,2.1108,2.1062,2.1094,2.1525,2.1553,2.1365,2.1365,2.1051,2.069,2.0916,2.1006,2.0952,2.0736,2.0817,2.0907,2.0419,2.0155,1.9965,1.9965,1.9686,1.9503,1.969,1.9854,2.0004,2.0313,2.0527,2.075,2.1056,2.1457,2.1759,2.1979,2.2243,2.2654,2.3012,2.3611,2.3956,2.3639,2.39,2.469,2.6247,2.5593,2.6064,2.8823,2.8216,2.8169,2.9553,2.9332,2.9251,2.9645,2.9284,2.8987,2.8739,2.8549,2.8157,2.7648,2.7401,2.7282,2.7282,2.7045,2.6822,2.6605,2.6605,2.6605,0.0,0.0,0.0,0.0,0.0,1.3697,0.0,0.0,0.0,0.0,0.0,0.0,0.0,0.0,0.0,0.0,0.0,0.0,0.0,1.4492,0.0,1.6053,1.6165,1.6048,1.5743,1.6257,1.6307,1.563,1.5291,1.5225,1.5548,1.6286,1.7029,1.7731,1.8519,1.9083,1.9335,1.9489,1.9638,1.9915,1.9761,2.0005,2.0621,2.0775,2.0802,2.0748,2.1092,2.0866,2.0277,2.0512,2.0451,2.0263,2.1103,2.1212,2.0862,2.0862,2.0555,2.0201,2.0292,2.051,2.0682,2.0283,2.0374,2.0501,2.0147,1.9737,1.9463,1.9463,1.9142,1.8853,1.9193,1.9519,1.9909,2.021,2.0559,2.0853,2.0996,2.1246,2.1648,2.1997,2.2347,2.2474,2.2178,2.2976,2.3428,2.2708,2.302,2.3782,2.5174,2.429,2.462,2.74,2.6996,2.7201,2.8882,2.8978,2.9202,2.9708,2.9244,2.8934,2.8849,2.8466,2.8051,2.7604,2.7859,2.7636,2.6881,2.7179,2.7254,2.7183,2.7183,2.7183,0.0,0.0,0.0,0.0,1.3757,1.3719,0.0,0.0,1.2054,1.0583,0.0,0.0,0.0,0.0,0.0,0.0,0.0,0.0,1.1647,1.2546,1.3705,1.5215,1.5403,1.5523,1.5761,1.5545,1.5347,1.5262,1.4876,1.4704,1.4733,1.5483,1.5964,1.6075,1.7132,1.7588,1.7327,1.7925,1.8075,1.786,1.8452,1.8797,1.8901,1.9627,1.9748,1.9419,1.9445,1.9411,1.9332,1.8996,1.9074,1.9411,2.0245,2.0482,2.0374,2.0374,2.0056,1.9737,2.0155,2.0056,1.9729,1.9691,1.9371,1.905,1.9012,1.892,1.8874,1.8874,1.8827,1.8789,1.8875,1.9161,1.9558,1.9893,2.0194,2.0623,2.1206,2.1655,2.2005,2.2363,2.2712,2.2847,2.249,2.2733,2.2609,2.1727,2.1745,2.2223,2.3114,2.3111,2.3921,2.633,2.6826,2.749,2.8652,2.9476,2.9806,2.9483,2.9764,2.9774,2.9349,2.9274,2.903,2.8562,2.8163,2.7966,2.7838,2.7498,2.7083,2.666,2.666,2.666,0.0,0.0,0.0,0.0,0.0,0.0,1.3034,0.0,1.2115,0.0,0.0,0.0,0.0,0.0,0.0,0.0,1.0078,0.0,0.0,0.0,1.236,0.0,0.0,0.0,1.4841,1.4509,1.4372,1.4585,1.4235,1.4117,1.4288,1.4816,1.5324,1.5802,1.6698,1.7203,1.7312,1.7766,1.7914,1.78,1.8117,1.8382,1.8596,1.8956,1.9127,1.9221,1.9187,1.9067,1.8844,1.8648,1.8557,1.8465,1.8837,1.9183,1.9564,1.9564,1.9381,1.9142,1.9379,1.9509,1.9592,1.9592,1.9234,1.8781,1.8781,1.8781,1.8781,1.8781,1.8781,1.8829,1.909,1.9399,1.9789,2.0091,2.044,2.0837,2.1285,2.1719,2.2115,2.2418,2.2776,2.2903,2.2545,2.2589,2.2355,2.1536,2.1647,2.2092,2.262,2.2484,2.3426,2.6123,2.6176,2.6929,2.909,2.9488,2.974,2.9967,2.9751,2.9459,2.8987,2.8967,2.8823,2.8673,2.8174,2.7934,2.7923,2.7521,2.7207,2.7007,2.7285,2.7413,1.383,0.0,0.0,0.0,0.0,0.0,0.0,0.0,0.0,0.0,0.0,0.0,0.0,0.0,0.9576,0.9426,0.0,0.9893,0.0,0.0,0.0,0.0,0.0,0.0,0.0,1.3692,1.3717,1.3999,1.3759,1.3696,1.395,1.4177,1.4656,1.5307,1.5958,1.6393,1.6699,1.717,1.7315,1.7223,1.7424,1.7659,1.796,1.8162,1.8347,1.8541,1.8642,1.844,1.8062,1.8062,1.7863,1.758,1.758,1.802,1.8656,1.8754,1.8797,1.8781,1.8781,1.905,1.9371,1.9371,1.9096,1.8781,1.8781,1.8781,1.8781,1.8781,1.8781,1.8868,1.928,1.967,2.0004,2.0313,2.0662,2.1044,2.1489,2.1711,2.1981,2.2521,2.276,2.2823,2.2656,2.2553,2.2283,2.1679,2.1798,2.2086,2.2338,2.2168,2.3062,2.5778,2.575,2.6584,2.9351,2.9517,2.9735,3.0276,2.9777,2.9342,2.9011,2.8866,2.8742,2.8618,2.8162,2.7862,2.7738,2.7417,2.7309,2.7309,2.7631,2.7809,0.0,0.0,0.0,1.2304,0.0,0.0,0.0,0.0,1.1064,0.0,0.0,0.0,0.0,0.9901,0.9721,0.9197,0.9144,0.0,0.0,0.0,0.0,0.0,0.0,0.0,0.0,1.331,1.3618,1.3618,1.3618,1.3584,1.3634,1.3642,1.3775,1.4132,1.4498,1.4689,1.4689,1.5409,1.5623,1.5319,1.5943,1.6269,1.6301,1.7002,1.7137,1.6786,1.7177,1.713,1.6754,1.6754,1.6746,1.6754,1.6754,1.7175,1.787,1.8213,1.8526,1.8781,1.8781,1.8827,1.8827,1.8827,1.8827,1.8781,1.8781,1.8781,1.8781,1.8781,1.8781,1.8868,1.928,1.967,2.0004,2.0313,2.0662,2.1107,2.1791,2.1687,2.1713,2.2799,2.2728,2.2609,2.2942,2.2712,2.2363,2.2051,2.2003,2.2003,2.2033,2.1995,2.2843,2.5081,2.5708,2.6907,2.9137,2.9715,2.9984,2.9994,2.9984,2.9963,2.9953,2.9518,2.9073,2.8618,2.8162,2.7717,2.733,2.732,2.7309,2.7309,2.7309,2.7299,0.0,0.0,1.2493,1.259,0.0,0.0,0.0,0.0,0.0,0.0,0.0,0.0,0.0,0.9907,0.9787,0.9432,0.9221,0.9005,0.0,0.0,0.0,0.0,0.0,0.0,0.0,0.0,0.0,1.2909,1.2941,1.3044,1.3243,1.3498,1.3743,1.4101,1.4689,1.4998,1.4998,1.5451,1.5656,1.5515,1.5745,1.5975,1.6214,1.646,1.6627,1.6705,1.6824,1.6849,1.6689,1.6689,1.6689,1.6689,1.6689,1.7159,1.783,1.795,1.8319,1.8781,1.8781,1.8781,1.8781,1.8781,1.8781,1.8781,1.8781,1.8781,1.8781,1.8781,1.8781,1.8962,1.959,1.9829,2.006,2.0607,2.0837,2.1107,2.186,2.1862,2.1957,2.2553,2.276,2.2799,2.2688,2.276,2.272,2.2363,2.2307,2.2274,2.2043,2.237,2.307,2.4158,2.4606,2.5634,2.7627,2.885,2.9539,2.9539,2.9539,2.9539,2.9539,2.9384,2.9373,2.9528,2.8773,2.8307,2.8152,2.76,2.7309,2.7309,2.7309,2.7309,1.2261,1.1966,0.0,1.2157,1.1669,0.0,1.1595,0.0,1.1063,0.0,0.0,0.0,0.0,1.0045,0.9925,0.9576,0.9281,0.8975,0.0,0.8399,0.0,0.0,0.0,0.0,0.0,0.0,1.1928,1.2552,1.259,1.2694,0.0,0.0,1.3568,1.391,1.4498,1.4863,1.499,1.5197,1.5308,1.5308,1.5562,1.5793,1.6023,1.6277,1.6516,1.6689,1.6689,1.6689,1.6689,1.6689,1.6689,1.6689,1.6689,1.7159,1.7814,1.7814,1.8216,1.8781,1.8781,1.8781,1.8781,1.8781,1.8781,1.8781,1.8781,1.8781,1.8781,1.8781,1.8781,1.8986,1.9734,1.9917,2.0092,2.075,2.0925,2.1076,2.1655,2.1679,2.1767,2.237,2.2569,2.2649,2.2672,2.2863,2.2934,2.2704,2.2672,2.2593,2.2363,2.2625,2.3083,2.3826,2.4042,2.4996,2.7053,2.7993,2.8717,2.925,2.9145,2.9208,2.9539,2.9239,2.9352,2.9984,2.8918,2.8452,2.8618,2.7755,2.7309,2.7309,2.7309,2.7309]}]]